<?xml version="1.0" encoding="UTF-8" standalone="no" ?>
<gpx xmlns="http://www.topografix.com/GPX/1/1" xmlns:xsi="http://www.w3.org/2001/XMLSchema-instance" xsi:schemaLocation="http://www.topografix.com/GPX/1/1 http://www.topografix.com/GPX/1/1/gpx.xsd" version="1.1" creator="VisuGPX - https://www.visugpx.com">
  <metadata>
    <name>Lagrasse et N.D. du Carla</name>
    <desc><![CDATA[Les arbres de Lagrasse et la chapelle N.D. du Carla.
C'est après avoir traversé une lande de buis et d'arbousiers où nous avons marché au hasard que le soleil est revenu.  Tout au long de la balade, ça et là nous regardons les feuilles qui ne tomberont pas... l'eau transparente de la rivière nous fait voir un banc de carpes de dix livres chacune qui casseraient tous nos vieux moulinets. Il faut manger. nous avons une table à la chapelle N.D. du Carla. Comme il fait bon de partager !... et quelque part nous retrouverons la route effacée pour revoir le village et L'abbaye de  Lagrasse.
Photos: 
http://vttolonzac.blogspot.fr/2014/10/balade-lagrasse.html]]></desc>
  </metadata>
  <trk>
    <name><![CDATA[30-OCT-14 15:51:07]]></name>
    <trkseg>
      <trkpt lat="43.0929" lon="2.61985">
        <ele>33.3</ele>
        <time>2014-10-30T07:51:41Z</time>
      </trkpt>
      <trkpt lat="43.09288" lon="2.61984">
        <ele>33.3</ele>
        <time>2014-10-30T07:51:42Z</time>
      </trkpt>
      <trkpt lat="43.0928" lon="2.61985">
        <ele>33.78</ele>
        <time>2014-10-30T07:52:09Z</time>
      </trkpt>
      <trkpt lat="43.09275" lon="2.61987">
        <ele>33.78</ele>
        <time>2014-10-30T07:52:38Z</time>
      </trkpt>
      <trkpt lat="43.09275" lon="2.61987">
        <ele>37.15</ele>
        <time>2014-10-30T07:52:40Z</time>
      </trkpt>
      <trkpt lat="43.09274" lon="2.61988">
        <ele>40.51</ele>
        <time>2014-10-30T07:52:41Z</time>
      </trkpt>
      <trkpt lat="43.09274" lon="2.61988">
        <ele>46.28</ele>
        <time>2014-10-30T07:52:43Z</time>
      </trkpt>
      <trkpt lat="43.09274" lon="2.61988">
        <ele>52.05</ele>
        <time>2014-10-30T07:52:45Z</time>
      </trkpt>
      <trkpt lat="43.09274" lon="2.61989">
        <ele>56.86</ele>
        <time>2014-10-30T07:52:47Z</time>
      </trkpt>
      <trkpt lat="43.09273" lon="2.61989">
        <ele>61.18</ele>
        <time>2014-10-30T07:52:49Z</time>
      </trkpt>
      <trkpt lat="43.09273" lon="2.6199">
        <ele>65.03</ele>
        <time>2014-10-30T07:52:51Z</time>
      </trkpt>
      <trkpt lat="43.09273" lon="2.6199">
        <ele>69.35</ele>
        <time>2014-10-30T07:52:53Z</time>
      </trkpt>
      <trkpt lat="43.09273" lon="2.61991">
        <ele>73.2</ele>
        <time>2014-10-30T07:52:55Z</time>
      </trkpt>
      <trkpt lat="43.09273" lon="2.61991">
        <ele>76.08</ele>
        <time>2014-10-30T07:52:57Z</time>
      </trkpt>
      <trkpt lat="43.09274" lon="2.61991">
        <ele>79.45</ele>
        <time>2014-10-30T07:52:59Z</time>
      </trkpt>
      <trkpt lat="43.09274" lon="2.61991">
        <ele>83.29</ele>
        <time>2014-10-30T07:53:02Z</time>
      </trkpt>
      <trkpt lat="43.09276" lon="2.62004">
        <ele>87.14</ele>
        <time>2014-10-30T07:53:05Z</time>
      </trkpt>
      <trkpt lat="43.09276" lon="2.62006">
        <ele>90.5</ele>
        <time>2014-10-30T07:53:08Z</time>
      </trkpt>
      <trkpt lat="43.09276" lon="2.62007">
        <ele>94.83</ele>
        <time>2014-10-30T07:53:12Z</time>
      </trkpt>
      <trkpt lat="43.09275" lon="2.62008">
        <ele>97.71</ele>
        <time>2014-10-30T07:53:16Z</time>
      </trkpt>
      <trkpt lat="43.09275" lon="2.6201">
        <ele>101.08</ele>
        <time>2014-10-30T07:53:21Z</time>
      </trkpt>
      <trkpt lat="43.09276" lon="2.6201">
        <ele>104.92</ele>
        <time>2014-10-30T07:53:27Z</time>
      </trkpt>
      <trkpt lat="43.09276" lon="2.62009">
        <ele>105.88</ele>
        <time>2014-10-30T07:53:29Z</time>
      </trkpt>
      <trkpt lat="43.09276" lon="2.62009">
        <ele>109.25</ele>
        <time>2014-10-30T07:53:36Z</time>
      </trkpt>
      <trkpt lat="43.09276" lon="2.62006">
        <ele>112.61</ele>
        <time>2014-10-30T07:53:46Z</time>
      </trkpt>
      <trkpt lat="43.09277" lon="2.62005">
        <ele>115.98</ele>
        <time>2014-10-30T07:53:59Z</time>
      </trkpt>
      <trkpt lat="43.09278" lon="2.62005">
        <ele>118.38</ele>
        <time>2014-10-30T07:54:22Z</time>
      </trkpt>
      <trkpt lat="43.09279" lon="2.62007">
        <ele>118.86</ele>
        <time>2014-10-30T07:54:51Z</time>
      </trkpt>
      <trkpt lat="43.09277" lon="2.62008">
        <ele>118.38</ele>
        <time>2014-10-30T07:55:22Z</time>
      </trkpt>
      <trkpt lat="43.09275" lon="2.62008">
        <ele>118.38</ele>
        <time>2014-10-30T07:55:46Z</time>
      </trkpt>
      <trkpt lat="43.09275" lon="2.62006">
        <ele>118.86</ele>
        <time>2014-10-30T07:56:09Z</time>
      </trkpt>
      <trkpt lat="43.09277" lon="2.62008">
        <ele>118.38</ele>
        <time>2014-10-30T07:56:38Z</time>
      </trkpt>
      <trkpt lat="43.09276" lon="2.62008">
        <ele>118.86</ele>
        <time>2014-10-30T07:57:17Z</time>
      </trkpt>
      <trkpt lat="43.09278" lon="2.62008">
        <ele>119.34</ele>
        <time>2014-10-30T07:57:50Z</time>
      </trkpt>
      <trkpt lat="43.09277" lon="2.62008">
        <ele>120.3</ele>
        <time>2014-10-30T07:58:09Z</time>
      </trkpt>
      <trkpt lat="43.09277" lon="2.62008">
        <ele>120.3</ele>
        <time>2014-10-30T07:58:15Z</time>
      </trkpt>
      <trkpt lat="43.09279" lon="2.62005">
        <ele>120.3</ele>
        <time>2014-10-30T07:58:18Z</time>
      </trkpt>
      <trkpt lat="43.09282" lon="2.62">
        <ele>120.3</ele>
        <time>2014-10-30T07:58:22Z</time>
      </trkpt>
      <trkpt lat="43.09284" lon="2.61996">
        <ele>120.3</ele>
        <time>2014-10-30T07:58:27Z</time>
      </trkpt>
      <trkpt lat="43.09285" lon="2.61993">
        <ele>119.82</ele>
        <time>2014-10-30T07:58:29Z</time>
      </trkpt>
      <trkpt lat="43.09291" lon="2.61978">
        <ele>119.82</ele>
        <time>2014-10-30T07:58:43Z</time>
      </trkpt>
      <trkpt lat="43.09292" lon="2.61975">
        <ele>119.34</ele>
        <time>2014-10-30T07:58:47Z</time>
      </trkpt>
      <trkpt lat="43.09293" lon="2.61967">
        <ele>119.82</ele>
        <time>2014-10-30T07:58:54Z</time>
      </trkpt>
      <trkpt lat="43.09288" lon="2.61968">
        <ele>121.26</ele>
        <time>2014-10-30T07:59:08Z</time>
      </trkpt>
      <trkpt lat="43.09281" lon="2.61974">
        <ele>124.15</ele>
        <time>2014-10-30T07:59:20Z</time>
      </trkpt>
      <trkpt lat="43.09278" lon="2.61975">
        <ele>124.63</ele>
        <time>2014-10-30T07:59:25Z</time>
      </trkpt>
      <trkpt lat="43.09279" lon="2.61968">
        <ele>124.63</ele>
        <time>2014-10-30T07:59:31Z</time>
      </trkpt>
      <trkpt lat="43.09285" lon="2.61948">
        <ele>124.63</ele>
        <time>2014-10-30T07:59:46Z</time>
      </trkpt>
      <trkpt lat="43.09285" lon="2.61946">
        <ele>124.63</ele>
        <time>2014-10-30T07:59:47Z</time>
      </trkpt>
      <trkpt lat="43.09286" lon="2.61938">
        <ele>124.63</ele>
        <time>2014-10-30T07:59:52Z</time>
      </trkpt>
      <trkpt lat="43.09289" lon="2.61934">
        <ele>124.63</ele>
        <time>2014-10-30T07:59:58Z</time>
      </trkpt>
      <trkpt lat="43.0929" lon="2.61931">
        <ele>125.11</ele>
        <time>2014-10-30T08:00:00Z</time>
      </trkpt>
      <trkpt lat="43.09292" lon="2.61927">
        <ele>124.63</ele>
        <time>2014-10-30T08:00:12Z</time>
      </trkpt>
      <trkpt lat="43.09293" lon="2.6193">
        <ele>125.11</ele>
        <time>2014-10-30T08:00:21Z</time>
      </trkpt>
      <trkpt lat="43.09292" lon="2.61927">
        <ele>124.63</ele>
        <time>2014-10-30T08:00:24Z</time>
      </trkpt>
      <trkpt lat="43.09295" lon="2.61918">
        <ele>124.63</ele>
        <time>2014-10-30T08:00:35Z</time>
      </trkpt>
      <trkpt lat="43.09297" lon="2.61913">
        <ele>125.11</ele>
        <time>2014-10-30T08:00:45Z</time>
      </trkpt>
      <trkpt lat="43.09299" lon="2.61908">
        <ele>125.11</ele>
        <time>2014-10-30T08:00:58Z</time>
      </trkpt>
      <trkpt lat="43.09299" lon="2.61901">
        <ele>125.11</ele>
        <time>2014-10-30T08:01:02Z</time>
      </trkpt>
      <trkpt lat="43.09305" lon="2.61887">
        <ele>124.63</ele>
        <time>2014-10-30T08:01:14Z</time>
      </trkpt>
      <trkpt lat="43.09308" lon="2.61873">
        <ele>124.63</ele>
        <time>2014-10-30T08:01:23Z</time>
      </trkpt>
      <trkpt lat="43.09312" lon="2.61865">
        <ele>124.63</ele>
        <time>2014-10-30T08:01:28Z</time>
      </trkpt>
      <trkpt lat="43.09314" lon="2.61847">
        <ele>124.63</ele>
        <time>2014-10-30T08:01:39Z</time>
      </trkpt>
      <trkpt lat="43.09314" lon="2.61843">
        <ele>124.63</ele>
        <time>2014-10-30T08:01:41Z</time>
      </trkpt>
      <trkpt lat="43.09313" lon="2.61835">
        <ele>124.15</ele>
        <time>2014-10-30T08:01:46Z</time>
      </trkpt>
      <trkpt lat="43.0931" lon="2.61816">
        <ele>123.67</ele>
        <time>2014-10-30T08:01:58Z</time>
      </trkpt>
      <trkpt lat="43.09308" lon="2.61812">
        <ele>124.15</ele>
        <time>2014-10-30T08:02:01Z</time>
      </trkpt>
      <trkpt lat="43.09306" lon="2.61804">
        <ele>123.19</ele>
        <time>2014-10-30T08:02:06Z</time>
      </trkpt>
      <trkpt lat="43.09301" lon="2.61784">
        <ele>123.19</ele>
        <time>2014-10-30T08:02:20Z</time>
      </trkpt>
      <trkpt lat="43.09303" lon="2.61786">
        <ele>123.19</ele>
        <time>2014-10-30T08:02:31Z</time>
      </trkpt>
      <trkpt lat="43.09303" lon="2.61786">
        <ele>123.19</ele>
        <time>2014-10-30T08:02:33Z</time>
      </trkpt>
      <trkpt lat="43.09301" lon="2.61784">
        <ele>123.19</ele>
        <time>2014-10-30T08:02:36Z</time>
      </trkpt>
      <trkpt lat="43.09297" lon="2.61785">
        <ele>123.19</ele>
        <time>2014-10-30T08:02:49Z</time>
      </trkpt>
      <trkpt lat="43.09296" lon="2.61785">
        <ele>123.19</ele>
        <time>2014-10-30T08:02:57Z</time>
      </trkpt>
      <trkpt lat="43.09296" lon="2.61782">
        <ele>123.19</ele>
        <time>2014-10-30T08:02:59Z</time>
      </trkpt>
      <trkpt lat="43.09294" lon="2.61772">
        <ele>122.71</ele>
        <time>2014-10-30T08:03:05Z</time>
      </trkpt>
      <trkpt lat="43.09289" lon="2.61763">
        <ele>122.22</ele>
        <time>2014-10-30T08:03:11Z</time>
      </trkpt>
      <trkpt lat="43.09283" lon="2.61729">
        <ele>121.74</ele>
        <time>2014-10-30T08:03:22Z</time>
      </trkpt>
      <trkpt lat="43.09278" lon="2.61702">
        <ele>121.26</ele>
        <time>2014-10-30T08:03:32Z</time>
      </trkpt>
      <trkpt lat="43.09277" lon="2.61701">
        <ele>121.74</ele>
        <time>2014-10-30T08:03:33Z</time>
      </trkpt>
      <trkpt lat="43.09269" lon="2.61688">
        <ele>121.74</ele>
        <time>2014-10-30T08:03:40Z</time>
      </trkpt>
      <trkpt lat="43.09267" lon="2.61667">
        <ele>120.78</ele>
        <time>2014-10-30T08:03:52Z</time>
      </trkpt>
      <trkpt lat="43.09265" lon="2.61655">
        <ele>120.78</ele>
        <time>2014-10-30T08:03:59Z</time>
      </trkpt>
      <trkpt lat="43.09264" lon="2.6165">
        <ele>120.3</ele>
        <time>2014-10-30T08:04:02Z</time>
      </trkpt>
      <trkpt lat="43.09257" lon="2.61634">
        <ele>119.82</ele>
        <time>2014-10-30T08:04:11Z</time>
      </trkpt>
      <trkpt lat="43.09255" lon="2.61628">
        <ele>120.3</ele>
        <time>2014-10-30T08:04:14Z</time>
      </trkpt>
      <trkpt lat="43.0925" lon="2.61615">
        <ele>119.82</ele>
        <time>2014-10-30T08:04:21Z</time>
      </trkpt>
      <trkpt lat="43.09249" lon="2.61611">
        <ele>119.82</ele>
        <time>2014-10-30T08:04:24Z</time>
      </trkpt>
      <trkpt lat="43.09243" lon="2.61596">
        <ele>119.34</ele>
        <time>2014-10-30T08:04:34Z</time>
      </trkpt>
      <trkpt lat="43.09242" lon="2.61593">
        <ele>119.34</ele>
        <time>2014-10-30T08:04:36Z</time>
      </trkpt>
      <trkpt lat="43.09238" lon="2.61581">
        <ele>118.86</ele>
        <time>2014-10-30T08:04:44Z</time>
      </trkpt>
      <trkpt lat="43.09237" lon="2.61578">
        <ele>118.86</ele>
        <time>2014-10-30T08:04:46Z</time>
      </trkpt>
      <trkpt lat="43.09236" lon="2.61575">
        <ele>118.86</ele>
        <time>2014-10-30T08:04:48Z</time>
      </trkpt>
      <trkpt lat="43.09234" lon="2.61559">
        <ele>118.38</ele>
        <time>2014-10-30T08:05:00Z</time>
      </trkpt>
      <trkpt lat="43.09231" lon="2.61546">
        <ele>117.9</ele>
        <time>2014-10-30T08:05:10Z</time>
      </trkpt>
      <trkpt lat="43.09224" lon="2.61531">
        <ele>118.38</ele>
        <time>2014-10-30T08:05:20Z</time>
      </trkpt>
      <trkpt lat="43.09224" lon="2.61527">
        <ele>117.9</ele>
        <time>2014-10-30T08:05:23Z</time>
      </trkpt>
      <trkpt lat="43.09221" lon="2.61521">
        <ele>117.9</ele>
        <time>2014-10-30T08:05:27Z</time>
      </trkpt>
      <trkpt lat="43.09219" lon="2.61508">
        <ele>117.42</ele>
        <time>2014-10-30T08:05:36Z</time>
      </trkpt>
      <trkpt lat="43.09219" lon="2.61506">
        <ele>117.42</ele>
        <time>2014-10-30T08:05:37Z</time>
      </trkpt>
      <trkpt lat="43.09218" lon="2.61503">
        <ele>117.42</ele>
        <time>2014-10-30T08:05:39Z</time>
      </trkpt>
      <trkpt lat="43.09214" lon="2.61494">
        <ele>117.9</ele>
        <time>2014-10-30T08:05:46Z</time>
      </trkpt>
      <trkpt lat="43.09211" lon="2.61486">
        <ele>117.42</ele>
        <time>2014-10-30T08:05:51Z</time>
      </trkpt>
      <trkpt lat="43.09212" lon="2.61478">
        <ele>117.9</ele>
        <time>2014-10-30T08:05:56Z</time>
      </trkpt>
      <trkpt lat="43.09207" lon="2.61463">
        <ele>117.9</ele>
        <time>2014-10-30T08:06:06Z</time>
      </trkpt>
      <trkpt lat="43.09204" lon="2.61458">
        <ele>117.42</ele>
        <time>2014-10-30T08:06:11Z</time>
      </trkpt>
      <trkpt lat="43.09198" lon="2.61445">
        <ele>117.9</ele>
        <time>2014-10-30T08:06:20Z</time>
      </trkpt>
      <trkpt lat="43.09198" lon="2.61442">
        <ele>117.42</ele>
        <time>2014-10-30T08:06:22Z</time>
      </trkpt>
      <trkpt lat="43.09194" lon="2.61436">
        <ele>117.42</ele>
        <time>2014-10-30T08:06:26Z</time>
      </trkpt>
      <trkpt lat="43.09194" lon="2.61431">
        <ele>117.9</ele>
        <time>2014-10-30T08:06:29Z</time>
      </trkpt>
      <trkpt lat="43.09192" lon="2.61424">
        <ele>117.42</ele>
        <time>2014-10-30T08:06:34Z</time>
      </trkpt>
      <trkpt lat="43.09188" lon="2.61414">
        <ele>117.42</ele>
        <time>2014-10-30T08:06:40Z</time>
      </trkpt>
      <trkpt lat="43.09183" lon="2.61402">
        <ele>117.42</ele>
        <time>2014-10-30T08:06:46Z</time>
      </trkpt>
      <trkpt lat="43.09183" lon="2.61397">
        <ele>117.42</ele>
        <time>2014-10-30T08:06:49Z</time>
      </trkpt>
      <trkpt lat="43.09179" lon="2.61391">
        <ele>117.9</ele>
        <time>2014-10-30T08:06:53Z</time>
      </trkpt>
      <trkpt lat="43.09174" lon="2.61375">
        <ele>117.42</ele>
        <time>2014-10-30T08:07:02Z</time>
      </trkpt>
      <trkpt lat="43.09171" lon="2.61368">
        <ele>117.9</ele>
        <time>2014-10-30T08:07:07Z</time>
      </trkpt>
      <trkpt lat="43.0917" lon="2.61359">
        <ele>117.42</ele>
        <time>2014-10-30T08:07:13Z</time>
      </trkpt>
      <trkpt lat="43.09167" lon="2.61353">
        <ele>117.9</ele>
        <time>2014-10-30T08:07:19Z</time>
      </trkpt>
      <trkpt lat="43.09165" lon="2.61352">
        <ele>117.42</ele>
        <time>2014-10-30T08:07:22Z</time>
      </trkpt>
      <trkpt lat="43.09158" lon="2.61344">
        <ele>117.9</ele>
        <time>2014-10-30T08:07:29Z</time>
      </trkpt>
      <trkpt lat="43.09153" lon="2.61338">
        <ele>117.42</ele>
        <time>2014-10-30T08:07:33Z</time>
      </trkpt>
      <trkpt lat="43.09153" lon="2.61315">
        <ele>117.9</ele>
        <time>2014-10-30T08:07:44Z</time>
      </trkpt>
      <trkpt lat="43.09152" lon="2.61309">
        <ele>117.9</ele>
        <time>2014-10-30T08:07:47Z</time>
      </trkpt>
      <trkpt lat="43.09153" lon="2.61303">
        <ele>117.42</ele>
        <time>2014-10-30T08:07:51Z</time>
      </trkpt>
      <trkpt lat="43.09153" lon="2.61301">
        <ele>117.9</ele>
        <time>2014-10-30T08:07:52Z</time>
      </trkpt>
      <trkpt lat="43.09147" lon="2.61282">
        <ele>117.9</ele>
        <time>2014-10-30T08:08:02Z</time>
      </trkpt>
      <trkpt lat="43.09147" lon="2.61279">
        <ele>117.9</ele>
        <time>2014-10-30T08:08:04Z</time>
      </trkpt>
      <trkpt lat="43.09145" lon="2.61271">
        <ele>117.9</ele>
        <time>2014-10-30T08:08:08Z</time>
      </trkpt>
      <trkpt lat="43.09146" lon="2.61261">
        <ele>117.9</ele>
        <time>2014-10-30T08:08:14Z</time>
      </trkpt>
      <trkpt lat="43.09149" lon="2.61256">
        <ele>117.9</ele>
        <time>2014-10-30T08:08:17Z</time>
      </trkpt>
      <trkpt lat="43.09146" lon="2.61228">
        <ele>117.9</ele>
        <time>2014-10-30T08:08:32Z</time>
      </trkpt>
      <trkpt lat="43.09146" lon="2.61222">
        <ele>117.9</ele>
        <time>2014-10-30T08:08:35Z</time>
      </trkpt>
      <trkpt lat="43.09147" lon="2.6122">
        <ele>117.9</ele>
        <time>2014-10-30T08:08:37Z</time>
      </trkpt>
      <trkpt lat="43.09145" lon="2.61211">
        <ele>118.38</ele>
        <time>2014-10-30T08:08:42Z</time>
      </trkpt>
      <trkpt lat="43.09145" lon="2.61201">
        <ele>118.38</ele>
        <time>2014-10-30T08:08:48Z</time>
      </trkpt>
      <trkpt lat="43.09144" lon="2.61196">
        <ele>117.9</ele>
        <time>2014-10-30T08:08:51Z</time>
      </trkpt>
      <trkpt lat="43.09143" lon="2.61189">
        <ele>117.9</ele>
        <time>2014-10-30T08:08:55Z</time>
      </trkpt>
      <trkpt lat="43.09144" lon="2.61186">
        <ele>117.9</ele>
        <time>2014-10-30T08:08:57Z</time>
      </trkpt>
      <trkpt lat="43.09142" lon="2.61173">
        <ele>117.9</ele>
        <time>2014-10-30T08:09:05Z</time>
      </trkpt>
      <trkpt lat="43.09141" lon="2.61165">
        <ele>117.9</ele>
        <time>2014-10-30T08:09:09Z</time>
      </trkpt>
      <trkpt lat="43.09141" lon="2.61161">
        <ele>117.9</ele>
        <time>2014-10-30T08:09:11Z</time>
      </trkpt>
      <trkpt lat="43.09133" lon="2.61138">
        <ele>117.9</ele>
        <time>2014-10-30T08:09:23Z</time>
      </trkpt>
      <trkpt lat="43.09131" lon="2.61119">
        <ele>118.38</ele>
        <time>2014-10-30T08:09:34Z</time>
      </trkpt>
      <trkpt lat="43.0913" lon="2.61113">
        <ele>118.38</ele>
        <time>2014-10-30T08:09:37Z</time>
      </trkpt>
      <trkpt lat="43.09133" lon="2.61092">
        <ele>118.38</ele>
        <time>2014-10-30T08:09:50Z</time>
      </trkpt>
      <trkpt lat="43.09135" lon="2.61086">
        <ele>118.38</ele>
        <time>2014-10-30T08:09:54Z</time>
      </trkpt>
      <trkpt lat="43.0914" lon="2.61077">
        <ele>118.38</ele>
        <time>2014-10-30T08:10:00Z</time>
      </trkpt>
      <trkpt lat="43.09143" lon="2.61072">
        <ele>118.86</ele>
        <time>2014-10-30T08:10:04Z</time>
      </trkpt>
      <trkpt lat="43.0915" lon="2.61055">
        <ele>117.9</ele>
        <time>2014-10-30T08:10:17Z</time>
      </trkpt>
      <trkpt lat="43.09158" lon="2.61045">
        <ele>117.9</ele>
        <time>2014-10-30T08:10:26Z</time>
      </trkpt>
      <trkpt lat="43.09161" lon="2.61043">
        <ele>117.9</ele>
        <time>2014-10-30T08:10:29Z</time>
      </trkpt>
      <trkpt lat="43.09163" lon="2.6104">
        <ele>117.9</ele>
        <time>2014-10-30T08:10:32Z</time>
      </trkpt>
      <trkpt lat="43.09166" lon="2.61035">
        <ele>117.42</ele>
        <time>2014-10-30T08:10:36Z</time>
      </trkpt>
      <trkpt lat="43.09176" lon="2.61021">
        <ele>117.42</ele>
        <time>2014-10-30T08:10:48Z</time>
      </trkpt>
      <trkpt lat="43.09177" lon="2.6102">
        <ele>117.9</ele>
        <time>2014-10-30T08:11:04Z</time>
      </trkpt>
      <trkpt lat="43.0918" lon="2.61016">
        <ele>117.42</ele>
        <time>2014-10-30T08:11:08Z</time>
      </trkpt>
      <trkpt lat="43.09186" lon="2.61011">
        <ele>117.42</ele>
        <time>2014-10-30T08:11:14Z</time>
      </trkpt>
      <trkpt lat="43.09189" lon="2.61008">
        <ele>117.42</ele>
        <time>2014-10-30T08:11:28Z</time>
      </trkpt>
      <trkpt lat="43.09195" lon="2.61003">
        <ele>117.42</ele>
        <time>2014-10-30T08:11:39Z</time>
      </trkpt>
      <trkpt lat="43.09197" lon="2.61001">
        <ele>117.42</ele>
        <time>2014-10-30T08:11:42Z</time>
      </trkpt>
      <trkpt lat="43.0921" lon="2.60988">
        <ele>117.42</ele>
        <time>2014-10-30T08:11:56Z</time>
      </trkpt>
      <trkpt lat="43.09214" lon="2.60981">
        <ele>117.9</ele>
        <time>2014-10-30T08:12:01Z</time>
      </trkpt>
      <trkpt lat="43.09217" lon="2.60976">
        <ele>117.42</ele>
        <time>2014-10-30T08:12:04Z</time>
      </trkpt>
      <trkpt lat="43.0923" lon="2.60956">
        <ele>117.42</ele>
        <time>2014-10-30T08:12:21Z</time>
      </trkpt>
      <trkpt lat="43.09233" lon="2.60954">
        <ele>117.42</ele>
        <time>2014-10-30T08:12:24Z</time>
      </trkpt>
      <trkpt lat="43.09242" lon="2.60941">
        <ele>117.42</ele>
        <time>2014-10-30T08:12:35Z</time>
      </trkpt>
      <trkpt lat="43.09245" lon="2.60936">
        <ele>117.42</ele>
        <time>2014-10-30T08:12:41Z</time>
      </trkpt>
      <trkpt lat="43.09248" lon="2.60933">
        <ele>117.42</ele>
        <time>2014-10-30T08:12:45Z</time>
      </trkpt>
      <trkpt lat="43.09258" lon="2.60919">
        <ele>117.42</ele>
        <time>2014-10-30T08:12:59Z</time>
      </trkpt>
      <trkpt lat="43.09266" lon="2.6091">
        <ele>117.42</ele>
        <time>2014-10-30T08:13:12Z</time>
      </trkpt>
      <trkpt lat="43.09271" lon="2.60904">
        <ele>117.42</ele>
        <time>2014-10-30T08:13:19Z</time>
      </trkpt>
      <trkpt lat="43.0928" lon="2.6089">
        <ele>116.94</ele>
        <time>2014-10-30T08:13:31Z</time>
      </trkpt>
      <trkpt lat="43.09282" lon="2.60886">
        <ele>116.94</ele>
        <time>2014-10-30T08:13:35Z</time>
      </trkpt>
      <trkpt lat="43.09296" lon="2.60875">
        <ele>116.94</ele>
        <time>2014-10-30T08:13:49Z</time>
      </trkpt>
      <trkpt lat="43.09309" lon="2.60859">
        <ele>117.9</ele>
        <time>2014-10-30T08:14:03Z</time>
      </trkpt>
      <trkpt lat="43.09313" lon="2.60853">
        <ele>117.42</ele>
        <time>2014-10-30T08:14:08Z</time>
      </trkpt>
      <trkpt lat="43.09325" lon="2.60839">
        <ele>117.9</ele>
        <time>2014-10-30T08:14:20Z</time>
      </trkpt>
      <trkpt lat="43.09329" lon="2.60834">
        <ele>117.42</ele>
        <time>2014-10-30T08:14:24Z</time>
      </trkpt>
      <trkpt lat="43.09341" lon="2.60823">
        <ele>117.42</ele>
        <time>2014-10-30T08:14:36Z</time>
      </trkpt>
      <trkpt lat="43.09351" lon="2.60808">
        <ele>117.42</ele>
        <time>2014-10-30T08:14:48Z</time>
      </trkpt>
      <trkpt lat="43.09354" lon="2.60803">
        <ele>117.42</ele>
        <time>2014-10-30T08:14:52Z</time>
      </trkpt>
      <trkpt lat="43.09357" lon="2.60799">
        <ele>117.9</ele>
        <time>2014-10-30T08:14:55Z</time>
      </trkpt>
      <trkpt lat="43.09364" lon="2.60793">
        <ele>117.42</ele>
        <time>2014-10-30T08:15:02Z</time>
      </trkpt>
      <trkpt lat="43.09377" lon="2.60784">
        <ele>117.42</ele>
        <time>2014-10-30T08:15:14Z</time>
      </trkpt>
      <trkpt lat="43.09388" lon="2.60778">
        <ele>117.42</ele>
        <time>2014-10-30T08:15:23Z</time>
      </trkpt>
      <trkpt lat="43.09401" lon="2.60764">
        <ele>116.94</ele>
        <time>2014-10-30T08:15:38Z</time>
      </trkpt>
      <trkpt lat="43.09409" lon="2.60753">
        <ele>116.94</ele>
        <time>2014-10-30T08:15:46Z</time>
      </trkpt>
      <trkpt lat="43.09413" lon="2.60744">
        <ele>117.42</ele>
        <time>2014-10-30T08:15:51Z</time>
      </trkpt>
      <trkpt lat="43.09428" lon="2.60734">
        <ele>117.42</ele>
        <time>2014-10-30T08:16:04Z</time>
      </trkpt>
      <trkpt lat="43.09441" lon="2.60716">
        <ele>117.42</ele>
        <time>2014-10-30T08:16:18Z</time>
      </trkpt>
      <trkpt lat="43.09447" lon="2.60708">
        <ele>117.9</ele>
        <time>2014-10-30T08:16:24Z</time>
      </trkpt>
      <trkpt lat="43.0945" lon="2.60702">
        <ele>117.9</ele>
        <time>2014-10-30T08:16:28Z</time>
      </trkpt>
      <trkpt lat="43.09465" lon="2.60689">
        <ele>117.9</ele>
        <time>2014-10-30T08:16:41Z</time>
      </trkpt>
      <trkpt lat="43.09473" lon="2.60679">
        <ele>117.9</ele>
        <time>2014-10-30T08:16:50Z</time>
      </trkpt>
      <trkpt lat="43.09483" lon="2.60669">
        <ele>117.9</ele>
        <time>2014-10-30T08:17:00Z</time>
      </trkpt>
      <trkpt lat="43.0949" lon="2.60663">
        <ele>118.38</ele>
        <time>2014-10-30T08:17:07Z</time>
      </trkpt>
      <trkpt lat="43.09495" lon="2.60658">
        <ele>118.38</ele>
        <time>2014-10-30T08:17:13Z</time>
      </trkpt>
      <trkpt lat="43.09499" lon="2.60652">
        <ele>118.38</ele>
        <time>2014-10-30T08:17:19Z</time>
      </trkpt>
      <trkpt lat="43.09499" lon="2.60648">
        <ele>118.38</ele>
        <time>2014-10-30T08:17:21Z</time>
      </trkpt>
      <trkpt lat="43.09501" lon="2.60646">
        <ele>118.38</ele>
        <time>2014-10-30T08:17:23Z</time>
      </trkpt>
      <trkpt lat="43.09513" lon="2.60637">
        <ele>118.86</ele>
        <time>2014-10-30T08:17:36Z</time>
      </trkpt>
      <trkpt lat="43.09524" lon="2.60626">
        <ele>119.34</ele>
        <time>2014-10-30T08:17:47Z</time>
      </trkpt>
      <trkpt lat="43.09531" lon="2.60614">
        <ele>119.34</ele>
        <time>2014-10-30T08:17:57Z</time>
      </trkpt>
      <trkpt lat="43.09538" lon="2.60598">
        <ele>119.82</ele>
        <time>2014-10-30T08:18:08Z</time>
      </trkpt>
      <trkpt lat="43.09542" lon="2.60593">
        <ele>119.82</ele>
        <time>2014-10-30T08:18:13Z</time>
      </trkpt>
      <trkpt lat="43.09543" lon="2.60591">
        <ele>119.82</ele>
        <time>2014-10-30T08:18:15Z</time>
      </trkpt>
      <trkpt lat="43.09546" lon="2.60586">
        <ele>119.82</ele>
        <time>2014-10-30T08:18:19Z</time>
      </trkpt>
      <trkpt lat="43.09546" lon="2.60577">
        <ele>119.82</ele>
        <time>2014-10-30T08:18:25Z</time>
      </trkpt>
      <trkpt lat="43.09547" lon="2.6056">
        <ele>120.3</ele>
        <time>2014-10-30T08:18:36Z</time>
      </trkpt>
      <trkpt lat="43.09545" lon="2.60546">
        <ele>120.78</ele>
        <time>2014-10-30T08:18:49Z</time>
      </trkpt>
      <trkpt lat="43.09545" lon="2.60543">
        <ele>120.3</ele>
        <time>2014-10-30T08:18:53Z</time>
      </trkpt>
      <trkpt lat="43.09547" lon="2.60539">
        <ele>120.78</ele>
        <time>2014-10-30T08:18:58Z</time>
      </trkpt>
      <trkpt lat="43.09548" lon="2.60532">
        <ele>122.22</ele>
        <time>2014-10-30T08:19:08Z</time>
      </trkpt>
      <trkpt lat="43.09558" lon="2.60526">
        <ele>121.74</ele>
        <time>2014-10-30T08:19:19Z</time>
      </trkpt>
      <trkpt lat="43.09562" lon="2.60524">
        <ele>121.74</ele>
        <time>2014-10-30T08:19:22Z</time>
      </trkpt>
      <trkpt lat="43.09567" lon="2.6052">
        <ele>121.74</ele>
        <time>2014-10-30T08:19:27Z</time>
      </trkpt>
      <trkpt lat="43.09572" lon="2.60513">
        <ele>121.74</ele>
        <time>2014-10-30T08:19:33Z</time>
      </trkpt>
      <trkpt lat="43.09583" lon="2.605">
        <ele>122.22</ele>
        <time>2014-10-30T08:19:45Z</time>
      </trkpt>
      <trkpt lat="43.09588" lon="2.60494">
        <ele>122.22</ele>
        <time>2014-10-30T08:19:58Z</time>
      </trkpt>
      <trkpt lat="43.09591" lon="2.60488">
        <ele>122.71</ele>
        <time>2014-10-30T08:20:08Z</time>
      </trkpt>
      <trkpt lat="43.09596" lon="2.60483">
        <ele>122.71</ele>
        <time>2014-10-30T08:20:13Z</time>
      </trkpt>
      <trkpt lat="43.09602" lon="2.60467">
        <ele>123.19</ele>
        <time>2014-10-30T08:20:21Z</time>
      </trkpt>
      <trkpt lat="43.09617" lon="2.6045">
        <ele>124.63</ele>
        <time>2014-10-30T08:20:34Z</time>
      </trkpt>
      <trkpt lat="43.09631" lon="2.60437">
        <ele>125.59</ele>
        <time>2014-10-30T08:20:46Z</time>
      </trkpt>
      <trkpt lat="43.09642" lon="2.60428">
        <ele>126.07</ele>
        <time>2014-10-30T08:20:58Z</time>
      </trkpt>
      <trkpt lat="43.09644" lon="2.60427">
        <ele>126.07</ele>
        <time>2014-10-30T08:21:00Z</time>
      </trkpt>
      <trkpt lat="43.09648" lon="2.60421">
        <ele>127.03</ele>
        <time>2014-10-30T08:21:08Z</time>
      </trkpt>
      <trkpt lat="43.09654" lon="2.60417">
        <ele>127.51</ele>
        <time>2014-10-30T08:21:20Z</time>
      </trkpt>
      <trkpt lat="43.09658" lon="2.60416">
        <ele>127.51</ele>
        <time>2014-10-30T08:21:31Z</time>
      </trkpt>
      <trkpt lat="43.09662" lon="2.60412">
        <ele>128.47</ele>
        <time>2014-10-30T08:21:35Z</time>
      </trkpt>
      <trkpt lat="43.09668" lon="2.60392">
        <ele>129.92</ele>
        <time>2014-10-30T08:21:48Z</time>
      </trkpt>
      <trkpt lat="43.09668" lon="2.60381">
        <ele>131.36</ele>
        <time>2014-10-30T08:21:55Z</time>
      </trkpt>
      <trkpt lat="43.09668" lon="2.60375">
        <ele>131.36</ele>
        <time>2014-10-30T08:21:59Z</time>
      </trkpt>
      <trkpt lat="43.09668" lon="2.60372">
        <ele>131.84</ele>
        <time>2014-10-30T08:22:01Z</time>
      </trkpt>
      <trkpt lat="43.09666" lon="2.6036">
        <ele>132.8</ele>
        <time>2014-10-30T08:22:08Z</time>
      </trkpt>
      <trkpt lat="43.09664" lon="2.6034">
        <ele>133.76</ele>
        <time>2014-10-30T08:22:20Z</time>
      </trkpt>
      <trkpt lat="43.09664" lon="2.6033">
        <ele>134.24</ele>
        <time>2014-10-30T08:22:27Z</time>
      </trkpt>
      <trkpt lat="43.09662" lon="2.60325">
        <ele>134.72</ele>
        <time>2014-10-30T08:22:30Z</time>
      </trkpt>
      <trkpt lat="43.09662" lon="2.6032">
        <ele>134.72</ele>
        <time>2014-10-30T08:22:33Z</time>
      </trkpt>
      <trkpt lat="43.09661" lon="2.60315">
        <ele>135.2</ele>
        <time>2014-10-30T08:22:40Z</time>
      </trkpt>
      <trkpt lat="43.0966" lon="2.60311">
        <ele>135.68</ele>
        <time>2014-10-30T08:22:45Z</time>
      </trkpt>
      <trkpt lat="43.0966" lon="2.60306">
        <ele>136.16</ele>
        <time>2014-10-30T08:22:48Z</time>
      </trkpt>
      <trkpt lat="43.09659" lon="2.60298">
        <ele>136.16</ele>
        <time>2014-10-30T08:22:54Z</time>
      </trkpt>
      <trkpt lat="43.09655" lon="2.60277">
        <ele>138.09</ele>
        <time>2014-10-30T08:23:07Z</time>
      </trkpt>
      <trkpt lat="43.09655" lon="2.60276">
        <ele>137.61</ele>
        <time>2014-10-30T08:23:08Z</time>
      </trkpt>
      <trkpt lat="43.09653" lon="2.60266">
        <ele>138.09</ele>
        <time>2014-10-30T08:23:15Z</time>
      </trkpt>
      <trkpt lat="43.09652" lon="2.60263">
        <ele>138.09</ele>
        <time>2014-10-30T08:23:18Z</time>
      </trkpt>
      <trkpt lat="43.0965" lon="2.60254">
        <ele>139.05</ele>
        <time>2014-10-30T08:23:24Z</time>
      </trkpt>
      <trkpt lat="43.09648" lon="2.6024">
        <ele>140.01</ele>
        <time>2014-10-30T08:23:33Z</time>
      </trkpt>
      <trkpt lat="43.09643" lon="2.60222">
        <ele>140.97</ele>
        <time>2014-10-30T08:23:45Z</time>
      </trkpt>
      <trkpt lat="43.09643" lon="2.6022">
        <ele>140.97</ele>
        <time>2014-10-30T08:23:46Z</time>
      </trkpt>
      <trkpt lat="43.09641" lon="2.60208">
        <ele>142.41</ele>
        <time>2014-10-30T08:23:54Z</time>
      </trkpt>
      <trkpt lat="43.09637" lon="2.60186">
        <ele>143.85</ele>
        <time>2014-10-30T08:24:08Z</time>
      </trkpt>
      <trkpt lat="43.09635" lon="2.60167">
        <ele>144.82</ele>
        <time>2014-10-30T08:24:20Z</time>
      </trkpt>
      <trkpt lat="43.09635" lon="2.60148">
        <ele>145.78</ele>
        <time>2014-10-30T08:24:31Z</time>
      </trkpt>
      <trkpt lat="43.09636" lon="2.60141">
        <ele>146.26</ele>
        <time>2014-10-30T08:24:35Z</time>
      </trkpt>
      <trkpt lat="43.09637" lon="2.60138">
        <ele>146.26</ele>
        <time>2014-10-30T08:24:37Z</time>
      </trkpt>
      <trkpt lat="43.09636" lon="2.60128">
        <ele>147.22</ele>
        <time>2014-10-30T08:24:45Z</time>
      </trkpt>
      <trkpt lat="43.09637" lon="2.60122">
        <ele>147.22</ele>
        <time>2014-10-30T08:24:49Z</time>
      </trkpt>
      <trkpt lat="43.09637" lon="2.60114">
        <ele>147.7</ele>
        <time>2014-10-30T08:24:54Z</time>
      </trkpt>
      <trkpt lat="43.09637" lon="2.60111">
        <ele>147.7</ele>
        <time>2014-10-30T08:24:58Z</time>
      </trkpt>
      <trkpt lat="43.09637" lon="2.60106">
        <ele>148.18</ele>
        <time>2014-10-30T08:25:01Z</time>
      </trkpt>
      <trkpt lat="43.09637" lon="2.60101">
        <ele>148.18</ele>
        <time>2014-10-30T08:25:04Z</time>
      </trkpt>
      <trkpt lat="43.09637" lon="2.60095">
        <ele>149.14</ele>
        <time>2014-10-30T08:25:08Z</time>
      </trkpt>
      <trkpt lat="43.09638" lon="2.60088">
        <ele>149.62</ele>
        <time>2014-10-30T08:25:12Z</time>
      </trkpt>
      <trkpt lat="43.09639" lon="2.60079">
        <ele>150.1</ele>
        <time>2014-10-30T08:25:18Z</time>
      </trkpt>
      <trkpt lat="43.09641" lon="2.6006">
        <ele>151.54</ele>
        <time>2014-10-30T08:25:29Z</time>
      </trkpt>
      <trkpt lat="43.09641" lon="2.60045">
        <ele>152.51</ele>
        <time>2014-10-30T08:25:38Z</time>
      </trkpt>
      <trkpt lat="43.09639" lon="2.60029">
        <ele>152.99</ele>
        <time>2014-10-30T08:25:48Z</time>
      </trkpt>
      <trkpt lat="43.09637" lon="2.60019">
        <ele>153.47</ele>
        <time>2014-10-30T08:25:55Z</time>
      </trkpt>
      <trkpt lat="43.09634" lon="2.60011">
        <ele>153.95</ele>
        <time>2014-10-30T08:26:01Z</time>
      </trkpt>
      <trkpt lat="43.0963" lon="2.6">
        <ele>154.91</ele>
        <time>2014-10-30T08:26:09Z</time>
      </trkpt>
      <trkpt lat="43.09629" lon="2.59997">
        <ele>154.43</ele>
        <time>2014-10-30T08:26:11Z</time>
      </trkpt>
      <trkpt lat="43.09621" lon="2.59984">
        <ele>155.87</ele>
        <time>2014-10-30T08:26:23Z</time>
      </trkpt>
      <trkpt lat="43.09611" lon="2.59973">
        <ele>156.83</ele>
        <time>2014-10-30T08:26:34Z</time>
      </trkpt>
      <trkpt lat="43.09597" lon="2.59959">
        <ele>157.79</ele>
        <time>2014-10-30T08:26:47Z</time>
      </trkpt>
      <trkpt lat="43.09586" lon="2.59948">
        <ele>158.75</ele>
        <time>2014-10-30T08:26:58Z</time>
      </trkpt>
      <trkpt lat="43.09583" lon="2.59946">
        <ele>159.24</ele>
        <time>2014-10-30T08:27:00Z</time>
      </trkpt>
      <trkpt lat="43.09581" lon="2.59938">
        <ele>159.72</ele>
        <time>2014-10-30T08:27:06Z</time>
      </trkpt>
      <trkpt lat="43.09581" lon="2.59931">
        <ele>160.2</ele>
        <time>2014-10-30T08:27:11Z</time>
      </trkpt>
      <trkpt lat="43.0958" lon="2.59927">
        <ele>160.2</ele>
        <time>2014-10-30T08:27:14Z</time>
      </trkpt>
      <trkpt lat="43.09582" lon="2.59902">
        <ele>162.12</ele>
        <time>2014-10-30T08:27:29Z</time>
      </trkpt>
      <trkpt lat="43.09583" lon="2.59897">
        <ele>162.12</ele>
        <time>2014-10-30T08:27:32Z</time>
      </trkpt>
      <trkpt lat="43.09583" lon="2.59888">
        <ele>162.6</ele>
        <time>2014-10-30T08:27:38Z</time>
      </trkpt>
      <trkpt lat="43.09583" lon="2.59884">
        <ele>162.6</ele>
        <time>2014-10-30T08:27:40Z</time>
      </trkpt>
      <trkpt lat="43.09584" lon="2.59869">
        <ele>164.04</ele>
        <time>2014-10-30T08:27:53Z</time>
      </trkpt>
      <trkpt lat="43.09584" lon="2.59865">
        <ele>164.52</ele>
        <time>2014-10-30T08:27:56Z</time>
      </trkpt>
      <trkpt lat="43.09584" lon="2.59861">
        <ele>165</ele>
        <time>2014-10-30T08:27:59Z</time>
      </trkpt>
      <trkpt lat="43.09585" lon="2.59854">
        <ele>165</ele>
        <time>2014-10-30T08:28:04Z</time>
      </trkpt>
      <trkpt lat="43.0958" lon="2.59834">
        <ele>166.93</ele>
        <time>2014-10-30T08:28:17Z</time>
      </trkpt>
      <trkpt lat="43.09573" lon="2.59818">
        <ele>167.89</ele>
        <time>2014-10-30T08:28:30Z</time>
      </trkpt>
      <trkpt lat="43.09566" lon="2.59805">
        <ele>168.85</ele>
        <time>2014-10-30T08:28:40Z</time>
      </trkpt>
      <trkpt lat="43.09559" lon="2.59796">
        <ele>169.81</ele>
        <time>2014-10-30T08:28:48Z</time>
      </trkpt>
      <trkpt lat="43.09558" lon="2.5979">
        <ele>170.29</ele>
        <time>2014-10-30T08:28:53Z</time>
      </trkpt>
      <trkpt lat="43.09556" lon="2.59786">
        <ele>170.77</ele>
        <time>2014-10-30T08:28:56Z</time>
      </trkpt>
      <trkpt lat="43.09554" lon="2.59776">
        <ele>171.25</ele>
        <time>2014-10-30T08:29:04Z</time>
      </trkpt>
      <trkpt lat="43.09552" lon="2.5977">
        <ele>172.21</ele>
        <time>2014-10-30T08:29:08Z</time>
      </trkpt>
      <trkpt lat="43.09551" lon="2.59766">
        <ele>172.21</ele>
        <time>2014-10-30T08:29:11Z</time>
      </trkpt>
      <trkpt lat="43.09551" lon="2.59761">
        <ele>172.69</ele>
        <time>2014-10-30T08:29:14Z</time>
      </trkpt>
      <trkpt lat="43.0955" lon="2.59757">
        <ele>172.69</ele>
        <time>2014-10-30T08:29:17Z</time>
      </trkpt>
      <trkpt lat="43.0955" lon="2.59754">
        <ele>173.17</ele>
        <time>2014-10-30T08:29:19Z</time>
      </trkpt>
      <trkpt lat="43.09549" lon="2.59748">
        <ele>173.66</ele>
        <time>2014-10-30T08:29:23Z</time>
      </trkpt>
      <trkpt lat="43.0955" lon="2.59739">
        <ele>174.14</ele>
        <time>2014-10-30T08:29:28Z</time>
      </trkpt>
      <trkpt lat="43.0955" lon="2.59734">
        <ele>174.14</ele>
        <time>2014-10-30T08:29:31Z</time>
      </trkpt>
      <trkpt lat="43.09551" lon="2.5973">
        <ele>175.1</ele>
        <time>2014-10-30T08:29:34Z</time>
      </trkpt>
      <trkpt lat="43.09549" lon="2.59724">
        <ele>175.1</ele>
        <time>2014-10-30T08:29:45Z</time>
      </trkpt>
      <trkpt lat="43.09549" lon="2.59722">
        <ele>174.62</ele>
        <time>2014-10-30T08:30:00Z</time>
      </trkpt>
      <trkpt lat="43.09549" lon="2.5972">
        <ele>174.14</ele>
        <time>2014-10-30T08:30:27Z</time>
      </trkpt>
      <trkpt lat="43.09549" lon="2.5972">
        <ele>174.14</ele>
        <time>2014-10-30T08:30:29Z</time>
      </trkpt>
      <trkpt lat="43.09549" lon="2.5972">
        <ele>174.62</ele>
        <time>2014-10-30T08:30:42Z</time>
      </trkpt>
      <trkpt lat="43.09549" lon="2.5972">
        <ele>175.1</ele>
        <time>2014-10-30T08:30:56Z</time>
      </trkpt>
      <trkpt lat="43.09549" lon="2.5972">
        <ele>175.1</ele>
        <time>2014-10-30T08:31:01Z</time>
      </trkpt>
      <trkpt lat="43.09548" lon="2.59715">
        <ele>175.1</ele>
        <time>2014-10-30T08:31:04Z</time>
      </trkpt>
      <trkpt lat="43.09547" lon="2.59707">
        <ele>175.58</ele>
        <time>2014-10-30T08:31:09Z</time>
      </trkpt>
      <trkpt lat="43.09539" lon="2.59692">
        <ele>177.02</ele>
        <time>2014-10-30T08:31:21Z</time>
      </trkpt>
      <trkpt lat="43.09538" lon="2.59687">
        <ele>177.02</ele>
        <time>2014-10-30T08:31:34Z</time>
      </trkpt>
      <trkpt lat="43.09538" lon="2.59687">
        <ele>177.02</ele>
        <time>2014-10-30T08:31:47Z</time>
      </trkpt>
      <trkpt lat="43.09538" lon="2.59689">
        <ele>177.5</ele>
        <time>2014-10-30T08:31:53Z</time>
      </trkpt>
      <trkpt lat="43.09536" lon="2.59694">
        <ele>177.5</ele>
        <time>2014-10-30T08:31:57Z</time>
      </trkpt>
      <trkpt lat="43.09534" lon="2.59697">
        <ele>177.5</ele>
        <time>2014-10-30T08:31:59Z</time>
      </trkpt>
      <trkpt lat="43.09531" lon="2.59708">
        <ele>178.94</ele>
        <time>2014-10-30T08:32:10Z</time>
      </trkpt>
      <trkpt lat="43.09529" lon="2.59715">
        <ele>179.42</ele>
        <time>2014-10-30T08:32:16Z</time>
      </trkpt>
      <trkpt lat="43.09525" lon="2.59728">
        <ele>180.38</ele>
        <time>2014-10-30T08:32:27Z</time>
      </trkpt>
      <trkpt lat="43.09521" lon="2.59735">
        <ele>181.35</ele>
        <time>2014-10-30T08:32:33Z</time>
      </trkpt>
      <trkpt lat="43.09519" lon="2.5974">
        <ele>181.35</ele>
        <time>2014-10-30T08:32:37Z</time>
      </trkpt>
      <trkpt lat="43.09514" lon="2.5975">
        <ele>182.79</ele>
        <time>2014-10-30T08:32:49Z</time>
      </trkpt>
      <trkpt lat="43.09512" lon="2.59751">
        <ele>182.79</ele>
        <time>2014-10-30T08:32:51Z</time>
      </trkpt>
      <trkpt lat="43.09506" lon="2.59759">
        <ele>183.27</ele>
        <time>2014-10-30T08:33:02Z</time>
      </trkpt>
      <trkpt lat="43.09497" lon="2.5976">
        <ele>182.79</ele>
        <time>2014-10-30T08:33:14Z</time>
      </trkpt>
      <trkpt lat="43.09496" lon="2.59759">
        <ele>183.27</ele>
        <time>2014-10-30T08:33:31Z</time>
      </trkpt>
      <trkpt lat="43.09494" lon="2.59758">
        <ele>183.27</ele>
        <time>2014-10-30T08:33:52Z</time>
      </trkpt>
      <trkpt lat="43.09497" lon="2.59756">
        <ele>182.79</ele>
        <time>2014-10-30T08:34:03Z</time>
      </trkpt>
      <trkpt lat="43.09503" lon="2.5975">
        <ele>181.83</ele>
        <time>2014-10-30T08:34:15Z</time>
      </trkpt>
      <trkpt lat="43.09509" lon="2.59744">
        <ele>180.87</ele>
        <time>2014-10-30T08:34:23Z</time>
      </trkpt>
      <trkpt lat="43.09515" lon="2.59731">
        <ele>179.42</ele>
        <time>2014-10-30T08:34:35Z</time>
      </trkpt>
      <trkpt lat="43.09519" lon="2.59723">
        <ele>178.94</ele>
        <time>2014-10-30T08:34:47Z</time>
      </trkpt>
      <trkpt lat="43.09526" lon="2.59711">
        <ele>177.98</ele>
        <time>2014-10-30T08:34:58Z</time>
      </trkpt>
      <trkpt lat="43.09526" lon="2.5971">
        <ele>177.5</ele>
        <time>2014-10-30T08:34:59Z</time>
      </trkpt>
      <trkpt lat="43.0953" lon="2.59705">
        <ele>177.02</ele>
        <time>2014-10-30T08:35:04Z</time>
      </trkpt>
      <trkpt lat="43.09531" lon="2.59703">
        <ele>177.5</ele>
        <time>2014-10-30T08:35:06Z</time>
      </trkpt>
      <trkpt lat="43.09539" lon="2.59694">
        <ele>176.54</ele>
        <time>2014-10-30T08:35:15Z</time>
      </trkpt>
      <trkpt lat="43.09542" lon="2.59689">
        <ele>177.02</ele>
        <time>2014-10-30T08:35:18Z</time>
      </trkpt>
      <trkpt lat="43.09545" lon="2.59682">
        <ele>177.98</ele>
        <time>2014-10-30T08:35:22Z</time>
      </trkpt>
      <trkpt lat="43.09549" lon="2.59671">
        <ele>178.94</ele>
        <time>2014-10-30T08:35:30Z</time>
      </trkpt>
      <trkpt lat="43.09552" lon="2.59659">
        <ele>179.9</ele>
        <time>2014-10-30T08:35:37Z</time>
      </trkpt>
      <trkpt lat="43.09554" lon="2.59652">
        <ele>180.38</ele>
        <time>2014-10-30T08:35:41Z</time>
      </trkpt>
      <trkpt lat="43.09559" lon="2.59633">
        <ele>181.83</ele>
        <time>2014-10-30T08:35:52Z</time>
      </trkpt>
      <trkpt lat="43.09562" lon="2.59625">
        <ele>181.83</ele>
        <time>2014-10-30T08:35:57Z</time>
      </trkpt>
      <trkpt lat="43.09563" lon="2.59616">
        <ele>182.79</ele>
        <time>2014-10-30T08:36:03Z</time>
      </trkpt>
      <trkpt lat="43.09567" lon="2.59606">
        <ele>183.27</ele>
        <time>2014-10-30T08:36:10Z</time>
      </trkpt>
      <trkpt lat="43.09568" lon="2.59595">
        <ele>184.23</ele>
        <time>2014-10-30T08:36:17Z</time>
      </trkpt>
      <trkpt lat="43.09571" lon="2.59587">
        <ele>184.23</ele>
        <time>2014-10-30T08:36:22Z</time>
      </trkpt>
      <trkpt lat="43.09571" lon="2.59584">
        <ele>184.71</ele>
        <time>2014-10-30T08:36:24Z</time>
      </trkpt>
      <trkpt lat="43.09573" lon="2.59573">
        <ele>185.67</ele>
        <time>2014-10-30T08:36:31Z</time>
      </trkpt>
      <trkpt lat="43.09575" lon="2.59555">
        <ele>186.63</ele>
        <time>2014-10-30T08:36:42Z</time>
      </trkpt>
      <trkpt lat="43.0958" lon="2.59539">
        <ele>188.08</ele>
        <time>2014-10-30T08:36:55Z</time>
      </trkpt>
      <trkpt lat="43.09582" lon="2.59532">
        <ele>188.08</ele>
        <time>2014-10-30T08:37:03Z</time>
      </trkpt>
      <trkpt lat="43.09584" lon="2.59528">
        <ele>189.04</ele>
        <time>2014-10-30T08:37:06Z</time>
      </trkpt>
      <trkpt lat="43.09587" lon="2.59519">
        <ele>189.52</ele>
        <time>2014-10-30T08:37:13Z</time>
      </trkpt>
      <trkpt lat="43.0959" lon="2.59507">
        <ele>190</ele>
        <time>2014-10-30T08:37:21Z</time>
      </trkpt>
      <trkpt lat="43.09592" lon="2.595">
        <ele>190.96</ele>
        <time>2014-10-30T08:37:26Z</time>
      </trkpt>
      <trkpt lat="43.09592" lon="2.59494">
        <ele>191.44</ele>
        <time>2014-10-30T08:37:30Z</time>
      </trkpt>
      <trkpt lat="43.09593" lon="2.59492">
        <ele>191.44</ele>
        <time>2014-10-30T08:37:32Z</time>
      </trkpt>
      <trkpt lat="43.09597" lon="2.59477">
        <ele>192.88</ele>
        <time>2014-10-30T08:37:43Z</time>
      </trkpt>
      <trkpt lat="43.09595" lon="2.59475">
        <ele>193.84</ele>
        <time>2014-10-30T08:37:48Z</time>
      </trkpt>
      <trkpt lat="43.09593" lon="2.59477">
        <ele>193.36</ele>
        <time>2014-10-30T08:37:51Z</time>
      </trkpt>
      <trkpt lat="43.09593" lon="2.59481">
        <ele>193.36</ele>
        <time>2014-10-30T08:37:56Z</time>
      </trkpt>
      <trkpt lat="43.09588" lon="2.59489">
        <ele>193.84</ele>
        <time>2014-10-30T08:38:06Z</time>
      </trkpt>
      <trkpt lat="43.09585" lon="2.59496">
        <ele>194.32</ele>
        <time>2014-10-30T08:38:13Z</time>
      </trkpt>
      <trkpt lat="43.09582" lon="2.59504">
        <ele>194.8</ele>
        <time>2014-10-30T08:38:22Z</time>
      </trkpt>
      <trkpt lat="43.0958" lon="2.59507">
        <ele>194.32</ele>
        <time>2014-10-30T08:38:24Z</time>
      </trkpt>
      <trkpt lat="43.09577" lon="2.59514">
        <ele>194.8</ele>
        <time>2014-10-30T08:38:30Z</time>
      </trkpt>
      <trkpt lat="43.09575" lon="2.59522">
        <ele>195.28</ele>
        <time>2014-10-30T08:38:36Z</time>
      </trkpt>
      <trkpt lat="43.09575" lon="2.59527">
        <ele>195.28</ele>
        <time>2014-10-30T08:38:40Z</time>
      </trkpt>
      <trkpt lat="43.09572" lon="2.59532">
        <ele>195.28</ele>
        <time>2014-10-30T08:38:44Z</time>
      </trkpt>
      <trkpt lat="43.0957" lon="2.59541">
        <ele>195.28</ele>
        <time>2014-10-30T08:38:51Z</time>
      </trkpt>
      <trkpt lat="43.09568" lon="2.59547">
        <ele>195.77</ele>
        <time>2014-10-30T08:38:55Z</time>
      </trkpt>
      <trkpt lat="43.09566" lon="2.59551">
        <ele>195.28</ele>
        <time>2014-10-30T08:38:59Z</time>
      </trkpt>
      <trkpt lat="43.09564" lon="2.59559">
        <ele>196.25</ele>
        <time>2014-10-30T08:39:05Z</time>
      </trkpt>
      <trkpt lat="43.09561" lon="2.5956">
        <ele>196.25</ele>
        <time>2014-10-30T08:39:15Z</time>
      </trkpt>
      <trkpt lat="43.0956" lon="2.59563">
        <ele>196.25</ele>
        <time>2014-10-30T08:39:21Z</time>
      </trkpt>
      <trkpt lat="43.09555" lon="2.59569">
        <ele>196.73</ele>
        <time>2014-10-30T08:39:28Z</time>
      </trkpt>
      <trkpt lat="43.09551" lon="2.59576">
        <ele>196.73</ele>
        <time>2014-10-30T08:39:33Z</time>
      </trkpt>
      <trkpt lat="43.09551" lon="2.59578">
        <ele>197.21</ele>
        <time>2014-10-30T08:39:35Z</time>
      </trkpt>
      <trkpt lat="43.09549" lon="2.59585">
        <ele>197.21</ele>
        <time>2014-10-30T08:39:40Z</time>
      </trkpt>
      <trkpt lat="43.09538" lon="2.59588">
        <ele>197.69</ele>
        <time>2014-10-30T08:39:47Z</time>
      </trkpt>
      <trkpt lat="43.09538" lon="2.59591">
        <ele>198.17</ele>
        <time>2014-10-30T08:39:49Z</time>
      </trkpt>
      <trkpt lat="43.09538" lon="2.59594">
        <ele>198.17</ele>
        <time>2014-10-30T08:39:51Z</time>
      </trkpt>
      <trkpt lat="43.09527" lon="2.59606">
        <ele>198.65</ele>
        <time>2014-10-30T08:40:01Z</time>
      </trkpt>
      <trkpt lat="43.09523" lon="2.59612">
        <ele>200.09</ele>
        <time>2014-10-30T08:40:09Z</time>
      </trkpt>
      <trkpt lat="43.09515" lon="2.59625">
        <ele>202.01</ele>
        <time>2014-10-30T08:40:21Z</time>
      </trkpt>
      <trkpt lat="43.09505" lon="2.59629">
        <ele>202.01</ele>
        <time>2014-10-30T08:40:31Z</time>
      </trkpt>
      <trkpt lat="43.09501" lon="2.59633">
        <ele>202.49</ele>
        <time>2014-10-30T08:40:43Z</time>
      </trkpt>
      <trkpt lat="43.095" lon="2.59634">
        <ele>202.49</ele>
        <time>2014-10-30T08:40:44Z</time>
      </trkpt>
      <trkpt lat="43.09495" lon="2.59637">
        <ele>202.49</ele>
        <time>2014-10-30T08:40:49Z</time>
      </trkpt>
      <trkpt lat="43.09481" lon="2.5964">
        <ele>202.49</ele>
        <time>2014-10-30T08:40:54Z</time>
      </trkpt>
      <trkpt lat="43.09463" lon="2.59636">
        <ele>203.94</ele>
        <time>2014-10-30T08:41:01Z</time>
      </trkpt>
      <trkpt lat="43.09456" lon="2.59627">
        <ele>204.42</ele>
        <time>2014-10-30T08:41:08Z</time>
      </trkpt>
      <trkpt lat="43.09453" lon="2.5962">
        <ele>204.42</ele>
        <time>2014-10-30T08:41:12Z</time>
      </trkpt>
      <trkpt lat="43.09451" lon="2.59608">
        <ele>203.94</ele>
        <time>2014-10-30T08:41:19Z</time>
      </trkpt>
      <trkpt lat="43.09448" lon="2.59595">
        <ele>203.94</ele>
        <time>2014-10-30T08:41:27Z</time>
      </trkpt>
      <trkpt lat="43.09447" lon="2.59586">
        <ele>203.94</ele>
        <time>2014-10-30T08:41:32Z</time>
      </trkpt>
      <trkpt lat="43.09442" lon="2.59562">
        <ele>203.46</ele>
        <time>2014-10-30T08:41:46Z</time>
      </trkpt>
      <trkpt lat="43.0944" lon="2.59553">
        <ele>203.94</ele>
        <time>2014-10-30T08:41:52Z</time>
      </trkpt>
      <trkpt lat="43.09439" lon="2.59539">
        <ele>203.94</ele>
        <time>2014-10-30T08:42:00Z</time>
      </trkpt>
      <trkpt lat="43.09437" lon="2.59518">
        <ele>203.94</ele>
        <time>2014-10-30T08:42:13Z</time>
      </trkpt>
      <trkpt lat="43.09436" lon="2.59509">
        <ele>204.42</ele>
        <time>2014-10-30T08:42:18Z</time>
      </trkpt>
      <trkpt lat="43.09434" lon="2.5949">
        <ele>204.42</ele>
        <time>2014-10-30T08:42:31Z</time>
      </trkpt>
      <trkpt lat="43.09433" lon="2.59489">
        <ele>204.9</ele>
        <time>2014-10-30T08:42:32Z</time>
      </trkpt>
      <trkpt lat="43.09433" lon="2.59482">
        <ele>204.9</ele>
        <time>2014-10-30T08:42:39Z</time>
      </trkpt>
      <trkpt lat="43.09434" lon="2.59479">
        <ele>205.38</ele>
        <time>2014-10-30T08:42:42Z</time>
      </trkpt>
      <trkpt lat="43.09434" lon="2.59469">
        <ele>205.86</ele>
        <time>2014-10-30T08:42:49Z</time>
      </trkpt>
      <trkpt lat="43.09433" lon="2.59447">
        <ele>206.34</ele>
        <time>2014-10-30T08:43:01Z</time>
      </trkpt>
      <trkpt lat="43.09431" lon="2.59435">
        <ele>206.82</ele>
        <time>2014-10-30T08:43:08Z</time>
      </trkpt>
      <trkpt lat="43.09429" lon="2.59427">
        <ele>207.3</ele>
        <time>2014-10-30T08:43:13Z</time>
      </trkpt>
      <trkpt lat="43.09429" lon="2.59425">
        <ele>206.82</ele>
        <time>2014-10-30T08:43:15Z</time>
      </trkpt>
      <trkpt lat="43.09426" lon="2.59405">
        <ele>207.78</ele>
        <time>2014-10-30T08:43:29Z</time>
      </trkpt>
      <trkpt lat="43.09421" lon="2.59392">
        <ele>207.78</ele>
        <time>2014-10-30T08:43:39Z</time>
      </trkpt>
      <trkpt lat="43.09421" lon="2.59387">
        <ele>208.26</ele>
        <time>2014-10-30T08:43:42Z</time>
      </trkpt>
      <trkpt lat="43.09414" lon="2.59368">
        <ele>209.22</ele>
        <time>2014-10-30T08:43:55Z</time>
      </trkpt>
      <trkpt lat="43.09413" lon="2.59363">
        <ele>209.22</ele>
        <time>2014-10-30T08:43:59Z</time>
      </trkpt>
      <trkpt lat="43.09411" lon="2.59356">
        <ele>210.19</ele>
        <time>2014-10-30T08:44:03Z</time>
      </trkpt>
      <trkpt lat="43.0941" lon="2.59353">
        <ele>209.7</ele>
        <time>2014-10-30T08:44:05Z</time>
      </trkpt>
      <trkpt lat="43.09408" lon="2.59344">
        <ele>210.67</ele>
        <time>2014-10-30T08:44:11Z</time>
      </trkpt>
      <trkpt lat="43.09406" lon="2.59339">
        <ele>210.67</ele>
        <time>2014-10-30T08:44:15Z</time>
      </trkpt>
      <trkpt lat="43.09402" lon="2.59321">
        <ele>212.11</ele>
        <time>2014-10-30T08:44:27Z</time>
      </trkpt>
      <trkpt lat="43.09401" lon="2.59317">
        <ele>212.11</ele>
        <time>2014-10-30T08:44:30Z</time>
      </trkpt>
      <trkpt lat="43.0939" lon="2.59302">
        <ele>212.11</ele>
        <time>2014-10-30T08:44:43Z</time>
      </trkpt>
      <trkpt lat="43.09388" lon="2.59298">
        <ele>211.63</ele>
        <time>2014-10-30T08:44:46Z</time>
      </trkpt>
      <trkpt lat="43.09384" lon="2.59289">
        <ele>211.15</ele>
        <time>2014-10-30T08:44:52Z</time>
      </trkpt>
      <trkpt lat="43.09383" lon="2.59285">
        <ele>211.15</ele>
        <time>2014-10-30T08:44:55Z</time>
      </trkpt>
      <trkpt lat="43.0938" lon="2.59275">
        <ele>210.19</ele>
        <time>2014-10-30T08:45:02Z</time>
      </trkpt>
      <trkpt lat="43.09375" lon="2.59263">
        <ele>209.7</ele>
        <time>2014-10-30T08:45:11Z</time>
      </trkpt>
      <trkpt lat="43.09371" lon="2.59245">
        <ele>210.19</ele>
        <time>2014-10-30T08:45:22Z</time>
      </trkpt>
      <trkpt lat="43.0937" lon="2.5923">
        <ele>209.7</ele>
        <time>2014-10-30T08:45:31Z</time>
      </trkpt>
      <trkpt lat="43.0937" lon="2.59218">
        <ele>209.7</ele>
        <time>2014-10-30T08:45:37Z</time>
      </trkpt>
      <trkpt lat="43.09369" lon="2.59212">
        <ele>209.7</ele>
        <time>2014-10-30T08:45:41Z</time>
      </trkpt>
      <trkpt lat="43.09368" lon="2.59206">
        <ele>209.7</ele>
        <time>2014-10-30T08:45:45Z</time>
      </trkpt>
      <trkpt lat="43.09369" lon="2.59186">
        <ele>209.7</ele>
        <time>2014-10-30T08:45:56Z</time>
      </trkpt>
      <trkpt lat="43.09369" lon="2.59185">
        <ele>210.19</ele>
        <time>2014-10-30T08:45:57Z</time>
      </trkpt>
      <trkpt lat="43.0937" lon="2.59181">
        <ele>209.7</ele>
        <time>2014-10-30T08:46:00Z</time>
      </trkpt>
      <trkpt lat="43.0937" lon="2.59176">
        <ele>210.19</ele>
        <time>2014-10-30T08:46:03Z</time>
      </trkpt>
      <trkpt lat="43.0937" lon="2.59167">
        <ele>210.19</ele>
        <time>2014-10-30T08:46:08Z</time>
      </trkpt>
      <trkpt lat="43.09369" lon="2.5916">
        <ele>210.19</ele>
        <time>2014-10-30T08:46:13Z</time>
      </trkpt>
      <trkpt lat="43.0937" lon="2.59151">
        <ele>210.19</ele>
        <time>2014-10-30T08:46:18Z</time>
      </trkpt>
      <trkpt lat="43.09372" lon="2.59141">
        <ele>209.7</ele>
        <time>2014-10-30T08:46:24Z</time>
      </trkpt>
      <trkpt lat="43.09372" lon="2.59138">
        <ele>210.19</ele>
        <time>2014-10-30T08:46:26Z</time>
      </trkpt>
      <trkpt lat="43.09373" lon="2.59134">
        <ele>209.7</ele>
        <time>2014-10-30T08:46:29Z</time>
      </trkpt>
      <trkpt lat="43.09376" lon="2.59122">
        <ele>209.22</ele>
        <time>2014-10-30T08:46:38Z</time>
      </trkpt>
      <trkpt lat="43.09378" lon="2.59115">
        <ele>208.26</ele>
        <time>2014-10-30T08:46:44Z</time>
      </trkpt>
      <trkpt lat="43.09381" lon="2.5911">
        <ele>208.26</ele>
        <time>2014-10-30T08:46:48Z</time>
      </trkpt>
      <trkpt lat="43.09389" lon="2.59102">
        <ele>207.78</ele>
        <time>2014-10-30T08:47:00Z</time>
      </trkpt>
      <trkpt lat="43.09391" lon="2.591">
        <ele>207.3</ele>
        <time>2014-10-30T08:47:02Z</time>
      </trkpt>
      <trkpt lat="43.09395" lon="2.59096">
        <ele>207.3</ele>
        <time>2014-10-30T08:47:06Z</time>
      </trkpt>
      <trkpt lat="43.09396" lon="2.59093">
        <ele>206.82</ele>
        <time>2014-10-30T08:47:08Z</time>
      </trkpt>
      <trkpt lat="43.09404" lon="2.5908">
        <ele>207.3</ele>
        <time>2014-10-30T08:47:17Z</time>
      </trkpt>
      <trkpt lat="43.09408" lon="2.59071">
        <ele>206.82</ele>
        <time>2014-10-30T08:47:24Z</time>
      </trkpt>
      <trkpt lat="43.09412" lon="2.59055">
        <ele>207.3</ele>
        <time>2014-10-30T08:47:34Z</time>
      </trkpt>
      <trkpt lat="43.09413" lon="2.5905">
        <ele>206.82</ele>
        <time>2014-10-30T08:47:37Z</time>
      </trkpt>
      <trkpt lat="43.09417" lon="2.59041">
        <ele>206.82</ele>
        <time>2014-10-30T08:47:45Z</time>
      </trkpt>
      <trkpt lat="43.09418" lon="2.59039">
        <ele>206.82</ele>
        <time>2014-10-30T08:47:47Z</time>
      </trkpt>
      <trkpt lat="43.09421" lon="2.59032">
        <ele>206.34</ele>
        <time>2014-10-30T08:47:51Z</time>
      </trkpt>
      <trkpt lat="43.09424" lon="2.59026">
        <ele>206.34</ele>
        <time>2014-10-30T08:47:56Z</time>
      </trkpt>
      <trkpt lat="43.09428" lon="2.59016">
        <ele>205.86</ele>
        <time>2014-10-30T08:48:03Z</time>
      </trkpt>
      <trkpt lat="43.09431" lon="2.59006">
        <ele>205.86</ele>
        <time>2014-10-30T08:48:09Z</time>
      </trkpt>
      <trkpt lat="43.09433" lon="2.58995">
        <ele>205.38</ele>
        <time>2014-10-30T08:48:17Z</time>
      </trkpt>
      <trkpt lat="43.09432" lon="2.58985">
        <ele>204.9</ele>
        <time>2014-10-30T08:48:29Z</time>
      </trkpt>
      <trkpt lat="43.09431" lon="2.5898">
        <ele>204.9</ele>
        <time>2014-10-30T08:48:32Z</time>
      </trkpt>
      <trkpt lat="43.09425" lon="2.58963">
        <ele>204.42</ele>
        <time>2014-10-30T08:48:44Z</time>
      </trkpt>
      <trkpt lat="43.09423" lon="2.58952">
        <ele>204.42</ele>
        <time>2014-10-30T08:48:54Z</time>
      </trkpt>
      <trkpt lat="43.09419" lon="2.58932">
        <ele>204.9</ele>
        <time>2014-10-30T08:49:05Z</time>
      </trkpt>
      <trkpt lat="43.09419" lon="2.5893">
        <ele>204.42</ele>
        <time>2014-10-30T08:49:06Z</time>
      </trkpt>
      <trkpt lat="43.09415" lon="2.58923">
        <ele>205.38</ele>
        <time>2014-10-30T08:49:11Z</time>
      </trkpt>
      <trkpt lat="43.09412" lon="2.58918">
        <ele>205.38</ele>
        <time>2014-10-30T08:49:14Z</time>
      </trkpt>
      <trkpt lat="43.09409" lon="2.58906">
        <ele>205.86</ele>
        <time>2014-10-30T08:49:21Z</time>
      </trkpt>
      <trkpt lat="43.09409" lon="2.58894">
        <ele>206.34</ele>
        <time>2014-10-30T08:49:27Z</time>
      </trkpt>
      <trkpt lat="43.09412" lon="2.58878">
        <ele>206.34</ele>
        <time>2014-10-30T08:49:36Z</time>
      </trkpt>
      <trkpt lat="43.09412" lon="2.58872">
        <ele>206.82</ele>
        <time>2014-10-30T08:49:39Z</time>
      </trkpt>
      <trkpt lat="43.09412" lon="2.58866">
        <ele>206.34</ele>
        <time>2014-10-30T08:49:43Z</time>
      </trkpt>
      <trkpt lat="43.09412" lon="2.58863">
        <ele>206.34</ele>
        <time>2014-10-30T08:49:47Z</time>
      </trkpt>
      <trkpt lat="43.09413" lon="2.58856">
        <ele>206.82</ele>
        <time>2014-10-30T08:49:53Z</time>
      </trkpt>
      <trkpt lat="43.09415" lon="2.58843">
        <ele>206.82</ele>
        <time>2014-10-30T08:50:03Z</time>
      </trkpt>
      <trkpt lat="43.09417" lon="2.58831">
        <ele>206.82</ele>
        <time>2014-10-30T08:50:15Z</time>
      </trkpt>
      <trkpt lat="43.09417" lon="2.5883">
        <ele>206.82</ele>
        <time>2014-10-30T08:50:23Z</time>
      </trkpt>
      <trkpt lat="43.09424" lon="2.58821">
        <ele>206.82</ele>
        <time>2014-10-30T08:50:39Z</time>
      </trkpt>
      <trkpt lat="43.09426" lon="2.58821">
        <ele>206.82</ele>
        <time>2014-10-30T08:50:55Z</time>
      </trkpt>
      <trkpt lat="43.09427" lon="2.58822">
        <ele>206.82</ele>
        <time>2014-10-30T08:51:03Z</time>
      </trkpt>
      <trkpt lat="43.09429" lon="2.58813">
        <ele>207.3</ele>
        <time>2014-10-30T08:51:17Z</time>
      </trkpt>
      <trkpt lat="43.09428" lon="2.58813">
        <ele>206.82</ele>
        <time>2014-10-30T08:51:36Z</time>
      </trkpt>
      <trkpt lat="43.09428" lon="2.58809">
        <ele>206.82</ele>
        <time>2014-10-30T08:51:54Z</time>
      </trkpt>
      <trkpt lat="43.09428" lon="2.58804">
        <ele>206.82</ele>
        <time>2014-10-30T08:52:05Z</time>
      </trkpt>
      <trkpt lat="43.09428" lon="2.58803">
        <ele>206.82</ele>
        <time>2014-10-30T08:52:06Z</time>
      </trkpt>
      <trkpt lat="43.09429" lon="2.58799">
        <ele>207.3</ele>
        <time>2014-10-30T08:52:09Z</time>
      </trkpt>
      <trkpt lat="43.09429" lon="2.5879">
        <ele>207.3</ele>
        <time>2014-10-30T08:52:14Z</time>
      </trkpt>
      <trkpt lat="43.0943" lon="2.58783">
        <ele>207.78</ele>
        <time>2014-10-30T08:52:18Z</time>
      </trkpt>
      <trkpt lat="43.09429" lon="2.58779">
        <ele>207.78</ele>
        <time>2014-10-30T08:52:21Z</time>
      </trkpt>
      <trkpt lat="43.0943" lon="2.58775">
        <ele>207.3</ele>
        <time>2014-10-30T08:52:27Z</time>
      </trkpt>
      <trkpt lat="43.09439" lon="2.58764">
        <ele>206.34</ele>
        <time>2014-10-30T08:52:41Z</time>
      </trkpt>
      <trkpt lat="43.09444" lon="2.58761">
        <ele>205.86</ele>
        <time>2014-10-30T08:52:47Z</time>
      </trkpt>
      <trkpt lat="43.09448" lon="2.58751">
        <ele>205.38</ele>
        <time>2014-10-30T08:52:55Z</time>
      </trkpt>
      <trkpt lat="43.0945" lon="2.58737">
        <ele>204.42</ele>
        <time>2014-10-30T08:53:06Z</time>
      </trkpt>
      <trkpt lat="43.09452" lon="2.58728">
        <ele>203.94</ele>
        <time>2014-10-30T08:53:11Z</time>
      </trkpt>
      <trkpt lat="43.09454" lon="2.58723">
        <ele>203.94</ele>
        <time>2014-10-30T08:53:14Z</time>
      </trkpt>
      <trkpt lat="43.09457" lon="2.58707">
        <ele>203.94</ele>
        <time>2014-10-30T08:53:23Z</time>
      </trkpt>
      <trkpt lat="43.09455" lon="2.58693">
        <ele>202.98</ele>
        <time>2014-10-30T08:53:31Z</time>
      </trkpt>
      <trkpt lat="43.09458" lon="2.58688">
        <ele>202.49</ele>
        <time>2014-10-30T08:53:35Z</time>
      </trkpt>
      <trkpt lat="43.09459" lon="2.5868">
        <ele>202.01</ele>
        <time>2014-10-30T08:53:39Z</time>
      </trkpt>
      <trkpt lat="43.09465" lon="2.58672">
        <ele>202.01</ele>
        <time>2014-10-30T08:53:51Z</time>
      </trkpt>
      <trkpt lat="43.09466" lon="2.5867">
        <ele>202.01</ele>
        <time>2014-10-30T08:53:52Z</time>
      </trkpt>
      <trkpt lat="43.09467" lon="2.58663">
        <ele>202.49</ele>
        <time>2014-10-30T08:53:56Z</time>
      </trkpt>
      <trkpt lat="43.09468" lon="2.58659">
        <ele>202.49</ele>
        <time>2014-10-30T08:53:59Z</time>
      </trkpt>
      <trkpt lat="43.09472" lon="2.58643">
        <ele>202.98</ele>
        <time>2014-10-30T08:54:11Z</time>
      </trkpt>
      <trkpt lat="43.09472" lon="2.58638">
        <ele>203.46</ele>
        <time>2014-10-30T08:54:14Z</time>
      </trkpt>
      <trkpt lat="43.09474" lon="2.58634">
        <ele>203.94</ele>
        <time>2014-10-30T08:54:17Z</time>
      </trkpt>
      <trkpt lat="43.09478" lon="2.58628">
        <ele>204.42</ele>
        <time>2014-10-30T08:54:29Z</time>
      </trkpt>
      <trkpt lat="43.09479" lon="2.58625">
        <ele>204.9</ele>
        <time>2014-10-30T08:54:43Z</time>
      </trkpt>
      <trkpt lat="43.0948" lon="2.58624">
        <ele>204.9</ele>
        <time>2014-10-30T08:55:03Z</time>
      </trkpt>
      <trkpt lat="43.0948" lon="2.58623">
        <ele>205.38</ele>
        <time>2014-10-30T08:55:19Z</time>
      </trkpt>
      <trkpt lat="43.0948" lon="2.58622">
        <ele>205.86</ele>
        <time>2014-10-30T08:55:29Z</time>
      </trkpt>
      <trkpt lat="43.09482" lon="2.58621">
        <ele>205.86</ele>
        <time>2014-10-30T08:56:03Z</time>
      </trkpt>
      <trkpt lat="43.09486" lon="2.58615">
        <ele>205.86</ele>
        <time>2014-10-30T08:56:17Z</time>
      </trkpt>
      <trkpt lat="43.09489" lon="2.58611">
        <ele>206.34</ele>
        <time>2014-10-30T08:56:44Z</time>
      </trkpt>
      <trkpt lat="43.0949" lon="2.58614">
        <ele>205.86</ele>
        <time>2014-10-30T08:57:04Z</time>
      </trkpt>
      <trkpt lat="43.09491" lon="2.58611">
        <ele>206.34</ele>
        <time>2014-10-30T08:57:20Z</time>
      </trkpt>
      <trkpt lat="43.09492" lon="2.58614">
        <ele>206.34</ele>
        <time>2014-10-30T08:57:34Z</time>
      </trkpt>
      <trkpt lat="43.09491" lon="2.58614">
        <ele>206.34</ele>
        <time>2014-10-30T08:57:53Z</time>
      </trkpt>
      <trkpt lat="43.09491" lon="2.58614">
        <ele>205.86</ele>
        <time>2014-10-30T08:58:07Z</time>
      </trkpt>
      <trkpt lat="43.09495" lon="2.58614">
        <ele>206.82</ele>
        <time>2014-10-30T08:58:18Z</time>
      </trkpt>
      <trkpt lat="43.09497" lon="2.58613">
        <ele>207.3</ele>
        <time>2014-10-30T08:58:22Z</time>
      </trkpt>
      <trkpt lat="43.09502" lon="2.58609">
        <ele>207.3</ele>
        <time>2014-10-30T08:58:30Z</time>
      </trkpt>
      <trkpt lat="43.09509" lon="2.58598">
        <ele>209.7</ele>
        <time>2014-10-30T08:58:42Z</time>
      </trkpt>
      <trkpt lat="43.09511" lon="2.5859">
        <ele>210.67</ele>
        <time>2014-10-30T08:58:48Z</time>
      </trkpt>
      <trkpt lat="43.09513" lon="2.58584">
        <ele>211.15</ele>
        <time>2014-10-30T08:58:53Z</time>
      </trkpt>
      <trkpt lat="43.09513" lon="2.58572">
        <ele>213.07</ele>
        <time>2014-10-30T08:59:06Z</time>
      </trkpt>
      <trkpt lat="43.09511" lon="2.58559">
        <ele>214.99</ele>
        <time>2014-10-30T08:59:20Z</time>
      </trkpt>
      <trkpt lat="43.0951" lon="2.5855">
        <ele>215.95</ele>
        <time>2014-10-30T08:59:31Z</time>
      </trkpt>
      <trkpt lat="43.09508" lon="2.58538">
        <ele>217.4</ele>
        <time>2014-10-30T08:59:42Z</time>
      </trkpt>
      <trkpt lat="43.09507" lon="2.58537">
        <ele>217.88</ele>
        <time>2014-10-30T08:59:44Z</time>
      </trkpt>
      <trkpt lat="43.09505" lon="2.58522">
        <ele>218.84</ele>
        <time>2014-10-30T08:59:58Z</time>
      </trkpt>
      <trkpt lat="43.09504" lon="2.58508">
        <ele>220.76</ele>
        <time>2014-10-30T09:00:12Z</time>
      </trkpt>
      <trkpt lat="43.09503" lon="2.58504">
        <ele>221.24</ele>
        <time>2014-10-30T09:00:17Z</time>
      </trkpt>
      <trkpt lat="43.09502" lon="2.58495">
        <ele>223.64</ele>
        <time>2014-10-30T09:00:29Z</time>
      </trkpt>
      <trkpt lat="43.09501" lon="2.58492">
        <ele>223.64</ele>
        <time>2014-10-30T09:00:31Z</time>
      </trkpt>
      <trkpt lat="43.09499" lon="2.58487">
        <ele>224.12</ele>
        <time>2014-10-30T09:00:35Z</time>
      </trkpt>
      <trkpt lat="43.09493" lon="2.58473">
        <ele>225.57</ele>
        <time>2014-10-30T09:00:47Z</time>
      </trkpt>
      <trkpt lat="43.09488" lon="2.58462">
        <ele>227.01</ele>
        <time>2014-10-30T09:00:59Z</time>
      </trkpt>
      <trkpt lat="43.09487" lon="2.58461">
        <ele>227.49</ele>
        <time>2014-10-30T09:01:00Z</time>
      </trkpt>
      <trkpt lat="43.09482" lon="2.58452">
        <ele>228.45</ele>
        <time>2014-10-30T09:01:09Z</time>
      </trkpt>
      <trkpt lat="43.0948" lon="2.58448">
        <ele>227.97</ele>
        <time>2014-10-30T09:01:13Z</time>
      </trkpt>
      <trkpt lat="43.09476" lon="2.58443">
        <ele>228.93</ele>
        <time>2014-10-30T09:01:18Z</time>
      </trkpt>
      <trkpt lat="43.09473" lon="2.58435">
        <ele>228.93</ele>
        <time>2014-10-30T09:01:24Z</time>
      </trkpt>
      <trkpt lat="43.09469" lon="2.58422">
        <ele>230.37</ele>
        <time>2014-10-30T09:01:35Z</time>
      </trkpt>
      <trkpt lat="43.09468" lon="2.58418">
        <ele>230.37</ele>
        <time>2014-10-30T09:01:38Z</time>
      </trkpt>
      <trkpt lat="43.09465" lon="2.58406">
        <ele>231.81</ele>
        <time>2014-10-30T09:01:47Z</time>
      </trkpt>
      <trkpt lat="43.09465" lon="2.584">
        <ele>231.81</ele>
        <time>2014-10-30T09:01:51Z</time>
      </trkpt>
      <trkpt lat="43.09465" lon="2.58398">
        <ele>231.81</ele>
        <time>2014-10-30T09:01:53Z</time>
      </trkpt>
      <trkpt lat="43.09463" lon="2.58388">
        <ele>233.26</ele>
        <time>2014-10-30T09:02:01Z</time>
      </trkpt>
      <trkpt lat="43.09461" lon="2.58374">
        <ele>234.22</ele>
        <time>2014-10-30T09:02:12Z</time>
      </trkpt>
      <trkpt lat="43.09459" lon="2.58359">
        <ele>235.66</ele>
        <time>2014-10-30T09:02:23Z</time>
      </trkpt>
      <trkpt lat="43.09459" lon="2.58356">
        <ele>236.14</ele>
        <time>2014-10-30T09:02:25Z</time>
      </trkpt>
      <trkpt lat="43.09459" lon="2.58353">
        <ele>236.14</ele>
        <time>2014-10-30T09:02:27Z</time>
      </trkpt>
      <trkpt lat="43.09459" lon="2.5835">
        <ele>236.14</ele>
        <time>2014-10-30T09:02:29Z</time>
      </trkpt>
      <trkpt lat="43.09458" lon="2.58347">
        <ele>236.62</ele>
        <time>2014-10-30T09:02:31Z</time>
      </trkpt>
      <trkpt lat="43.09458" lon="2.58345">
        <ele>237.58</ele>
        <time>2014-10-30T09:02:33Z</time>
      </trkpt>
      <trkpt lat="43.09454" lon="2.5833">
        <ele>238.54</ele>
        <time>2014-10-30T09:02:48Z</time>
      </trkpt>
      <trkpt lat="43.09453" lon="2.5832">
        <ele>239.02</ele>
        <time>2014-10-30T09:02:56Z</time>
      </trkpt>
      <trkpt lat="43.09454" lon="2.58313">
        <ele>239.99</ele>
        <time>2014-10-30T09:03:02Z</time>
      </trkpt>
      <trkpt lat="43.09455" lon="2.58308">
        <ele>240.47</ele>
        <time>2014-10-30T09:03:07Z</time>
      </trkpt>
      <trkpt lat="43.09456" lon="2.5829">
        <ele>242.39</ele>
        <time>2014-10-30T09:03:19Z</time>
      </trkpt>
      <trkpt lat="43.09457" lon="2.58278">
        <ele>243.35</ele>
        <time>2014-10-30T09:03:30Z</time>
      </trkpt>
      <trkpt lat="43.09459" lon="2.58263">
        <ele>244.79</ele>
        <time>2014-10-30T09:03:42Z</time>
      </trkpt>
      <trkpt lat="43.09459" lon="2.58248">
        <ele>245.75</ele>
        <time>2014-10-30T09:03:54Z</time>
      </trkpt>
      <trkpt lat="43.09459" lon="2.58237">
        <ele>246.72</ele>
        <time>2014-10-30T09:04:05Z</time>
      </trkpt>
      <trkpt lat="43.0946" lon="2.58232">
        <ele>247.68</ele>
        <time>2014-10-30T09:04:09Z</time>
      </trkpt>
      <trkpt lat="43.09455" lon="2.58222">
        <ele>248.64</ele>
        <time>2014-10-30T09:04:22Z</time>
      </trkpt>
      <trkpt lat="43.09449" lon="2.58216">
        <ele>249.12</ele>
        <time>2014-10-30T09:04:32Z</time>
      </trkpt>
      <trkpt lat="43.09444" lon="2.58213">
        <ele>249.12</ele>
        <time>2014-10-30T09:04:44Z</time>
      </trkpt>
      <trkpt lat="43.09437" lon="2.58207">
        <ele>249.6</ele>
        <time>2014-10-30T09:04:58Z</time>
      </trkpt>
      <trkpt lat="43.09435" lon="2.58208">
        <ele>249.6</ele>
        <time>2014-10-30T09:05:17Z</time>
      </trkpt>
      <trkpt lat="43.09433" lon="2.58206">
        <ele>250.08</ele>
        <time>2014-10-30T09:05:30Z</time>
      </trkpt>
      <trkpt lat="43.09433" lon="2.58203">
        <ele>250.56</ele>
        <time>2014-10-30T09:05:33Z</time>
      </trkpt>
      <trkpt lat="43.09431" lon="2.58201">
        <ele>251.04</ele>
        <time>2014-10-30T09:05:35Z</time>
      </trkpt>
      <trkpt lat="43.09427" lon="2.58186">
        <ele>252.48</ele>
        <time>2014-10-30T09:05:45Z</time>
      </trkpt>
      <trkpt lat="43.09426" lon="2.58181">
        <ele>253.44</ele>
        <time>2014-10-30T09:05:48Z</time>
      </trkpt>
      <trkpt lat="43.09424" lon="2.58162">
        <ele>256.33</ele>
        <time>2014-10-30T09:06:01Z</time>
      </trkpt>
      <trkpt lat="43.09425" lon="2.58152">
        <ele>256.81</ele>
        <time>2014-10-30T09:06:08Z</time>
      </trkpt>
      <trkpt lat="43.09425" lon="2.58143">
        <ele>257.29</ele>
        <time>2014-10-30T09:06:14Z</time>
      </trkpt>
      <trkpt lat="43.09424" lon="2.58126">
        <ele>258.73</ele>
        <time>2014-10-30T09:06:25Z</time>
      </trkpt>
      <trkpt lat="43.09422" lon="2.58117">
        <ele>259.21</ele>
        <time>2014-10-30T09:06:31Z</time>
      </trkpt>
      <trkpt lat="43.09421" lon="2.58114">
        <ele>259.21</ele>
        <time>2014-10-30T09:06:33Z</time>
      </trkpt>
      <trkpt lat="43.09422" lon="2.58096">
        <ele>261.14</ele>
        <time>2014-10-30T09:06:45Z</time>
      </trkpt>
      <trkpt lat="43.09422" lon="2.58094">
        <ele>261.14</ele>
        <time>2014-10-30T09:06:46Z</time>
      </trkpt>
      <trkpt lat="43.09422" lon="2.58073">
        <ele>263.06</ele>
        <time>2014-10-30T09:07:00Z</time>
      </trkpt>
      <trkpt lat="43.09424" lon="2.58067">
        <ele>263.54</ele>
        <time>2014-10-30T09:07:06Z</time>
      </trkpt>
      <trkpt lat="43.09426" lon="2.58062">
        <ele>263.06</ele>
        <time>2014-10-30T09:07:08Z</time>
      </trkpt>
      <trkpt lat="43.09426" lon="2.58042">
        <ele>264.5</ele>
        <time>2014-10-30T09:07:20Z</time>
      </trkpt>
      <trkpt lat="43.09427" lon="2.58034">
        <ele>264.98</ele>
        <time>2014-10-30T09:07:27Z</time>
      </trkpt>
      <trkpt lat="43.09428" lon="2.58028">
        <ele>265.94</ele>
        <time>2014-10-30T09:07:31Z</time>
      </trkpt>
      <trkpt lat="43.09433" lon="2.5802">
        <ele>267.38</ele>
        <time>2014-10-30T09:07:43Z</time>
      </trkpt>
      <trkpt lat="43.09437" lon="2.58015">
        <ele>268.35</ele>
        <time>2014-10-30T09:07:56Z</time>
      </trkpt>
      <trkpt lat="43.09444" lon="2.5801">
        <ele>268.83</ele>
        <time>2014-10-30T09:08:08Z</time>
      </trkpt>
      <trkpt lat="43.09444" lon="2.5801">
        <ele>268.83</ele>
        <time>2014-10-30T09:08:22Z</time>
      </trkpt>
      <trkpt lat="43.09445" lon="2.5801">
        <ele>269.31</ele>
        <time>2014-10-30T09:08:36Z</time>
      </trkpt>
      <trkpt lat="43.09445" lon="2.5801">
        <ele>268.83</ele>
        <time>2014-10-30T09:08:55Z</time>
      </trkpt>
      <trkpt lat="43.09446" lon="2.5801">
        <ele>269.31</ele>
        <time>2014-10-30T09:09:18Z</time>
      </trkpt>
      <trkpt lat="43.09445" lon="2.5801">
        <ele>269.31</ele>
        <time>2014-10-30T09:09:39Z</time>
      </trkpt>
      <trkpt lat="43.09445" lon="2.5801">
        <ele>268.83</ele>
        <time>2014-10-30T09:10:00Z</time>
      </trkpt>
      <trkpt lat="43.09451" lon="2.57999">
        <ele>269.79</ele>
        <time>2014-10-30T09:10:13Z</time>
      </trkpt>
      <trkpt lat="43.09456" lon="2.57989">
        <ele>270.75</ele>
        <time>2014-10-30T09:10:23Z</time>
      </trkpt>
      <trkpt lat="43.09459" lon="2.5798">
        <ele>271.71</ele>
        <time>2014-10-30T09:10:30Z</time>
      </trkpt>
      <trkpt lat="43.09461" lon="2.57967">
        <ele>272.67</ele>
        <time>2014-10-30T09:10:44Z</time>
      </trkpt>
      <trkpt lat="43.09462" lon="2.57964">
        <ele>272.67</ele>
        <time>2014-10-30T09:10:46Z</time>
      </trkpt>
      <trkpt lat="43.09464" lon="2.57946">
        <ele>273.63</ele>
        <time>2014-10-30T09:11:01Z</time>
      </trkpt>
      <trkpt lat="43.09465" lon="2.57943">
        <ele>273.63</ele>
        <time>2014-10-30T09:11:11Z</time>
      </trkpt>
      <trkpt lat="43.09467" lon="2.5794">
        <ele>274.11</ele>
        <time>2014-10-30T09:11:22Z</time>
      </trkpt>
      <trkpt lat="43.09476" lon="2.57933">
        <ele>274.59</ele>
        <time>2014-10-30T09:11:34Z</time>
      </trkpt>
      <trkpt lat="43.09477" lon="2.57933">
        <ele>274.11</ele>
        <time>2014-10-30T09:11:36Z</time>
      </trkpt>
      <trkpt lat="43.09482" lon="2.57929">
        <ele>274.11</ele>
        <time>2014-10-30T09:11:40Z</time>
      </trkpt>
      <trkpt lat="43.09483" lon="2.57925">
        <ele>274.59</ele>
        <time>2014-10-30T09:11:43Z</time>
      </trkpt>
      <trkpt lat="43.09484" lon="2.57918">
        <ele>275.56</ele>
        <time>2014-10-30T09:11:48Z</time>
      </trkpt>
      <trkpt lat="43.09488" lon="2.57917">
        <ele>275.56</ele>
        <time>2014-10-30T09:11:51Z</time>
      </trkpt>
      <trkpt lat="43.09492" lon="2.57904">
        <ele>276.04</ele>
        <time>2014-10-30T09:12:03Z</time>
      </trkpt>
      <trkpt lat="43.09493" lon="2.57897">
        <ele>276.52</ele>
        <time>2014-10-30T09:12:07Z</time>
      </trkpt>
      <trkpt lat="43.09496" lon="2.57877">
        <ele>277.48</ele>
        <time>2014-10-30T09:12:19Z</time>
      </trkpt>
      <trkpt lat="43.09501" lon="2.57869">
        <ele>278.44</ele>
        <time>2014-10-30T09:12:28Z</time>
      </trkpt>
      <trkpt lat="43.09512" lon="2.57864">
        <ele>280.36</ele>
        <time>2014-10-30T09:12:41Z</time>
      </trkpt>
      <trkpt lat="43.09514" lon="2.57863">
        <ele>279.88</ele>
        <time>2014-10-30T09:12:43Z</time>
      </trkpt>
      <trkpt lat="43.09514" lon="2.57859">
        <ele>280.84</ele>
        <time>2014-10-30T09:12:46Z</time>
      </trkpt>
      <trkpt lat="43.09514" lon="2.57853">
        <ele>280.84</ele>
        <time>2014-10-30T09:12:57Z</time>
      </trkpt>
      <trkpt lat="43.09514" lon="2.5785">
        <ele>281.32</ele>
        <time>2014-10-30T09:13:11Z</time>
      </trkpt>
      <trkpt lat="43.09514" lon="2.57847">
        <ele>281.32</ele>
        <time>2014-10-30T09:13:13Z</time>
      </trkpt>
      <trkpt lat="43.09514" lon="2.57843">
        <ele>281.8</ele>
        <time>2014-10-30T09:13:16Z</time>
      </trkpt>
      <trkpt lat="43.09513" lon="2.57826">
        <ele>282.28</ele>
        <time>2014-10-30T09:13:29Z</time>
      </trkpt>
      <trkpt lat="43.09513" lon="2.57822">
        <ele>282.77</ele>
        <time>2014-10-30T09:13:33Z</time>
      </trkpt>
      <trkpt lat="43.09515" lon="2.57811">
        <ele>284.21</ele>
        <time>2014-10-30T09:13:44Z</time>
      </trkpt>
      <trkpt lat="43.09515" lon="2.57808">
        <ele>284.21</ele>
        <time>2014-10-30T09:13:46Z</time>
      </trkpt>
      <trkpt lat="43.09515" lon="2.57805">
        <ele>284.21</ele>
        <time>2014-10-30T09:13:48Z</time>
      </trkpt>
      <trkpt lat="43.09516" lon="2.57794">
        <ele>284.21</ele>
        <time>2014-10-30T09:13:56Z</time>
      </trkpt>
      <trkpt lat="43.09517" lon="2.57791">
        <ele>285.17</ele>
        <time>2014-10-30T09:13:59Z</time>
      </trkpt>
      <trkpt lat="43.09517" lon="2.57787">
        <ele>285.65</ele>
        <time>2014-10-30T09:14:11Z</time>
      </trkpt>
      <trkpt lat="43.09517" lon="2.57781">
        <ele>286.13</ele>
        <time>2014-10-30T09:14:24Z</time>
      </trkpt>
      <trkpt lat="43.09518" lon="2.5778">
        <ele>285.65</ele>
        <time>2014-10-30T09:14:40Z</time>
      </trkpt>
      <trkpt lat="43.09518" lon="2.57776">
        <ele>286.13</ele>
        <time>2014-10-30T09:14:53Z</time>
      </trkpt>
      <trkpt lat="43.09517" lon="2.57769">
        <ele>286.13</ele>
        <time>2014-10-30T09:15:01Z</time>
      </trkpt>
      <trkpt lat="43.09518" lon="2.57765">
        <ele>286.61</ele>
        <time>2014-10-30T09:15:04Z</time>
      </trkpt>
      <trkpt lat="43.09521" lon="2.57747">
        <ele>287.09</ele>
        <time>2014-10-30T09:15:16Z</time>
      </trkpt>
      <trkpt lat="43.09521" lon="2.5774">
        <ele>287.09</ele>
        <time>2014-10-30T09:15:20Z</time>
      </trkpt>
      <trkpt lat="43.09521" lon="2.57728">
        <ele>287.57</ele>
        <time>2014-10-30T09:15:29Z</time>
      </trkpt>
      <trkpt lat="43.09522" lon="2.57725">
        <ele>288.05</ele>
        <time>2014-10-30T09:15:31Z</time>
      </trkpt>
      <trkpt lat="43.0952" lon="2.57708">
        <ele>289.01</ele>
        <time>2014-10-30T09:15:43Z</time>
      </trkpt>
      <trkpt lat="43.0952" lon="2.57706">
        <ele>289.01</ele>
        <time>2014-10-30T09:15:45Z</time>
      </trkpt>
      <trkpt lat="43.0952" lon="2.57701">
        <ele>289.49</ele>
        <time>2014-10-30T09:15:58Z</time>
      </trkpt>
      <trkpt lat="43.09521" lon="2.57698">
        <ele>289.49</ele>
        <time>2014-10-30T09:16:04Z</time>
      </trkpt>
      <trkpt lat="43.09521" lon="2.57693">
        <ele>289.01</ele>
        <time>2014-10-30T09:16:08Z</time>
      </trkpt>
      <trkpt lat="43.09522" lon="2.57679">
        <ele>289.01</ele>
        <time>2014-10-30T09:16:19Z</time>
      </trkpt>
      <trkpt lat="43.09525" lon="2.5767">
        <ele>289.49</ele>
        <time>2014-10-30T09:16:26Z</time>
      </trkpt>
      <trkpt lat="43.0953" lon="2.57654">
        <ele>291.42</ele>
        <time>2014-10-30T09:16:41Z</time>
      </trkpt>
      <trkpt lat="43.09534" lon="2.57645">
        <ele>291.9</ele>
        <time>2014-10-30T09:16:50Z</time>
      </trkpt>
      <trkpt lat="43.09539" lon="2.57639">
        <ele>291.9</ele>
        <time>2014-10-30T09:16:55Z</time>
      </trkpt>
      <trkpt lat="43.09545" lon="2.57632">
        <ele>291.9</ele>
        <time>2014-10-30T09:17:03Z</time>
      </trkpt>
      <trkpt lat="43.09554" lon="2.57621">
        <ele>291.9</ele>
        <time>2014-10-30T09:17:17Z</time>
      </trkpt>
      <trkpt lat="43.09556" lon="2.57618">
        <ele>292.38</ele>
        <time>2014-10-30T09:17:20Z</time>
      </trkpt>
      <trkpt lat="43.0956" lon="2.57613">
        <ele>291.9</ele>
        <time>2014-10-30T09:17:24Z</time>
      </trkpt>
      <trkpt lat="43.09567" lon="2.57602">
        <ele>291.42</ele>
        <time>2014-10-30T09:17:36Z</time>
      </trkpt>
      <trkpt lat="43.09567" lon="2.57601">
        <ele>291.42</ele>
        <time>2014-10-30T09:17:37Z</time>
      </trkpt>
      <trkpt lat="43.09567" lon="2.57597">
        <ele>291.42</ele>
        <time>2014-10-30T09:17:40Z</time>
      </trkpt>
      <trkpt lat="43.09573" lon="2.57582">
        <ele>291.42</ele>
        <time>2014-10-30T09:17:51Z</time>
      </trkpt>
      <trkpt lat="43.09574" lon="2.57577">
        <ele>292.38</ele>
        <time>2014-10-30T09:17:54Z</time>
      </trkpt>
      <trkpt lat="43.09578" lon="2.57556">
        <ele>293.34</ele>
        <time>2014-10-30T09:18:09Z</time>
      </trkpt>
      <trkpt lat="43.0958" lon="2.57542">
        <ele>293.82</ele>
        <time>2014-10-30T09:18:22Z</time>
      </trkpt>
      <trkpt lat="43.09576" lon="2.57527">
        <ele>292.38</ele>
        <time>2014-10-30T09:18:31Z</time>
      </trkpt>
      <trkpt lat="43.09574" lon="2.57521">
        <ele>291.9</ele>
        <time>2014-10-30T09:18:35Z</time>
      </trkpt>
      <trkpt lat="43.09574" lon="2.57513">
        <ele>290.46</ele>
        <time>2014-10-30T09:18:39Z</time>
      </trkpt>
      <trkpt lat="43.09573" lon="2.57503">
        <ele>289.01</ele>
        <time>2014-10-30T09:18:46Z</time>
      </trkpt>
      <trkpt lat="43.09572" lon="2.57498">
        <ele>288.53</ele>
        <time>2014-10-30T09:18:49Z</time>
      </trkpt>
      <trkpt lat="43.09571" lon="2.57494">
        <ele>288.53</ele>
        <time>2014-10-30T09:18:52Z</time>
      </trkpt>
      <trkpt lat="43.09568" lon="2.57483">
        <ele>287.09</ele>
        <time>2014-10-30T09:19:02Z</time>
      </trkpt>
      <trkpt lat="43.09567" lon="2.57478">
        <ele>286.13</ele>
        <time>2014-10-30T09:19:06Z</time>
      </trkpt>
      <trkpt lat="43.09567" lon="2.57474">
        <ele>286.13</ele>
        <time>2014-10-30T09:19:20Z</time>
      </trkpt>
      <trkpt lat="43.09568" lon="2.57474">
        <ele>286.13</ele>
        <time>2014-10-30T09:19:37Z</time>
      </trkpt>
      <trkpt lat="43.09566" lon="2.57467">
        <ele>285.17</ele>
        <time>2014-10-30T09:19:42Z</time>
      </trkpt>
      <trkpt lat="43.09566" lon="2.57461">
        <ele>283.25</ele>
        <time>2014-10-30T09:19:46Z</time>
      </trkpt>
      <trkpt lat="43.09563" lon="2.5745">
        <ele>282.77</ele>
        <time>2014-10-30T09:19:53Z</time>
      </trkpt>
      <trkpt lat="43.09559" lon="2.57441">
        <ele>281.8</ele>
        <time>2014-10-30T09:19:58Z</time>
      </trkpt>
      <trkpt lat="43.09558" lon="2.57437">
        <ele>281.32</ele>
        <time>2014-10-30T09:20:00Z</time>
      </trkpt>
      <trkpt lat="43.09557" lon="2.57428">
        <ele>279.88</ele>
        <time>2014-10-30T09:20:04Z</time>
      </trkpt>
      <trkpt lat="43.09563" lon="2.57408">
        <ele>278.44</ele>
        <time>2014-10-30T09:20:11Z</time>
      </trkpt>
      <trkpt lat="43.09571" lon="2.57399">
        <ele>277.48</ele>
        <time>2014-10-30T09:20:22Z</time>
      </trkpt>
      <trkpt lat="43.09574" lon="2.5739">
        <ele>276.04</ele>
        <time>2014-10-30T09:20:37Z</time>
      </trkpt>
      <trkpt lat="43.09574" lon="2.57389">
        <ele>275.56</ele>
        <time>2014-10-30T09:20:38Z</time>
      </trkpt>
      <trkpt lat="43.09577" lon="2.57382">
        <ele>274.59</ele>
        <time>2014-10-30T09:20:45Z</time>
      </trkpt>
      <trkpt lat="43.09576" lon="2.57374">
        <ele>273.63</ele>
        <time>2014-10-30T09:20:49Z</time>
      </trkpt>
      <trkpt lat="43.09577" lon="2.57355">
        <ele>271.71</ele>
        <time>2014-10-30T09:21:01Z</time>
      </trkpt>
      <trkpt lat="43.09578" lon="2.57344">
        <ele>270.27</ele>
        <time>2014-10-30T09:21:11Z</time>
      </trkpt>
      <trkpt lat="43.09578" lon="2.57343">
        <ele>269.79</ele>
        <time>2014-10-30T09:21:13Z</time>
      </trkpt>
      <trkpt lat="43.09579" lon="2.57331">
        <ele>268.35</ele>
        <time>2014-10-30T09:21:25Z</time>
      </trkpt>
      <trkpt lat="43.09579" lon="2.57324">
        <ele>267.86</ele>
        <time>2014-10-30T09:21:32Z</time>
      </trkpt>
      <trkpt lat="43.09579" lon="2.57317">
        <ele>267.38</ele>
        <time>2014-10-30T09:21:37Z</time>
      </trkpt>
      <trkpt lat="43.09577" lon="2.57313">
        <ele>266.9</ele>
        <time>2014-10-30T09:21:40Z</time>
      </trkpt>
      <trkpt lat="43.09575" lon="2.57308">
        <ele>266.42</ele>
        <time>2014-10-30T09:21:44Z</time>
      </trkpt>
      <trkpt lat="43.09575" lon="2.57305">
        <ele>265.46</ele>
        <time>2014-10-30T09:21:46Z</time>
      </trkpt>
      <trkpt lat="43.09577" lon="2.573">
        <ele>265.46</ele>
        <time>2014-10-30T09:21:53Z</time>
      </trkpt>
      <trkpt lat="43.09576" lon="2.57282">
        <ele>263.06</ele>
        <time>2014-10-30T09:22:02Z</time>
      </trkpt>
      <trkpt lat="43.09576" lon="2.57277">
        <ele>262.1</ele>
        <time>2014-10-30T09:22:04Z</time>
      </trkpt>
      <trkpt lat="43.09578" lon="2.57263">
        <ele>260.65</ele>
        <time>2014-10-30T09:22:16Z</time>
      </trkpt>
      <trkpt lat="43.0958" lon="2.57254">
        <ele>259.21</ele>
        <time>2014-10-30T09:22:26Z</time>
      </trkpt>
      <trkpt lat="43.09582" lon="2.57247">
        <ele>258.73</ele>
        <time>2014-10-30T09:22:30Z</time>
      </trkpt>
      <trkpt lat="43.09582" lon="2.57243">
        <ele>258.73</ele>
        <time>2014-10-30T09:22:32Z</time>
      </trkpt>
      <trkpt lat="43.09582" lon="2.57233">
        <ele>257.29</ele>
        <time>2014-10-30T09:22:38Z</time>
      </trkpt>
      <trkpt lat="43.09583" lon="2.57229">
        <ele>257.77</ele>
        <time>2014-10-30T09:22:40Z</time>
      </trkpt>
      <trkpt lat="43.09586" lon="2.57222">
        <ele>258.73</ele>
        <time>2014-10-30T09:22:51Z</time>
      </trkpt>
      <trkpt lat="43.09586" lon="2.57222">
        <ele>258.73</ele>
        <time>2014-10-30T09:23:07Z</time>
      </trkpt>
      <trkpt lat="43.09584" lon="2.57217">
        <ele>256.81</ele>
        <time>2014-10-30T09:23:10Z</time>
      </trkpt>
      <trkpt lat="43.09583" lon="2.57206">
        <ele>256.33</ele>
        <time>2014-10-30T09:23:18Z</time>
      </trkpt>
      <trkpt lat="43.09583" lon="2.57203">
        <ele>255.85</ele>
        <time>2014-10-30T09:23:20Z</time>
      </trkpt>
      <trkpt lat="43.09583" lon="2.57199">
        <ele>254.41</ele>
        <time>2014-10-30T09:23:23Z</time>
      </trkpt>
      <trkpt lat="43.09579" lon="2.57193">
        <ele>254.89</ele>
        <time>2014-10-30T09:23:28Z</time>
      </trkpt>
      <trkpt lat="43.09572" lon="2.57175">
        <ele>255.37</ele>
        <time>2014-10-30T09:23:39Z</time>
      </trkpt>
      <trkpt lat="43.09571" lon="2.5717">
        <ele>254.89</ele>
        <time>2014-10-30T09:23:43Z</time>
      </trkpt>
      <trkpt lat="43.09565" lon="2.57166">
        <ele>253.93</ele>
        <time>2014-10-30T09:23:50Z</time>
      </trkpt>
      <trkpt lat="43.09564" lon="2.57166">
        <ele>252.96</ele>
        <time>2014-10-30T09:23:52Z</time>
      </trkpt>
      <trkpt lat="43.09564" lon="2.57166">
        <ele>252.48</ele>
        <time>2014-10-30T09:23:53Z</time>
      </trkpt>
      <trkpt lat="43.09554" lon="2.57156">
        <ele>252</ele>
        <time>2014-10-30T09:24:04Z</time>
      </trkpt>
      <trkpt lat="43.09549" lon="2.57151">
        <ele>251.52</ele>
        <time>2014-10-30T09:24:10Z</time>
      </trkpt>
      <trkpt lat="43.09543" lon="2.57138">
        <ele>250.08</ele>
        <time>2014-10-30T09:24:18Z</time>
      </trkpt>
      <trkpt lat="43.0954" lon="2.57132">
        <ele>249.12</ele>
        <time>2014-10-30T09:24:24Z</time>
      </trkpt>
      <trkpt lat="43.09537" lon="2.57124">
        <ele>248.64</ele>
        <time>2014-10-30T09:24:29Z</time>
      </trkpt>
      <trkpt lat="43.09536" lon="2.57109">
        <ele>247.68</ele>
        <time>2014-10-30T09:24:40Z</time>
      </trkpt>
      <trkpt lat="43.09536" lon="2.57108">
        <ele>247.68</ele>
        <time>2014-10-30T09:24:46Z</time>
      </trkpt>
      <trkpt lat="43.0954" lon="2.57094">
        <ele>246.72</ele>
        <time>2014-10-30T09:24:57Z</time>
      </trkpt>
      <trkpt lat="43.0954" lon="2.57083">
        <ele>245.75</ele>
        <time>2014-10-30T09:25:08Z</time>
      </trkpt>
      <trkpt lat="43.09537" lon="2.5707">
        <ele>245.27</ele>
        <time>2014-10-30T09:25:20Z</time>
      </trkpt>
      <trkpt lat="43.09535" lon="2.57066">
        <ele>244.31</ele>
        <time>2014-10-30T09:25:30Z</time>
      </trkpt>
      <trkpt lat="43.09535" lon="2.57066">
        <ele>244.31</ele>
        <time>2014-10-30T09:25:31Z</time>
      </trkpt>
      <trkpt lat="43.09531" lon="2.57059">
        <ele>243.35</ele>
        <time>2014-10-30T09:25:42Z</time>
      </trkpt>
      <trkpt lat="43.09526" lon="2.57057">
        <ele>241.91</ele>
        <time>2014-10-30T09:25:51Z</time>
      </trkpt>
      <trkpt lat="43.0952" lon="2.57054">
        <ele>240.95</ele>
        <time>2014-10-30T09:25:59Z</time>
      </trkpt>
      <trkpt lat="43.09518" lon="2.57052">
        <ele>240.47</ele>
        <time>2014-10-30T09:26:01Z</time>
      </trkpt>
      <trkpt lat="43.09512" lon="2.57047">
        <ele>239.51</ele>
        <time>2014-10-30T09:26:12Z</time>
      </trkpt>
      <trkpt lat="43.0951" lon="2.57047">
        <ele>239.02</ele>
        <time>2014-10-30T09:26:15Z</time>
      </trkpt>
      <trkpt lat="43.09499" lon="2.57046">
        <ele>239.02</ele>
        <time>2014-10-30T09:26:27Z</time>
      </trkpt>
      <trkpt lat="43.09491" lon="2.57043">
        <ele>237.58</ele>
        <time>2014-10-30T09:26:38Z</time>
      </trkpt>
      <trkpt lat="43.0949" lon="2.57043">
        <ele>237.58</ele>
        <time>2014-10-30T09:26:39Z</time>
      </trkpt>
      <trkpt lat="43.0948" lon="2.57039">
        <ele>237.58</ele>
        <time>2014-10-30T09:26:48Z</time>
      </trkpt>
      <trkpt lat="43.09473" lon="2.57034">
        <ele>237.58</ele>
        <time>2014-10-30T09:26:55Z</time>
      </trkpt>
      <trkpt lat="43.09469" lon="2.57031">
        <ele>238.06</ele>
        <time>2014-10-30T09:26:58Z</time>
      </trkpt>
      <trkpt lat="43.09455" lon="2.57021">
        <ele>239.02</ele>
        <time>2014-10-30T09:27:12Z</time>
      </trkpt>
      <trkpt lat="43.09445" lon="2.57018">
        <ele>239.51</ele>
        <time>2014-10-30T09:27:26Z</time>
      </trkpt>
      <trkpt lat="43.09442" lon="2.57017">
        <ele>239.51</ele>
        <time>2014-10-30T09:27:31Z</time>
      </trkpt>
      <trkpt lat="43.09431" lon="2.57017">
        <ele>239.99</ele>
        <time>2014-10-30T09:27:43Z</time>
      </trkpt>
      <trkpt lat="43.0942" lon="2.57021">
        <ele>239.99</ele>
        <time>2014-10-30T09:27:52Z</time>
      </trkpt>
      <trkpt lat="43.09417" lon="2.57021">
        <ele>239.51</ele>
        <time>2014-10-30T09:27:54Z</time>
      </trkpt>
      <trkpt lat="43.09407" lon="2.57021">
        <ele>239.51</ele>
        <time>2014-10-30T09:28:03Z</time>
      </trkpt>
      <trkpt lat="43.09403" lon="2.57019">
        <ele>239.02</ele>
        <time>2014-10-30T09:28:07Z</time>
      </trkpt>
      <trkpt lat="43.09398" lon="2.57019">
        <ele>238.54</ele>
        <time>2014-10-30T09:28:11Z</time>
      </trkpt>
      <trkpt lat="43.09384" lon="2.57017">
        <ele>237.1</ele>
        <time>2014-10-30T09:28:25Z</time>
      </trkpt>
      <trkpt lat="43.09383" lon="2.57017">
        <ele>237.58</ele>
        <time>2014-10-30T09:28:26Z</time>
      </trkpt>
      <trkpt lat="43.09377" lon="2.57014">
        <ele>236.14</ele>
        <time>2014-10-30T09:28:31Z</time>
      </trkpt>
      <trkpt lat="43.09374" lon="2.57015">
        <ele>236.62</ele>
        <time>2014-10-30T09:28:33Z</time>
      </trkpt>
      <trkpt lat="43.0936" lon="2.57009">
        <ele>233.74</ele>
        <time>2014-10-30T09:28:48Z</time>
      </trkpt>
      <trkpt lat="43.09351" lon="2.57005">
        <ele>232.3</ele>
        <time>2014-10-30T09:28:58Z</time>
      </trkpt>
      <trkpt lat="43.09348" lon="2.57004">
        <ele>232.78</ele>
        <time>2014-10-30T09:29:00Z</time>
      </trkpt>
      <trkpt lat="43.09342" lon="2.57002">
        <ele>231.81</ele>
        <time>2014-10-30T09:29:06Z</time>
      </trkpt>
      <trkpt lat="43.09336" lon="2.57001">
        <ele>231.33</ele>
        <time>2014-10-30T09:29:12Z</time>
      </trkpt>
      <trkpt lat="43.09329" lon="2.56998">
        <ele>229.89</ele>
        <time>2014-10-30T09:29:19Z</time>
      </trkpt>
      <trkpt lat="43.09327" lon="2.56998">
        <ele>229.89</ele>
        <time>2014-10-30T09:29:21Z</time>
      </trkpt>
      <trkpt lat="43.09321" lon="2.56997">
        <ele>229.41</ele>
        <time>2014-10-30T09:29:27Z</time>
      </trkpt>
      <trkpt lat="43.09317" lon="2.56998">
        <ele>228.93</ele>
        <time>2014-10-30T09:29:31Z</time>
      </trkpt>
      <trkpt lat="43.09315" lon="2.56996">
        <ele>229.41</ele>
        <time>2014-10-30T09:29:33Z</time>
      </trkpt>
      <trkpt lat="43.0931" lon="2.56992">
        <ele>229.41</ele>
        <time>2014-10-30T09:29:44Z</time>
      </trkpt>
      <trkpt lat="43.09307" lon="2.56992">
        <ele>229.41</ele>
        <time>2014-10-30T09:30:00Z</time>
      </trkpt>
      <trkpt lat="43.09303" lon="2.56985">
        <ele>230.37</ele>
        <time>2014-10-30T09:30:13Z</time>
      </trkpt>
      <trkpt lat="43.09299" lon="2.56986">
        <ele>229.41</ele>
        <time>2014-10-30T09:30:21Z</time>
      </trkpt>
      <trkpt lat="43.09297" lon="2.56985">
        <ele>229.41</ele>
        <time>2014-10-30T09:30:24Z</time>
      </trkpt>
      <trkpt lat="43.09289" lon="2.5699">
        <ele>227.01</ele>
        <time>2014-10-30T09:30:36Z</time>
      </trkpt>
      <trkpt lat="43.09285" lon="2.56992">
        <ele>225.57</ele>
        <time>2014-10-30T09:30:41Z</time>
      </trkpt>
      <trkpt lat="43.09279" lon="2.56992">
        <ele>225.57</ele>
        <time>2014-10-30T09:30:46Z</time>
      </trkpt>
      <trkpt lat="43.09275" lon="2.56992">
        <ele>224.12</ele>
        <time>2014-10-30T09:30:52Z</time>
      </trkpt>
      <trkpt lat="43.09272" lon="2.56991">
        <ele>225.09</ele>
        <time>2014-10-30T09:30:54Z</time>
      </trkpt>
      <trkpt lat="43.09264" lon="2.5699">
        <ele>223.64</ele>
        <time>2014-10-30T09:31:00Z</time>
      </trkpt>
      <trkpt lat="43.09253" lon="2.56984">
        <ele>223.16</ele>
        <time>2014-10-30T09:31:12Z</time>
      </trkpt>
      <trkpt lat="43.09249" lon="2.56982">
        <ele>222.68</ele>
        <time>2014-10-30T09:31:15Z</time>
      </trkpt>
      <trkpt lat="43.0924" lon="2.56971">
        <ele>221.72</ele>
        <time>2014-10-30T09:31:27Z</time>
      </trkpt>
      <trkpt lat="43.0924" lon="2.56963">
        <ele>222.2</ele>
        <time>2014-10-30T09:31:38Z</time>
      </trkpt>
      <trkpt lat="43.0924" lon="2.56959">
        <ele>221.24</ele>
        <time>2014-10-30T09:31:42Z</time>
      </trkpt>
      <trkpt lat="43.09239" lon="2.56955">
        <ele>221.72</ele>
        <time>2014-10-30T09:31:45Z</time>
      </trkpt>
      <trkpt lat="43.09238" lon="2.56952">
        <ele>221.24</ele>
        <time>2014-10-30T09:31:47Z</time>
      </trkpt>
      <trkpt lat="43.09237" lon="2.56948">
        <ele>221.24</ele>
        <time>2014-10-30T09:31:51Z</time>
      </trkpt>
      <trkpt lat="43.09233" lon="2.56941">
        <ele>220.28</ele>
        <time>2014-10-30T09:31:58Z</time>
      </trkpt>
      <trkpt lat="43.09236" lon="2.5693">
        <ele>221.24</ele>
        <time>2014-10-30T09:32:07Z</time>
      </trkpt>
      <trkpt lat="43.09237" lon="2.56927">
        <ele>221.24</ele>
        <time>2014-10-30T09:32:08Z</time>
      </trkpt>
      <trkpt lat="43.09236" lon="2.56918">
        <ele>221.72</ele>
        <time>2014-10-30T09:32:13Z</time>
      </trkpt>
      <trkpt lat="43.09235" lon="2.56915">
        <ele>221.24</ele>
        <time>2014-10-30T09:32:15Z</time>
      </trkpt>
      <trkpt lat="43.0923" lon="2.56901">
        <ele>220.28</ele>
        <time>2014-10-30T09:32:25Z</time>
      </trkpt>
      <trkpt lat="43.09229" lon="2.569">
        <ele>220.28</ele>
        <time>2014-10-30T09:32:26Z</time>
      </trkpt>
      <trkpt lat="43.09227" lon="2.56891">
        <ele>220.28</ele>
        <time>2014-10-30T09:32:33Z</time>
      </trkpt>
      <trkpt lat="43.09222" lon="2.56883">
        <ele>218.36</ele>
        <time>2014-10-30T09:32:42Z</time>
      </trkpt>
      <trkpt lat="43.09217" lon="2.56876">
        <ele>217.4</ele>
        <time>2014-10-30T09:32:48Z</time>
      </trkpt>
      <trkpt lat="43.09214" lon="2.56871">
        <ele>216.43</ele>
        <time>2014-10-30T09:32:54Z</time>
      </trkpt>
      <trkpt lat="43.09206" lon="2.56855">
        <ele>215.47</ele>
        <time>2014-10-30T09:33:06Z</time>
      </trkpt>
      <trkpt lat="43.09203" lon="2.56845">
        <ele>214.51</ele>
        <time>2014-10-30T09:33:15Z</time>
      </trkpt>
      <trkpt lat="43.092" lon="2.5684">
        <ele>211.15</ele>
        <time>2014-10-30T09:33:26Z</time>
      </trkpt>
      <trkpt lat="43.092" lon="2.56838">
        <ele>211.63</ele>
        <time>2014-10-30T09:33:31Z</time>
      </trkpt>
      <trkpt lat="43.09199" lon="2.56833">
        <ele>212.11</ele>
        <time>2014-10-30T09:33:36Z</time>
      </trkpt>
      <trkpt lat="43.09199" lon="2.56825">
        <ele>213.07</ele>
        <time>2014-10-30T09:33:45Z</time>
      </trkpt>
      <trkpt lat="43.09199" lon="2.56823">
        <ele>213.55</ele>
        <time>2014-10-30T09:33:51Z</time>
      </trkpt>
      <trkpt lat="43.09198" lon="2.56822">
        <ele>213.07</ele>
        <time>2014-10-30T09:33:53Z</time>
      </trkpt>
      <trkpt lat="43.09197" lon="2.56821">
        <ele>212.59</ele>
        <time>2014-10-30T09:33:55Z</time>
      </trkpt>
      <trkpt lat="43.09194" lon="2.56816">
        <ele>212.11</ele>
        <time>2014-10-30T09:34:00Z</time>
      </trkpt>
      <trkpt lat="43.09188" lon="2.5681">
        <ele>211.63</ele>
        <time>2014-10-30T09:34:07Z</time>
      </trkpt>
      <trkpt lat="43.09187" lon="2.56804">
        <ele>210.67</ele>
        <time>2014-10-30T09:34:11Z</time>
      </trkpt>
      <trkpt lat="43.09189" lon="2.568">
        <ele>210.67</ele>
        <time>2014-10-30T09:34:15Z</time>
      </trkpt>
      <trkpt lat="43.09188" lon="2.56794">
        <ele>209.22</ele>
        <time>2014-10-30T09:34:19Z</time>
      </trkpt>
      <trkpt lat="43.09189" lon="2.56785">
        <ele>208.74</ele>
        <time>2014-10-30T09:34:26Z</time>
      </trkpt>
      <trkpt lat="43.09189" lon="2.5677">
        <ele>208.26</ele>
        <time>2014-10-30T09:34:36Z</time>
      </trkpt>
      <trkpt lat="43.09189" lon="2.56755">
        <ele>209.22</ele>
        <time>2014-10-30T09:34:47Z</time>
      </trkpt>
      <trkpt lat="43.0919" lon="2.56749">
        <ele>209.22</ele>
        <time>2014-10-30T09:34:51Z</time>
      </trkpt>
      <trkpt lat="43.09187" lon="2.56734">
        <ele>208.74</ele>
        <time>2014-10-30T09:35:01Z</time>
      </trkpt>
      <trkpt lat="43.09187" lon="2.56722">
        <ele>209.22</ele>
        <time>2014-10-30T09:35:09Z</time>
      </trkpt>
      <trkpt lat="43.0919" lon="2.56711">
        <ele>209.22</ele>
        <time>2014-10-30T09:35:18Z</time>
      </trkpt>
      <trkpt lat="43.0919" lon="2.56693">
        <ele>209.7</ele>
        <time>2014-10-30T09:35:29Z</time>
      </trkpt>
      <trkpt lat="43.09189" lon="2.56688">
        <ele>209.7</ele>
        <time>2014-10-30T09:35:32Z</time>
      </trkpt>
      <trkpt lat="43.0919" lon="2.56684">
        <ele>209.7</ele>
        <time>2014-10-30T09:35:35Z</time>
      </trkpt>
      <trkpt lat="43.0919" lon="2.56678">
        <ele>210.19</ele>
        <time>2014-10-30T09:35:38Z</time>
      </trkpt>
      <trkpt lat="43.09188" lon="2.56673">
        <ele>210.19</ele>
        <time>2014-10-30T09:35:42Z</time>
      </trkpt>
      <trkpt lat="43.09185" lon="2.56667">
        <ele>209.7</ele>
        <time>2014-10-30T09:35:48Z</time>
      </trkpt>
      <trkpt lat="43.09184" lon="2.5666">
        <ele>209.7</ele>
        <time>2014-10-30T09:35:52Z</time>
      </trkpt>
      <trkpt lat="43.09184" lon="2.56657">
        <ele>210.19</ele>
        <time>2014-10-30T09:35:54Z</time>
      </trkpt>
      <trkpt lat="43.09184" lon="2.56654">
        <ele>210.19</ele>
        <time>2014-10-30T09:35:56Z</time>
      </trkpt>
      <trkpt lat="43.09187" lon="2.56647">
        <ele>210.67</ele>
        <time>2014-10-30T09:36:02Z</time>
      </trkpt>
      <trkpt lat="43.09189" lon="2.56646">
        <ele>210.67</ele>
        <time>2014-10-30T09:36:04Z</time>
      </trkpt>
      <trkpt lat="43.09194" lon="2.56643">
        <ele>211.15</ele>
        <time>2014-10-30T09:36:10Z</time>
      </trkpt>
      <trkpt lat="43.09197" lon="2.56643">
        <ele>211.63</ele>
        <time>2014-10-30T09:36:13Z</time>
      </trkpt>
      <trkpt lat="43.09204" lon="2.56641">
        <ele>212.11</ele>
        <time>2014-10-30T09:36:19Z</time>
      </trkpt>
      <trkpt lat="43.09205" lon="2.5664">
        <ele>212.11</ele>
        <time>2014-10-30T09:36:21Z</time>
      </trkpt>
      <trkpt lat="43.0921" lon="2.56626">
        <ele>213.07</ele>
        <time>2014-10-30T09:36:32Z</time>
      </trkpt>
      <trkpt lat="43.09217" lon="2.56621">
        <ele>213.55</ele>
        <time>2014-10-30T09:36:40Z</time>
      </trkpt>
      <trkpt lat="43.09218" lon="2.56619">
        <ele>213.55</ele>
        <time>2014-10-30T09:36:42Z</time>
      </trkpt>
      <trkpt lat="43.0922" lon="2.5661">
        <ele>213.07</ele>
        <time>2014-10-30T09:36:48Z</time>
      </trkpt>
      <trkpt lat="43.09225" lon="2.56592">
        <ele>214.51</ele>
        <time>2014-10-30T09:36:59Z</time>
      </trkpt>
      <trkpt lat="43.09225" lon="2.56585">
        <ele>214.99</ele>
        <time>2014-10-30T09:37:04Z</time>
      </trkpt>
      <trkpt lat="43.09225" lon="2.56579">
        <ele>214.99</ele>
        <time>2014-10-30T09:37:08Z</time>
      </trkpt>
      <trkpt lat="43.09231" lon="2.56565">
        <ele>215.47</ele>
        <time>2014-10-30T09:37:18Z</time>
      </trkpt>
      <trkpt lat="43.09232" lon="2.56559">
        <ele>215.95</ele>
        <time>2014-10-30T09:37:22Z</time>
      </trkpt>
      <trkpt lat="43.09238" lon="2.56545">
        <ele>216.43</ele>
        <time>2014-10-30T09:37:32Z</time>
      </trkpt>
      <trkpt lat="43.0925" lon="2.56539">
        <ele>216.91</ele>
        <time>2014-10-30T09:37:43Z</time>
      </trkpt>
      <trkpt lat="43.09257" lon="2.56538">
        <ele>217.4</ele>
        <time>2014-10-30T09:37:49Z</time>
      </trkpt>
      <trkpt lat="43.09259" lon="2.56539">
        <ele>218.36</ele>
        <time>2014-10-30T09:37:52Z</time>
      </trkpt>
      <trkpt lat="43.09265" lon="2.56543">
        <ele>219.32</ele>
        <time>2014-10-30T09:37:58Z</time>
      </trkpt>
      <trkpt lat="43.0927" lon="2.56542">
        <ele>220.28</ele>
        <time>2014-10-30T09:38:06Z</time>
      </trkpt>
      <trkpt lat="43.0927" lon="2.56526">
        <ele>220.76</ele>
        <time>2014-10-30T09:38:18Z</time>
      </trkpt>
      <trkpt lat="43.0927" lon="2.56517">
        <ele>221.72</ele>
        <time>2014-10-30T09:38:24Z</time>
      </trkpt>
      <trkpt lat="43.0927" lon="2.56508">
        <ele>222.68</ele>
        <time>2014-10-30T09:38:30Z</time>
      </trkpt>
      <trkpt lat="43.09275" lon="2.56499">
        <ele>223.16</ele>
        <time>2014-10-30T09:38:38Z</time>
      </trkpt>
      <trkpt lat="43.09286" lon="2.5649">
        <ele>224.61</ele>
        <time>2014-10-30T09:38:49Z</time>
      </trkpt>
      <trkpt lat="43.09289" lon="2.56488">
        <ele>225.57</ele>
        <time>2014-10-30T09:39:04Z</time>
      </trkpt>
      <trkpt lat="43.09289" lon="2.56488">
        <ele>225.57</ele>
        <time>2014-10-30T09:39:16Z</time>
      </trkpt>
      <trkpt lat="43.0929" lon="2.56487">
        <ele>225.57</ele>
        <time>2014-10-30T09:39:27Z</time>
      </trkpt>
      <trkpt lat="43.09291" lon="2.56486">
        <ele>226.05</ele>
        <time>2014-10-30T09:39:43Z</time>
      </trkpt>
      <trkpt lat="43.09291" lon="2.56485">
        <ele>225.09</ele>
        <time>2014-10-30T09:40:05Z</time>
      </trkpt>
      <trkpt lat="43.09292" lon="2.56485">
        <ele>225.09</ele>
        <time>2014-10-30T09:40:21Z</time>
      </trkpt>
      <trkpt lat="43.0929" lon="2.56488">
        <ele>225.57</ele>
        <time>2014-10-30T09:40:26Z</time>
      </trkpt>
      <trkpt lat="43.09287" lon="2.56494">
        <ele>226.05</ele>
        <time>2014-10-30T09:40:31Z</time>
      </trkpt>
      <trkpt lat="43.09285" lon="2.56496">
        <ele>226.53</ele>
        <time>2014-10-30T09:40:33Z</time>
      </trkpt>
      <trkpt lat="43.09282" lon="2.56503">
        <ele>227.01</ele>
        <time>2014-10-30T09:40:39Z</time>
      </trkpt>
      <trkpt lat="43.09282" lon="2.56508">
        <ele>227.49</ele>
        <time>2014-10-30T09:40:42Z</time>
      </trkpt>
      <trkpt lat="43.0928" lon="2.56513">
        <ele>227.97</ele>
        <time>2014-10-30T09:40:46Z</time>
      </trkpt>
      <trkpt lat="43.0928" lon="2.56515">
        <ele>227.97</ele>
        <time>2014-10-30T09:40:48Z</time>
      </trkpt>
      <trkpt lat="43.09284" lon="2.56518">
        <ele>228.93</ele>
        <time>2014-10-30T09:40:53Z</time>
      </trkpt>
      <trkpt lat="43.0929" lon="2.56513">
        <ele>229.41</ele>
        <time>2014-10-30T09:41:00Z</time>
      </trkpt>
      <trkpt lat="43.09291" lon="2.56511">
        <ele>229.89</ele>
        <time>2014-10-30T09:41:02Z</time>
      </trkpt>
      <trkpt lat="43.09297" lon="2.56503">
        <ele>230.85</ele>
        <time>2014-10-30T09:41:12Z</time>
      </trkpt>
      <trkpt lat="43.09301" lon="2.56499">
        <ele>230.37</ele>
        <time>2014-10-30T09:41:15Z</time>
      </trkpt>
      <trkpt lat="43.0931" lon="2.56489">
        <ele>232.3</ele>
        <time>2014-10-30T09:41:26Z</time>
      </trkpt>
      <trkpt lat="43.09316" lon="2.56483">
        <ele>232.78</ele>
        <time>2014-10-30T09:41:35Z</time>
      </trkpt>
      <trkpt lat="43.0932" lon="2.56481">
        <ele>233.26</ele>
        <time>2014-10-30T09:41:52Z</time>
      </trkpt>
      <trkpt lat="43.09329" lon="2.56472">
        <ele>234.7</ele>
        <time>2014-10-30T09:42:04Z</time>
      </trkpt>
      <trkpt lat="43.09333" lon="2.56465">
        <ele>235.18</ele>
        <time>2014-10-30T09:42:11Z</time>
      </trkpt>
      <trkpt lat="43.09331" lon="2.56454">
        <ele>236.14</ele>
        <time>2014-10-30T09:42:19Z</time>
      </trkpt>
      <trkpt lat="43.09331" lon="2.56449">
        <ele>237.1</ele>
        <time>2014-10-30T09:42:22Z</time>
      </trkpt>
      <trkpt lat="43.09331" lon="2.56439">
        <ele>237.1</ele>
        <time>2014-10-30T09:42:28Z</time>
      </trkpt>
      <trkpt lat="43.09338" lon="2.5643">
        <ele>238.06</ele>
        <time>2014-10-30T09:42:38Z</time>
      </trkpt>
      <trkpt lat="43.09347" lon="2.56425">
        <ele>239.02</ele>
        <time>2014-10-30T09:42:49Z</time>
      </trkpt>
      <trkpt lat="43.09355" lon="2.56423">
        <ele>239.51</ele>
        <time>2014-10-30T09:42:56Z</time>
      </trkpt>
      <trkpt lat="43.09357" lon="2.56421">
        <ele>239.99</ele>
        <time>2014-10-30T09:42:59Z</time>
      </trkpt>
      <trkpt lat="43.09369" lon="2.56419">
        <ele>240.95</ele>
        <time>2014-10-30T09:43:12Z</time>
      </trkpt>
      <trkpt lat="43.09371" lon="2.56414">
        <ele>241.43</ele>
        <time>2014-10-30T09:43:17Z</time>
      </trkpt>
      <trkpt lat="43.09375" lon="2.56409">
        <ele>242.39</ele>
        <time>2014-10-30T09:43:22Z</time>
      </trkpt>
      <trkpt lat="43.09377" lon="2.56407">
        <ele>242.87</ele>
        <time>2014-10-30T09:43:24Z</time>
      </trkpt>
      <trkpt lat="43.09379" lon="2.56406">
        <ele>242.87</ele>
        <time>2014-10-30T09:43:26Z</time>
      </trkpt>
      <trkpt lat="43.09389" lon="2.56405">
        <ele>243.83</ele>
        <time>2014-10-30T09:43:36Z</time>
      </trkpt>
      <trkpt lat="43.09393" lon="2.564">
        <ele>244.31</ele>
        <time>2014-10-30T09:43:41Z</time>
      </trkpt>
      <trkpt lat="43.09404" lon="2.5639">
        <ele>246.23</ele>
        <time>2014-10-30T09:43:53Z</time>
      </trkpt>
      <trkpt lat="43.09405" lon="2.56388">
        <ele>246.23</ele>
        <time>2014-10-30T09:43:55Z</time>
      </trkpt>
      <trkpt lat="43.09404" lon="2.56381">
        <ele>247.2</ele>
        <time>2014-10-30T09:43:59Z</time>
      </trkpt>
      <trkpt lat="43.09405" lon="2.56374">
        <ele>247.2</ele>
        <time>2014-10-30T09:44:03Z</time>
      </trkpt>
      <trkpt lat="43.09408" lon="2.56355">
        <ele>248.64</ele>
        <time>2014-10-30T09:44:13Z</time>
      </trkpt>
      <trkpt lat="43.0942" lon="2.56351">
        <ele>249.6</ele>
        <time>2014-10-30T09:44:24Z</time>
      </trkpt>
      <trkpt lat="43.09424" lon="2.56343">
        <ele>251.04</ele>
        <time>2014-10-30T09:44:31Z</time>
      </trkpt>
      <trkpt lat="43.09429" lon="2.56329">
        <ele>252.48</ele>
        <time>2014-10-30T09:44:43Z</time>
      </trkpt>
      <trkpt lat="43.0943" lon="2.56325">
        <ele>252.48</ele>
        <time>2014-10-30T09:44:46Z</time>
      </trkpt>
      <trkpt lat="43.09432" lon="2.56319">
        <ele>252.96</ele>
        <time>2014-10-30T09:44:50Z</time>
      </trkpt>
      <trkpt lat="43.09436" lon="2.56314">
        <ele>253.93</ele>
        <time>2014-10-30T09:44:58Z</time>
      </trkpt>
      <trkpt lat="43.0944" lon="2.56312">
        <ele>253.93</ele>
        <time>2014-10-30T09:45:02Z</time>
      </trkpt>
      <trkpt lat="43.09442" lon="2.5631">
        <ele>253.93</ele>
        <time>2014-10-30T09:45:04Z</time>
      </trkpt>
      <trkpt lat="43.09446" lon="2.56304">
        <ele>254.41</ele>
        <time>2014-10-30T09:45:09Z</time>
      </trkpt>
      <trkpt lat="43.0945" lon="2.56295">
        <ele>255.37</ele>
        <time>2014-10-30T09:45:15Z</time>
      </trkpt>
      <trkpt lat="43.0945" lon="2.56291">
        <ele>255.37</ele>
        <time>2014-10-30T09:45:18Z</time>
      </trkpt>
      <trkpt lat="43.09452" lon="2.56278">
        <ele>256.81</ele>
        <time>2014-10-30T09:45:27Z</time>
      </trkpt>
      <trkpt lat="43.09451" lon="2.56273">
        <ele>256.33</ele>
        <time>2014-10-30T09:45:30Z</time>
      </trkpt>
      <trkpt lat="43.09452" lon="2.56266">
        <ele>257.29</ele>
        <time>2014-10-30T09:45:36Z</time>
      </trkpt>
      <trkpt lat="43.09451" lon="2.56259">
        <ele>257.77</ele>
        <time>2014-10-30T09:45:39Z</time>
      </trkpt>
      <trkpt lat="43.0945" lon="2.56252">
        <ele>258.25</ele>
        <time>2014-10-30T09:45:43Z</time>
      </trkpt>
      <trkpt lat="43.09452" lon="2.56241">
        <ele>259.21</ele>
        <time>2014-10-30T09:45:49Z</time>
      </trkpt>
      <trkpt lat="43.09451" lon="2.56232">
        <ele>259.21</ele>
        <time>2014-10-30T09:45:55Z</time>
      </trkpt>
      <trkpt lat="43.09449" lon="2.56214">
        <ele>260.65</ele>
        <time>2014-10-30T09:46:06Z</time>
      </trkpt>
      <trkpt lat="43.09444" lon="2.56193">
        <ele>260.65</ele>
        <time>2014-10-30T09:46:18Z</time>
      </trkpt>
      <trkpt lat="43.09443" lon="2.56186">
        <ele>261.14</ele>
        <time>2014-10-30T09:46:22Z</time>
      </trkpt>
      <trkpt lat="43.09441" lon="2.56176">
        <ele>261.62</ele>
        <time>2014-10-30T09:46:28Z</time>
      </trkpt>
      <trkpt lat="43.0944" lon="2.5617">
        <ele>262.1</ele>
        <time>2014-10-30T09:46:31Z</time>
      </trkpt>
      <trkpt lat="43.0944" lon="2.56161">
        <ele>262.58</ele>
        <time>2014-10-30T09:46:37Z</time>
      </trkpt>
      <trkpt lat="43.0944" lon="2.56156">
        <ele>262.1</ele>
        <time>2014-10-30T09:46:40Z</time>
      </trkpt>
      <trkpt lat="43.0944" lon="2.56151">
        <ele>262.1</ele>
        <time>2014-10-30T09:46:43Z</time>
      </trkpt>
      <trkpt lat="43.09439" lon="2.56148">
        <ele>262.58</ele>
        <time>2014-10-30T09:46:45Z</time>
      </trkpt>
      <trkpt lat="43.0944" lon="2.56135">
        <ele>263.06</ele>
        <time>2014-10-30T09:46:54Z</time>
      </trkpt>
      <trkpt lat="43.09438" lon="2.56125">
        <ele>263.06</ele>
        <time>2014-10-30T09:47:00Z</time>
      </trkpt>
      <trkpt lat="43.09438" lon="2.56119">
        <ele>263.54</ele>
        <time>2014-10-30T09:47:04Z</time>
      </trkpt>
      <trkpt lat="43.09436" lon="2.56106">
        <ele>264.02</ele>
        <time>2014-10-30T09:47:12Z</time>
      </trkpt>
      <trkpt lat="43.09432" lon="2.56085">
        <ele>264.98</ele>
        <time>2014-10-30T09:47:24Z</time>
      </trkpt>
      <trkpt lat="43.09431" lon="2.56077">
        <ele>264.98</ele>
        <time>2014-10-30T09:47:37Z</time>
      </trkpt>
      <trkpt lat="43.0943" lon="2.56077">
        <ele>264.98</ele>
        <time>2014-10-30T09:47:39Z</time>
      </trkpt>
      <trkpt lat="43.09427" lon="2.56073">
        <ele>264.02</ele>
        <time>2014-10-30T09:47:42Z</time>
      </trkpt>
      <trkpt lat="43.09425" lon="2.56069">
        <ele>264.02</ele>
        <time>2014-10-30T09:47:46Z</time>
      </trkpt>
      <trkpt lat="43.09423" lon="2.56066">
        <ele>263.54</ele>
        <time>2014-10-30T09:47:49Z</time>
      </trkpt>
      <trkpt lat="43.09413" lon="2.56054">
        <ele>262.1</ele>
        <time>2014-10-30T09:48:01Z</time>
      </trkpt>
      <trkpt lat="43.09409" lon="2.56049">
        <ele>261.14</ele>
        <time>2014-10-30T09:48:12Z</time>
      </trkpt>
      <trkpt lat="43.09408" lon="2.56049">
        <ele>261.14</ele>
        <time>2014-10-30T09:48:33Z</time>
      </trkpt>
      <trkpt lat="43.09409" lon="2.56048">
        <ele>261.62</ele>
        <time>2014-10-30T09:48:37Z</time>
      </trkpt>
      <trkpt lat="43.09408" lon="2.56053">
        <ele>261.62</ele>
        <time>2014-10-30T09:48:48Z</time>
      </trkpt>
      <trkpt lat="43.0941" lon="2.56051">
        <ele>261.14</ele>
        <time>2014-10-30T09:49:00Z</time>
      </trkpt>
      <trkpt lat="43.09411" lon="2.5605">
        <ele>261.62</ele>
        <time>2014-10-30T09:49:02Z</time>
      </trkpt>
      <trkpt lat="43.09416" lon="2.56049">
        <ele>261.62</ele>
        <time>2014-10-30T09:49:14Z</time>
      </trkpt>
      <trkpt lat="43.09415" lon="2.56048">
        <ele>261.62</ele>
        <time>2014-10-30T09:49:46Z</time>
      </trkpt>
      <trkpt lat="43.09414" lon="2.56048">
        <ele>261.14</ele>
        <time>2014-10-30T09:49:49Z</time>
      </trkpt>
      <trkpt lat="43.0941" lon="2.56049">
        <ele>261.14</ele>
        <time>2014-10-30T09:49:54Z</time>
      </trkpt>
      <trkpt lat="43.09408" lon="2.56049">
        <ele>260.65</ele>
        <time>2014-10-30T09:49:57Z</time>
      </trkpt>
      <trkpt lat="43.09398" lon="2.56047">
        <ele>259.21</ele>
        <time>2014-10-30T09:50:12Z</time>
      </trkpt>
      <trkpt lat="43.09398" lon="2.56047">
        <ele>259.21</ele>
        <time>2014-10-30T09:50:17Z</time>
      </trkpt>
      <trkpt lat="43.09394" lon="2.56043">
        <ele>258.73</ele>
        <time>2014-10-30T09:50:30Z</time>
      </trkpt>
      <trkpt lat="43.09394" lon="2.56043">
        <ele>258.25</ele>
        <time>2014-10-30T09:51:05Z</time>
      </trkpt>
      <trkpt lat="43.09391" lon="2.56042">
        <ele>258.25</ele>
        <time>2014-10-30T09:51:15Z</time>
      </trkpt>
      <trkpt lat="43.09391" lon="2.56041">
        <ele>258.25</ele>
        <time>2014-10-30T09:51:31Z</time>
      </trkpt>
      <trkpt lat="43.0939" lon="2.56041">
        <ele>258.73</ele>
        <time>2014-10-30T09:51:48Z</time>
      </trkpt>
      <trkpt lat="43.0939" lon="2.56041">
        <ele>258.25</ele>
        <time>2014-10-30T09:52:02Z</time>
      </trkpt>
      <trkpt lat="43.0939" lon="2.56041">
        <ele>258.25</ele>
        <time>2014-10-30T09:52:21Z</time>
      </trkpt>
      <trkpt lat="43.09391" lon="2.56042">
        <ele>258.25</ele>
        <time>2014-10-30T09:52:51Z</time>
      </trkpt>
      <trkpt lat="43.09391" lon="2.56044">
        <ele>258.25</ele>
        <time>2014-10-30T09:53:09Z</time>
      </trkpt>
      <trkpt lat="43.09392" lon="2.56043">
        <ele>258.25</ele>
        <time>2014-10-30T09:53:30Z</time>
      </trkpt>
      <trkpt lat="43.09392" lon="2.56043">
        <ele>258.25</ele>
        <time>2014-10-30T09:53:53Z</time>
      </trkpt>
      <trkpt lat="43.09392" lon="2.56043">
        <ele>258.73</ele>
        <time>2014-10-30T09:54:20Z</time>
      </trkpt>
      <trkpt lat="43.09392" lon="2.56043">
        <ele>258.25</ele>
        <time>2014-10-30T09:54:44Z</time>
      </trkpt>
      <trkpt lat="43.09389" lon="2.56041">
        <ele>257.77</ele>
        <time>2014-10-30T09:55:04Z</time>
      </trkpt>
      <trkpt lat="43.09385" lon="2.56039">
        <ele>256.81</ele>
        <time>2014-10-30T09:55:15Z</time>
      </trkpt>
      <trkpt lat="43.09383" lon="2.56039">
        <ele>256.81</ele>
        <time>2014-10-30T09:55:18Z</time>
      </trkpt>
      <trkpt lat="43.09371" lon="2.56032">
        <ele>253.44</ele>
        <time>2014-10-30T09:55:30Z</time>
      </trkpt>
      <trkpt lat="43.09359" lon="2.56028">
        <ele>251.52</ele>
        <time>2014-10-30T09:55:41Z</time>
      </trkpt>
      <trkpt lat="43.09344" lon="2.56023">
        <ele>248.16</ele>
        <time>2014-10-30T09:55:54Z</time>
      </trkpt>
      <trkpt lat="43.09338" lon="2.56019">
        <ele>246.23</ele>
        <time>2014-10-30T09:56:03Z</time>
      </trkpt>
      <trkpt lat="43.09335" lon="2.56017">
        <ele>244.79</ele>
        <time>2014-10-30T09:56:07Z</time>
      </trkpt>
      <trkpt lat="43.0933" lon="2.56013">
        <ele>243.83</ele>
        <time>2014-10-30T09:56:20Z</time>
      </trkpt>
      <trkpt lat="43.09328" lon="2.56011">
        <ele>242.39</ele>
        <time>2014-10-30T09:56:23Z</time>
      </trkpt>
      <trkpt lat="43.09317" lon="2.56003">
        <ele>239.02</ele>
        <time>2014-10-30T09:56:34Z</time>
      </trkpt>
      <trkpt lat="43.09315" lon="2.56001">
        <ele>238.54</ele>
        <time>2014-10-30T09:56:38Z</time>
      </trkpt>
      <trkpt lat="43.09308" lon="2.55995">
        <ele>237.1</ele>
        <time>2014-10-30T09:56:48Z</time>
      </trkpt>
      <trkpt lat="43.09306" lon="2.55991">
        <ele>235.66</ele>
        <time>2014-10-30T09:56:52Z</time>
      </trkpt>
      <trkpt lat="43.09298" lon="2.55985">
        <ele>232.78</ele>
        <time>2014-10-30T09:57:04Z</time>
      </trkpt>
      <trkpt lat="43.09291" lon="2.55977">
        <ele>230.85</ele>
        <time>2014-10-30T09:57:16Z</time>
      </trkpt>
      <trkpt lat="43.09285" lon="2.55969">
        <ele>227.49</ele>
        <time>2014-10-30T09:57:28Z</time>
      </trkpt>
      <trkpt lat="43.09279" lon="2.55965">
        <ele>225.09</ele>
        <time>2014-10-30T09:57:38Z</time>
      </trkpt>
      <trkpt lat="43.09272" lon="2.55959">
        <ele>222.68</ele>
        <time>2014-10-30T09:57:51Z</time>
      </trkpt>
      <trkpt lat="43.09268" lon="2.55953">
        <ele>220.76</ele>
        <time>2014-10-30T09:58:00Z</time>
      </trkpt>
      <trkpt lat="43.0926" lon="2.55946">
        <ele>218.36</ele>
        <time>2014-10-30T09:58:09Z</time>
      </trkpt>
      <trkpt lat="43.09257" lon="2.55943">
        <ele>216.91</ele>
        <time>2014-10-30T09:58:14Z</time>
      </trkpt>
      <trkpt lat="43.09255" lon="2.55941">
        <ele>215.95</ele>
        <time>2014-10-30T09:58:17Z</time>
      </trkpt>
      <trkpt lat="43.09249" lon="2.55935">
        <ele>213.55</ele>
        <time>2014-10-30T09:58:27Z</time>
      </trkpt>
      <trkpt lat="43.09242" lon="2.5593">
        <ele>210.19</ele>
        <time>2014-10-30T09:58:38Z</time>
      </trkpt>
      <trkpt lat="43.09237" lon="2.55925">
        <ele>208.26</ele>
        <time>2014-10-30T09:58:45Z</time>
      </trkpt>
      <trkpt lat="43.09231" lon="2.55922">
        <ele>204.9</ele>
        <time>2014-10-30T09:58:56Z</time>
      </trkpt>
      <trkpt lat="43.09228" lon="2.55922">
        <ele>204.9</ele>
        <time>2014-10-30T09:58:59Z</time>
      </trkpt>
      <trkpt lat="43.09222" lon="2.55922">
        <ele>202.49</ele>
        <time>2014-10-30T09:59:06Z</time>
      </trkpt>
      <trkpt lat="43.09221" lon="2.5592">
        <ele>202.01</ele>
        <time>2014-10-30T09:59:08Z</time>
      </trkpt>
      <trkpt lat="43.09212" lon="2.55916">
        <ele>198.65</ele>
        <time>2014-10-30T09:59:21Z</time>
      </trkpt>
      <trkpt lat="43.09203" lon="2.55915">
        <ele>195.77</ele>
        <time>2014-10-30T09:59:32Z</time>
      </trkpt>
      <trkpt lat="43.09199" lon="2.55913">
        <ele>194.32</ele>
        <time>2014-10-30T09:59:37Z</time>
      </trkpt>
      <trkpt lat="43.09187" lon="2.55908">
        <ele>190.48</ele>
        <time>2014-10-30T09:59:51Z</time>
      </trkpt>
      <trkpt lat="43.09181" lon="2.55906">
        <ele>188.08</ele>
        <time>2014-10-30T10:00:03Z</time>
      </trkpt>
      <trkpt lat="43.09177" lon="2.55901">
        <ele>185.19</ele>
        <time>2014-10-30T10:00:17Z</time>
      </trkpt>
      <trkpt lat="43.09176" lon="2.55897">
        <ele>183.75</ele>
        <time>2014-10-30T10:00:29Z</time>
      </trkpt>
      <trkpt lat="43.09174" lon="2.55897">
        <ele>182.79</ele>
        <time>2014-10-30T10:00:45Z</time>
      </trkpt>
      <trkpt lat="43.09173" lon="2.55896">
        <ele>182.31</ele>
        <time>2014-10-30T10:01:02Z</time>
      </trkpt>
      <trkpt lat="43.09173" lon="2.55896">
        <ele>180.87</ele>
        <time>2014-10-30T10:01:19Z</time>
      </trkpt>
      <trkpt lat="43.09172" lon="2.55895">
        <ele>179.42</ele>
        <time>2014-10-30T10:01:24Z</time>
      </trkpt>
      <trkpt lat="43.0917" lon="2.55895">
        <ele>178.46</ele>
        <time>2014-10-30T10:01:35Z</time>
      </trkpt>
      <trkpt lat="43.09169" lon="2.55895">
        <ele>177.98</ele>
        <time>2014-10-30T10:01:38Z</time>
      </trkpt>
      <trkpt lat="43.09167" lon="2.55894">
        <ele>177.02</ele>
        <time>2014-10-30T10:01:40Z</time>
      </trkpt>
      <trkpt lat="43.09164" lon="2.55894">
        <ele>176.06</ele>
        <time>2014-10-30T10:01:44Z</time>
      </trkpt>
      <trkpt lat="43.09159" lon="2.55895">
        <ele>173.66</ele>
        <time>2014-10-30T10:01:55Z</time>
      </trkpt>
      <trkpt lat="43.09153" lon="2.55898">
        <ele>173.17</ele>
        <time>2014-10-30T10:02:01Z</time>
      </trkpt>
      <trkpt lat="43.0915" lon="2.55904">
        <ele>174.14</ele>
        <time>2014-10-30T10:02:11Z</time>
      </trkpt>
      <trkpt lat="43.09146" lon="2.55901">
        <ele>176.06</ele>
        <time>2014-10-30T10:02:23Z</time>
      </trkpt>
      <trkpt lat="43.09145" lon="2.55899">
        <ele>176.06</ele>
        <time>2014-10-30T10:02:26Z</time>
      </trkpt>
      <trkpt lat="43.09142" lon="2.55892">
        <ele>176.54</ele>
        <time>2014-10-30T10:02:33Z</time>
      </trkpt>
      <trkpt lat="43.09133" lon="2.55889">
        <ele>176.06</ele>
        <time>2014-10-30T10:02:42Z</time>
      </trkpt>
      <trkpt lat="43.09128" lon="2.55893">
        <ele>177.5</ele>
        <time>2014-10-30T10:02:54Z</time>
      </trkpt>
      <trkpt lat="43.09128" lon="2.55893">
        <ele>177.5</ele>
        <time>2014-10-30T10:02:55Z</time>
      </trkpt>
      <trkpt lat="43.09127" lon="2.55895">
        <ele>177.02</ele>
        <time>2014-10-30T10:02:57Z</time>
      </trkpt>
      <trkpt lat="43.09127" lon="2.559">
        <ele>177.5</ele>
        <time>2014-10-30T10:03:00Z</time>
      </trkpt>
      <trkpt lat="43.09126" lon="2.55904">
        <ele>177.5</ele>
        <time>2014-10-30T10:03:13Z</time>
      </trkpt>
      <trkpt lat="43.09126" lon="2.55904">
        <ele>177.02</ele>
        <time>2014-10-30T10:03:31Z</time>
      </trkpt>
      <trkpt lat="43.09125" lon="2.55904">
        <ele>177.02</ele>
        <time>2014-10-30T10:03:46Z</time>
      </trkpt>
      <trkpt lat="43.09125" lon="2.55905">
        <ele>177.5</ele>
        <time>2014-10-30T10:03:59Z</time>
      </trkpt>
      <trkpt lat="43.09126" lon="2.55906">
        <ele>177.5</ele>
        <time>2014-10-30T10:04:12Z</time>
      </trkpt>
      <trkpt lat="43.09126" lon="2.55905">
        <ele>177.5</ele>
        <time>2014-10-30T10:04:28Z</time>
      </trkpt>
      <trkpt lat="43.09126" lon="2.55905">
        <ele>176.54</ele>
        <time>2014-10-30T10:05:03Z</time>
      </trkpt>
      <trkpt lat="43.09126" lon="2.55905">
        <ele>176.54</ele>
        <time>2014-10-30T10:05:09Z</time>
      </trkpt>
      <trkpt lat="43.09124" lon="2.55906">
        <ele>176.54</ele>
        <time>2014-10-30T10:05:11Z</time>
      </trkpt>
      <trkpt lat="43.09124" lon="2.55913">
        <ele>176.54</ele>
        <time>2014-10-30T10:05:16Z</time>
      </trkpt>
      <trkpt lat="43.09123" lon="2.55926">
        <ele>176.54</ele>
        <time>2014-10-30T10:05:26Z</time>
      </trkpt>
      <trkpt lat="43.09123" lon="2.55927">
        <ele>176.54</ele>
        <time>2014-10-30T10:05:27Z</time>
      </trkpt>
      <trkpt lat="43.09122" lon="2.55925">
        <ele>176.54</ele>
        <time>2014-10-30T10:05:30Z</time>
      </trkpt>
      <trkpt lat="43.09121" lon="2.55922">
        <ele>176.54</ele>
        <time>2014-10-30T10:05:43Z</time>
      </trkpt>
      <trkpt lat="43.09121" lon="2.55922">
        <ele>176.54</ele>
        <time>2014-10-30T10:06:03Z</time>
      </trkpt>
      <trkpt lat="43.09121" lon="2.55919">
        <ele>176.06</ele>
        <time>2014-10-30T10:06:15Z</time>
      </trkpt>
      <trkpt lat="43.09122" lon="2.55909">
        <ele>176.54</ele>
        <time>2014-10-30T10:06:23Z</time>
      </trkpt>
      <trkpt lat="43.09124" lon="2.55902">
        <ele>176.06</ele>
        <time>2014-10-30T10:06:27Z</time>
      </trkpt>
      <trkpt lat="43.09124" lon="2.55886">
        <ele>176.06</ele>
        <time>2014-10-30T10:06:37Z</time>
      </trkpt>
      <trkpt lat="43.09124" lon="2.55885">
        <ele>176.06</ele>
        <time>2014-10-30T10:06:38Z</time>
      </trkpt>
      <trkpt lat="43.09118" lon="2.55869">
        <ele>176.54</ele>
        <time>2014-10-30T10:06:51Z</time>
      </trkpt>
      <trkpt lat="43.09118" lon="2.55866">
        <ele>176.06</ele>
        <time>2014-10-30T10:07:03Z</time>
      </trkpt>
      <trkpt lat="43.09118" lon="2.55866">
        <ele>176.54</ele>
        <time>2014-10-30T10:07:22Z</time>
      </trkpt>
      <trkpt lat="43.09117" lon="2.55866">
        <ele>176.54</ele>
        <time>2014-10-30T10:07:33Z</time>
      </trkpt>
      <trkpt lat="43.09118" lon="2.55864">
        <ele>176.06</ele>
        <time>2014-10-30T10:07:50Z</time>
      </trkpt>
      <trkpt lat="43.09119" lon="2.55864">
        <ele>176.06</ele>
        <time>2014-10-30T10:08:08Z</time>
      </trkpt>
      <trkpt lat="43.09118" lon="2.55865">
        <ele>176.06</ele>
        <time>2014-10-30T10:08:30Z</time>
      </trkpt>
      <trkpt lat="43.09118" lon="2.55866">
        <ele>175.58</ele>
        <time>2014-10-30T10:08:50Z</time>
      </trkpt>
      <trkpt lat="43.09118" lon="2.55865">
        <ele>175.58</ele>
        <time>2014-10-30T10:09:04Z</time>
      </trkpt>
      <trkpt lat="43.09118" lon="2.55865">
        <ele>176.06</ele>
        <time>2014-10-30T10:09:09Z</time>
      </trkpt>
      <trkpt lat="43.09118" lon="2.5586">
        <ele>176.54</ele>
        <time>2014-10-30T10:09:15Z</time>
      </trkpt>
      <trkpt lat="43.09116" lon="2.55856">
        <ele>176.54</ele>
        <time>2014-10-30T10:09:18Z</time>
      </trkpt>
      <trkpt lat="43.09113" lon="2.55853">
        <ele>177.02</ele>
        <time>2014-10-30T10:09:21Z</time>
      </trkpt>
      <trkpt lat="43.09101" lon="2.55835">
        <ele>178.94</ele>
        <time>2014-10-30T10:09:37Z</time>
      </trkpt>
      <trkpt lat="43.091" lon="2.55834">
        <ele>178.46</ele>
        <time>2014-10-30T10:09:38Z</time>
      </trkpt>
      <trkpt lat="43.09099" lon="2.55825">
        <ele>179.9</ele>
        <time>2014-10-30T10:09:44Z</time>
      </trkpt>
      <trkpt lat="43.09099" lon="2.55822">
        <ele>180.38</ele>
        <time>2014-10-30T10:09:47Z</time>
      </trkpt>
      <trkpt lat="43.09098" lon="2.55808">
        <ele>183.27</ele>
        <time>2014-10-30T10:10:00Z</time>
      </trkpt>
      <trkpt lat="43.09098" lon="2.55805">
        <ele>184.23</ele>
        <time>2014-10-30T10:10:03Z</time>
      </trkpt>
      <trkpt lat="43.09101" lon="2.55795">
        <ele>186.15</ele>
        <time>2014-10-30T10:10:13Z</time>
      </trkpt>
      <trkpt lat="43.09101" lon="2.55788">
        <ele>189.04</ele>
        <time>2014-10-30T10:10:23Z</time>
      </trkpt>
      <trkpt lat="43.09096" lon="2.55774">
        <ele>190.48</ele>
        <time>2014-10-30T10:10:35Z</time>
      </trkpt>
      <trkpt lat="43.09095" lon="2.55767">
        <ele>191.92</ele>
        <time>2014-10-30T10:10:42Z</time>
      </trkpt>
      <trkpt lat="43.09093" lon="2.55752">
        <ele>194.8</ele>
        <time>2014-10-30T10:10:55Z</time>
      </trkpt>
      <trkpt lat="43.09093" lon="2.55747">
        <ele>195.77</ele>
        <time>2014-10-30T10:10:59Z</time>
      </trkpt>
      <trkpt lat="43.09091" lon="2.55744">
        <ele>196.25</ele>
        <time>2014-10-30T10:11:02Z</time>
      </trkpt>
      <trkpt lat="43.09092" lon="2.55738">
        <ele>197.21</ele>
        <time>2014-10-30T10:11:07Z</time>
      </trkpt>
      <trkpt lat="43.09093" lon="2.55736">
        <ele>197.69</ele>
        <time>2014-10-30T10:11:09Z</time>
      </trkpt>
      <trkpt lat="43.09097" lon="2.55732">
        <ele>199.13</ele>
        <time>2014-10-30T10:11:16Z</time>
      </trkpt>
      <trkpt lat="43.09098" lon="2.55726">
        <ele>200.57</ele>
        <time>2014-10-30T10:11:21Z</time>
      </trkpt>
      <trkpt lat="43.09103" lon="2.55718">
        <ele>202.01</ele>
        <time>2014-10-30T10:11:31Z</time>
      </trkpt>
      <trkpt lat="43.09109" lon="2.55717">
        <ele>204.9</ele>
        <time>2014-10-30T10:11:41Z</time>
      </trkpt>
      <trkpt lat="43.0911" lon="2.55717">
        <ele>204.9</ele>
        <time>2014-10-30T10:11:42Z</time>
      </trkpt>
      <trkpt lat="43.09115" lon="2.55716">
        <ele>206.34</ele>
        <time>2014-10-30T10:11:49Z</time>
      </trkpt>
      <trkpt lat="43.09118" lon="2.55714">
        <ele>207.3</ele>
        <time>2014-10-30T10:11:54Z</time>
      </trkpt>
      <trkpt lat="43.09121" lon="2.5571">
        <ele>208.26</ele>
        <time>2014-10-30T10:11:58Z</time>
      </trkpt>
      <trkpt lat="43.09123" lon="2.55704">
        <ele>208.26</ele>
        <time>2014-10-30T10:12:02Z</time>
      </trkpt>
      <trkpt lat="43.09124" lon="2.557">
        <ele>208.74</ele>
        <time>2014-10-30T10:12:05Z</time>
      </trkpt>
      <trkpt lat="43.09125" lon="2.55689">
        <ele>210.67</ele>
        <time>2014-10-30T10:12:13Z</time>
      </trkpt>
      <trkpt lat="43.09127" lon="2.55676">
        <ele>212.11</ele>
        <time>2014-10-30T10:12:24Z</time>
      </trkpt>
      <trkpt lat="43.09128" lon="2.55665">
        <ele>213.55</ele>
        <time>2014-10-30T10:12:33Z</time>
      </trkpt>
      <trkpt lat="43.09128" lon="2.55663">
        <ele>213.55</ele>
        <time>2014-10-30T10:12:35Z</time>
      </trkpt>
      <trkpt lat="43.09127" lon="2.55657">
        <ele>214.51</ele>
        <time>2014-10-30T10:12:39Z</time>
      </trkpt>
      <trkpt lat="43.09128" lon="2.55651">
        <ele>214.03</ele>
        <time>2014-10-30T10:12:43Z</time>
      </trkpt>
      <trkpt lat="43.09128" lon="2.55645">
        <ele>213.55</ele>
        <time>2014-10-30T10:12:48Z</time>
      </trkpt>
      <trkpt lat="43.09133" lon="2.55643">
        <ele>212.59</ele>
        <time>2014-10-30T10:12:52Z</time>
      </trkpt>
      <trkpt lat="43.09135" lon="2.55641">
        <ele>212.11</ele>
        <time>2014-10-30T10:12:54Z</time>
      </trkpt>
      <trkpt lat="43.09137" lon="2.55638">
        <ele>212.11</ele>
        <time>2014-10-30T10:12:56Z</time>
      </trkpt>
      <trkpt lat="43.0914" lon="2.55637">
        <ele>211.63</ele>
        <time>2014-10-30T10:12:59Z</time>
      </trkpt>
      <trkpt lat="43.0915" lon="2.55637">
        <ele>212.11</ele>
        <time>2014-10-30T10:13:06Z</time>
      </trkpt>
      <trkpt lat="43.09152" lon="2.55639">
        <ele>212.59</ele>
        <time>2014-10-30T10:13:09Z</time>
      </trkpt>
      <trkpt lat="43.09156" lon="2.55646">
        <ele>213.55</ele>
        <time>2014-10-30T10:13:16Z</time>
      </trkpt>
      <trkpt lat="43.09158" lon="2.55647">
        <ele>214.51</ele>
        <time>2014-10-30T10:13:18Z</time>
      </trkpt>
      <trkpt lat="43.0916" lon="2.55648">
        <ele>214.99</ele>
        <time>2014-10-30T10:13:21Z</time>
      </trkpt>
      <trkpt lat="43.09169" lon="2.55652">
        <ele>215.95</ele>
        <time>2014-10-30T10:13:28Z</time>
      </trkpt>
      <trkpt lat="43.09175" lon="2.55656">
        <ele>216.91</ele>
        <time>2014-10-30T10:13:35Z</time>
      </trkpt>
      <trkpt lat="43.09181" lon="2.5566">
        <ele>215.95</ele>
        <time>2014-10-30T10:13:40Z</time>
      </trkpt>
      <trkpt lat="43.09187" lon="2.55662">
        <ele>214.99</ele>
        <time>2014-10-30T10:13:46Z</time>
      </trkpt>
      <trkpt lat="43.09195" lon="2.55663">
        <ele>213.55</ele>
        <time>2014-10-30T10:13:55Z</time>
      </trkpt>
      <trkpt lat="43.09197" lon="2.55664">
        <ele>213.55</ele>
        <time>2014-10-30T10:13:56Z</time>
      </trkpt>
      <trkpt lat="43.09212" lon="2.55666">
        <ele>212.59</ele>
        <time>2014-10-30T10:14:06Z</time>
      </trkpt>
      <trkpt lat="43.09215" lon="2.55666">
        <ele>211.63</ele>
        <time>2014-10-30T10:14:09Z</time>
      </trkpt>
      <trkpt lat="43.09223" lon="2.55665">
        <ele>211.63</ele>
        <time>2014-10-30T10:14:14Z</time>
      </trkpt>
      <trkpt lat="43.09227" lon="2.55665">
        <ele>212.11</ele>
        <time>2014-10-30T10:14:17Z</time>
      </trkpt>
      <trkpt lat="43.09231" lon="2.55662">
        <ele>211.63</ele>
        <time>2014-10-30T10:14:22Z</time>
      </trkpt>
      <trkpt lat="43.09236" lon="2.55659">
        <ele>211.15</ele>
        <time>2014-10-30T10:14:26Z</time>
      </trkpt>
      <trkpt lat="43.09249" lon="2.55655">
        <ele>211.63</ele>
        <time>2014-10-30T10:14:35Z</time>
      </trkpt>
      <trkpt lat="43.09261" lon="2.55653">
        <ele>211.63</ele>
        <time>2014-10-30T10:14:45Z</time>
      </trkpt>
      <trkpt lat="43.09265" lon="2.55652">
        <ele>211.15</ele>
        <time>2014-10-30T10:14:48Z</time>
      </trkpt>
      <trkpt lat="43.09266" lon="2.55652">
        <ele>211.15</ele>
        <time>2014-10-30T10:14:49Z</time>
      </trkpt>
      <trkpt lat="43.09275" lon="2.5565">
        <ele>211.63</ele>
        <time>2014-10-30T10:14:58Z</time>
      </trkpt>
      <trkpt lat="43.09279" lon="2.55647">
        <ele>211.63</ele>
        <time>2014-10-30T10:15:01Z</time>
      </trkpt>
      <trkpt lat="43.09281" lon="2.55647">
        <ele>212.59</ele>
        <time>2014-10-30T10:15:04Z</time>
      </trkpt>
      <trkpt lat="43.09284" lon="2.55646">
        <ele>212.59</ele>
        <time>2014-10-30T10:15:07Z</time>
      </trkpt>
      <trkpt lat="43.09286" lon="2.55644">
        <ele>212.59</ele>
        <time>2014-10-30T10:15:09Z</time>
      </trkpt>
      <trkpt lat="43.09292" lon="2.55642">
        <ele>213.07</ele>
        <time>2014-10-30T10:15:14Z</time>
      </trkpt>
      <trkpt lat="43.09295" lon="2.5564">
        <ele>213.07</ele>
        <time>2014-10-30T10:15:17Z</time>
      </trkpt>
      <trkpt lat="43.09307" lon="2.55636">
        <ele>214.51</ele>
        <time>2014-10-30T10:15:28Z</time>
      </trkpt>
      <trkpt lat="43.09311" lon="2.55633">
        <ele>214.51</ele>
        <time>2014-10-30T10:15:32Z</time>
      </trkpt>
      <trkpt lat="43.09313" lon="2.55631">
        <ele>214.51</ele>
        <time>2014-10-30T10:15:34Z</time>
      </trkpt>
      <trkpt lat="43.09324" lon="2.55626">
        <ele>214.99</ele>
        <time>2014-10-30T10:15:43Z</time>
      </trkpt>
      <trkpt lat="43.09325" lon="2.55626">
        <ele>215.47</ele>
        <time>2014-10-30T10:15:44Z</time>
      </trkpt>
      <trkpt lat="43.09327" lon="2.55623">
        <ele>215.47</ele>
        <time>2014-10-30T10:15:47Z</time>
      </trkpt>
      <trkpt lat="43.09335" lon="2.55619">
        <ele>215.95</ele>
        <time>2014-10-30T10:15:55Z</time>
      </trkpt>
      <trkpt lat="43.0934" lon="2.55615">
        <ele>216.43</ele>
        <time>2014-10-30T10:16:00Z</time>
      </trkpt>
      <trkpt lat="43.09343" lon="2.55613">
        <ele>216.43</ele>
        <time>2014-10-30T10:16:03Z</time>
      </trkpt>
      <trkpt lat="43.09346" lon="2.5561">
        <ele>215.95</ele>
        <time>2014-10-30T10:16:07Z</time>
      </trkpt>
      <trkpt lat="43.09352" lon="2.55607">
        <ele>216.43</ele>
        <time>2014-10-30T10:16:12Z</time>
      </trkpt>
      <trkpt lat="43.09357" lon="2.55604">
        <ele>216.43</ele>
        <time>2014-10-30T10:16:16Z</time>
      </trkpt>
      <trkpt lat="43.09361" lon="2.55601">
        <ele>216.43</ele>
        <time>2014-10-30T10:16:20Z</time>
      </trkpt>
      <trkpt lat="43.09365" lon="2.55597">
        <ele>216.43</ele>
        <time>2014-10-30T10:16:24Z</time>
      </trkpt>
      <trkpt lat="43.09377" lon="2.55591">
        <ele>216.43</ele>
        <time>2014-10-30T10:16:35Z</time>
      </trkpt>
      <trkpt lat="43.09381" lon="2.55589">
        <ele>216.91</ele>
        <time>2014-10-30T10:16:39Z</time>
      </trkpt>
      <trkpt lat="43.09386" lon="2.55585">
        <ele>216.43</ele>
        <time>2014-10-30T10:16:43Z</time>
      </trkpt>
      <trkpt lat="43.09391" lon="2.55581">
        <ele>216.91</ele>
        <time>2014-10-30T10:16:47Z</time>
      </trkpt>
      <trkpt lat="43.09404" lon="2.55572">
        <ele>217.4</ele>
        <time>2014-10-30T10:16:58Z</time>
      </trkpt>
      <trkpt lat="43.09414" lon="2.55568">
        <ele>217.88</ele>
        <time>2014-10-30T10:17:07Z</time>
      </trkpt>
      <trkpt lat="43.0942" lon="2.55566">
        <ele>217.88</ele>
        <time>2014-10-30T10:17:13Z</time>
      </trkpt>
      <trkpt lat="43.09424" lon="2.55565">
        <ele>217.88</ele>
        <time>2014-10-30T10:17:16Z</time>
      </trkpt>
      <trkpt lat="43.09428" lon="2.55565">
        <ele>218.36</ele>
        <time>2014-10-30T10:17:20Z</time>
      </trkpt>
      <trkpt lat="43.09433" lon="2.55561">
        <ele>217.88</ele>
        <time>2014-10-30T10:17:24Z</time>
      </trkpt>
      <trkpt lat="43.09435" lon="2.5556">
        <ele>218.36</ele>
        <time>2014-10-30T10:17:26Z</time>
      </trkpt>
      <trkpt lat="43.09438" lon="2.55558">
        <ele>218.36</ele>
        <time>2014-10-30T10:17:29Z</time>
      </trkpt>
      <trkpt lat="43.09444" lon="2.55556">
        <ele>218.36</ele>
        <time>2014-10-30T10:17:33Z</time>
      </trkpt>
      <trkpt lat="43.09457" lon="2.5555">
        <ele>218.84</ele>
        <time>2014-10-30T10:17:43Z</time>
      </trkpt>
      <trkpt lat="43.0946" lon="2.55549">
        <ele>218.36</ele>
        <time>2014-10-30T10:17:45Z</time>
      </trkpt>
      <trkpt lat="43.09468" lon="2.55545">
        <ele>218.84</ele>
        <time>2014-10-30T10:17:52Z</time>
      </trkpt>
      <trkpt lat="43.0947" lon="2.55544">
        <ele>219.32</ele>
        <time>2014-10-30T10:17:54Z</time>
      </trkpt>
      <trkpt lat="43.09479" lon="2.55536">
        <ele>220.76</ele>
        <time>2014-10-30T10:18:04Z</time>
      </trkpt>
      <trkpt lat="43.09481" lon="2.55536">
        <ele>220.76</ele>
        <time>2014-10-30T10:18:05Z</time>
      </trkpt>
      <trkpt lat="43.09483" lon="2.55535">
        <ele>221.72</ele>
        <time>2014-10-30T10:18:08Z</time>
      </trkpt>
      <trkpt lat="43.09487" lon="2.55534">
        <ele>222.2</ele>
        <time>2014-10-30T10:18:11Z</time>
      </trkpt>
      <trkpt lat="43.09491" lon="2.55533">
        <ele>222.2</ele>
        <time>2014-10-30T10:18:15Z</time>
      </trkpt>
      <trkpt lat="43.09495" lon="2.55532">
        <ele>222.2</ele>
        <time>2014-10-30T10:18:18Z</time>
      </trkpt>
      <trkpt lat="43.09498" lon="2.55532">
        <ele>222.2</ele>
        <time>2014-10-30T10:18:22Z</time>
      </trkpt>
      <trkpt lat="43.09503" lon="2.55536">
        <ele>221.72</ele>
        <time>2014-10-30T10:18:35Z</time>
      </trkpt>
      <trkpt lat="43.09504" lon="2.55536">
        <ele>222.2</ele>
        <time>2014-10-30T10:18:38Z</time>
      </trkpt>
      <trkpt lat="43.09507" lon="2.55538">
        <ele>221.24</ele>
        <time>2014-10-30T10:18:41Z</time>
      </trkpt>
      <trkpt lat="43.09512" lon="2.55541">
        <ele>221.24</ele>
        <time>2014-10-30T10:18:46Z</time>
      </trkpt>
      <trkpt lat="43.09519" lon="2.55542">
        <ele>221.72</ele>
        <time>2014-10-30T10:18:59Z</time>
      </trkpt>
      <trkpt lat="43.09519" lon="2.55541">
        <ele>221.24</ele>
        <time>2014-10-30T10:19:19Z</time>
      </trkpt>
      <trkpt lat="43.09521" lon="2.55542">
        <ele>221.24</ele>
        <time>2014-10-30T10:19:42Z</time>
      </trkpt>
      <trkpt lat="43.09521" lon="2.55541">
        <ele>220.76</ele>
        <time>2014-10-30T10:19:58Z</time>
      </trkpt>
      <trkpt lat="43.09522" lon="2.55541">
        <ele>220.76</ele>
        <time>2014-10-30T10:20:16Z</time>
      </trkpt>
      <trkpt lat="43.09524" lon="2.55541">
        <ele>220.76</ele>
        <time>2014-10-30T10:20:27Z</time>
      </trkpt>
      <trkpt lat="43.09525" lon="2.55541">
        <ele>220.76</ele>
        <time>2014-10-30T10:20:50Z</time>
      </trkpt>
      <trkpt lat="43.09525" lon="2.55542">
        <ele>220.28</ele>
        <time>2014-10-30T10:21:08Z</time>
      </trkpt>
      <trkpt lat="43.09523" lon="2.55543">
        <ele>220.28</ele>
        <time>2014-10-30T10:21:11Z</time>
      </trkpt>
      <trkpt lat="43.09517" lon="2.55544">
        <ele>220.76</ele>
        <time>2014-10-30T10:21:17Z</time>
      </trkpt>
      <trkpt lat="43.09511" lon="2.5554">
        <ele>221.24</ele>
        <time>2014-10-30T10:21:23Z</time>
      </trkpt>
      <trkpt lat="43.09508" lon="2.55537">
        <ele>221.72</ele>
        <time>2014-10-30T10:21:27Z</time>
      </trkpt>
      <trkpt lat="43.09505" lon="2.55537">
        <ele>221.24</ele>
        <time>2014-10-30T10:21:29Z</time>
      </trkpt>
      <trkpt lat="43.09496" lon="2.55538">
        <ele>220.76</ele>
        <time>2014-10-30T10:21:40Z</time>
      </trkpt>
      <trkpt lat="43.09492" lon="2.55538">
        <ele>220.76</ele>
        <time>2014-10-30T10:21:43Z</time>
      </trkpt>
      <trkpt lat="43.0949" lon="2.55539">
        <ele>220.28</ele>
        <time>2014-10-30T10:21:45Z</time>
      </trkpt>
      <trkpt lat="43.09485" lon="2.55541">
        <ele>219.8</ele>
        <time>2014-10-30T10:21:49Z</time>
      </trkpt>
      <trkpt lat="43.09477" lon="2.55546">
        <ele>217.88</ele>
        <time>2014-10-30T10:21:59Z</time>
      </trkpt>
      <trkpt lat="43.0947" lon="2.55549">
        <ele>217.4</ele>
        <time>2014-10-30T10:22:05Z</time>
      </trkpt>
      <trkpt lat="43.09466" lon="2.5555">
        <ele>216.91</ele>
        <time>2014-10-30T10:22:08Z</time>
      </trkpt>
      <trkpt lat="43.09459" lon="2.55553">
        <ele>216.91</ele>
        <time>2014-10-30T10:22:14Z</time>
      </trkpt>
      <trkpt lat="43.09452" lon="2.55554">
        <ele>216.43</ele>
        <time>2014-10-30T10:22:19Z</time>
      </trkpt>
      <trkpt lat="43.09449" lon="2.55555">
        <ele>216.43</ele>
        <time>2014-10-30T10:22:22Z</time>
      </trkpt>
      <trkpt lat="43.09444" lon="2.55556">
        <ele>216.43</ele>
        <time>2014-10-30T10:22:26Z</time>
      </trkpt>
      <trkpt lat="43.09439" lon="2.5556">
        <ele>215.95</ele>
        <time>2014-10-30T10:22:30Z</time>
      </trkpt>
      <trkpt lat="43.09428" lon="2.55565">
        <ele>215.95</ele>
        <time>2014-10-30T10:22:39Z</time>
      </trkpt>
      <trkpt lat="43.09425" lon="2.55567">
        <ele>215.95</ele>
        <time>2014-10-30T10:22:43Z</time>
      </trkpt>
      <trkpt lat="43.09409" lon="2.55575">
        <ele>215.47</ele>
        <time>2014-10-30T10:22:55Z</time>
      </trkpt>
      <trkpt lat="43.09408" lon="2.55576">
        <ele>215.47</ele>
        <time>2014-10-30T10:22:57Z</time>
      </trkpt>
      <trkpt lat="43.09401" lon="2.55582">
        <ele>214.99</ele>
        <time>2014-10-30T10:23:03Z</time>
      </trkpt>
      <trkpt lat="43.09395" lon="2.55584">
        <ele>214.03</ele>
        <time>2014-10-30T10:23:08Z</time>
      </trkpt>
      <trkpt lat="43.0939" lon="2.55586">
        <ele>214.51</ele>
        <time>2014-10-30T10:23:13Z</time>
      </trkpt>
      <trkpt lat="43.09381" lon="2.55591">
        <ele>214.99</ele>
        <time>2014-10-30T10:23:22Z</time>
      </trkpt>
      <trkpt lat="43.09376" lon="2.55597">
        <ele>214.99</ele>
        <time>2014-10-30T10:23:32Z</time>
      </trkpt>
      <trkpt lat="43.09371" lon="2.55601">
        <ele>215.47</ele>
        <time>2014-10-30T10:23:36Z</time>
      </trkpt>
      <trkpt lat="43.09369" lon="2.55602">
        <ele>214.99</ele>
        <time>2014-10-30T10:23:38Z</time>
      </trkpt>
      <trkpt lat="43.09363" lon="2.55608">
        <ele>214.99</ele>
        <time>2014-10-30T10:23:43Z</time>
      </trkpt>
      <trkpt lat="43.09346" lon="2.55613">
        <ele>214.03</ele>
        <time>2014-10-30T10:23:49Z</time>
      </trkpt>
      <trkpt lat="43.09338" lon="2.55618">
        <ele>214.03</ele>
        <time>2014-10-30T10:23:55Z</time>
      </trkpt>
      <trkpt lat="43.09331" lon="2.55621">
        <ele>213.55</ele>
        <time>2014-10-30T10:24:01Z</time>
      </trkpt>
      <trkpt lat="43.09327" lon="2.55627">
        <ele>213.07</ele>
        <time>2014-10-30T10:24:05Z</time>
      </trkpt>
      <trkpt lat="43.09324" lon="2.55628">
        <ele>213.07</ele>
        <time>2014-10-30T10:24:08Z</time>
      </trkpt>
      <trkpt lat="43.0932" lon="2.55629">
        <ele>213.07</ele>
        <time>2014-10-30T10:24:12Z</time>
      </trkpt>
      <trkpt lat="43.09316" lon="2.55631">
        <ele>213.07</ele>
        <time>2014-10-30T10:24:15Z</time>
      </trkpt>
      <trkpt lat="43.09307" lon="2.55635">
        <ele>211.63</ele>
        <time>2014-10-30T10:24:23Z</time>
      </trkpt>
      <trkpt lat="43.09303" lon="2.55636">
        <ele>211.63</ele>
        <time>2014-10-30T10:24:28Z</time>
      </trkpt>
      <trkpt lat="43.093" lon="2.55636">
        <ele>211.15</ele>
        <time>2014-10-30T10:24:30Z</time>
      </trkpt>
      <trkpt lat="43.09297" lon="2.55637">
        <ele>210.19</ele>
        <time>2014-10-30T10:24:32Z</time>
      </trkpt>
      <trkpt lat="43.09296" lon="2.55638">
        <ele>210.19</ele>
        <time>2014-10-30T10:24:33Z</time>
      </trkpt>
      <trkpt lat="43.09289" lon="2.55643">
        <ele>209.7</ele>
        <time>2014-10-30T10:24:39Z</time>
      </trkpt>
      <trkpt lat="43.09284" lon="2.55644">
        <ele>209.7</ele>
        <time>2014-10-30T10:24:44Z</time>
      </trkpt>
      <trkpt lat="43.0928" lon="2.55647">
        <ele>209.7</ele>
        <time>2014-10-30T10:24:47Z</time>
      </trkpt>
      <trkpt lat="43.09268" lon="2.55652">
        <ele>209.22</ele>
        <time>2014-10-30T10:24:58Z</time>
      </trkpt>
      <trkpt lat="43.09256" lon="2.55656">
        <ele>209.7</ele>
        <time>2014-10-30T10:25:08Z</time>
      </trkpt>
      <trkpt lat="43.09252" lon="2.55659">
        <ele>209.22</ele>
        <time>2014-10-30T10:25:12Z</time>
      </trkpt>
      <trkpt lat="43.09236" lon="2.55664">
        <ele>209.7</ele>
        <time>2014-10-30T10:25:23Z</time>
      </trkpt>
      <trkpt lat="43.09223" lon="2.55669">
        <ele>209.7</ele>
        <time>2014-10-30T10:25:33Z</time>
      </trkpt>
      <trkpt lat="43.09215" lon="2.55669">
        <ele>210.67</ele>
        <time>2014-10-30T10:25:41Z</time>
      </trkpt>
      <trkpt lat="43.09209" lon="2.55669">
        <ele>211.15</ele>
        <time>2014-10-30T10:25:46Z</time>
      </trkpt>
      <trkpt lat="43.092" lon="2.5567">
        <ele>212.11</ele>
        <time>2014-10-30T10:25:54Z</time>
      </trkpt>
      <trkpt lat="43.09194" lon="2.5567">
        <ele>213.07</ele>
        <time>2014-10-30T10:26:00Z</time>
      </trkpt>
      <trkpt lat="43.09191" lon="2.55668">
        <ele>214.03</ele>
        <time>2014-10-30T10:26:04Z</time>
      </trkpt>
      <trkpt lat="43.09187" lon="2.55666">
        <ele>214.51</ele>
        <time>2014-10-30T10:26:07Z</time>
      </trkpt>
      <trkpt lat="43.09178" lon="2.5566">
        <ele>214.51</ele>
        <time>2014-10-30T10:26:16Z</time>
      </trkpt>
      <trkpt lat="43.09177" lon="2.55657">
        <ele>214.51</ele>
        <time>2014-10-30T10:26:19Z</time>
      </trkpt>
      <trkpt lat="43.09173" lon="2.55653">
        <ele>213.07</ele>
        <time>2014-10-30T10:26:24Z</time>
      </trkpt>
      <trkpt lat="43.09169" lon="2.55652">
        <ele>212.59</ele>
        <time>2014-10-30T10:26:27Z</time>
      </trkpt>
      <trkpt lat="43.09159" lon="2.55648">
        <ele>211.15</ele>
        <time>2014-10-30T10:26:35Z</time>
      </trkpt>
      <trkpt lat="43.09157" lon="2.55643">
        <ele>209.7</ele>
        <time>2014-10-30T10:26:39Z</time>
      </trkpt>
      <trkpt lat="43.09155" lon="2.55641">
        <ele>209.7</ele>
        <time>2014-10-30T10:26:41Z</time>
      </trkpt>
      <trkpt lat="43.09144" lon="2.55637">
        <ele>209.7</ele>
        <time>2014-10-30T10:26:49Z</time>
      </trkpt>
      <trkpt lat="43.09136" lon="2.55639">
        <ele>210.19</ele>
        <time>2014-10-30T10:26:54Z</time>
      </trkpt>
      <trkpt lat="43.09133" lon="2.55639">
        <ele>210.19</ele>
        <time>2014-10-30T10:26:56Z</time>
      </trkpt>
      <trkpt lat="43.09127" lon="2.55641">
        <ele>210.67</ele>
        <time>2014-10-30T10:27:01Z</time>
      </trkpt>
      <trkpt lat="43.09126" lon="2.55643">
        <ele>211.63</ele>
        <time>2014-10-30T10:27:03Z</time>
      </trkpt>
      <trkpt lat="43.09126" lon="2.55645">
        <ele>211.15</ele>
        <time>2014-10-30T10:27:05Z</time>
      </trkpt>
      <trkpt lat="43.09126" lon="2.55653">
        <ele>211.15</ele>
        <time>2014-10-30T10:27:12Z</time>
      </trkpt>
      <trkpt lat="43.09126" lon="2.55658">
        <ele>210.67</ele>
        <time>2014-10-30T10:27:16Z</time>
      </trkpt>
      <trkpt lat="43.09123" lon="2.55667">
        <ele>209.22</ele>
        <time>2014-10-30T10:27:23Z</time>
      </trkpt>
      <trkpt lat="43.09123" lon="2.5567">
        <ele>208.26</ele>
        <time>2014-10-30T10:27:26Z</time>
      </trkpt>
      <trkpt lat="43.09122" lon="2.55674">
        <ele>207.78</ele>
        <time>2014-10-30T10:27:28Z</time>
      </trkpt>
      <trkpt lat="43.0912" lon="2.55692">
        <ele>205.38</ele>
        <time>2014-10-30T10:27:39Z</time>
      </trkpt>
      <trkpt lat="43.09118" lon="2.55701">
        <ele>205.38</ele>
        <time>2014-10-30T10:27:45Z</time>
      </trkpt>
      <trkpt lat="43.09116" lon="2.55704">
        <ele>204.9</ele>
        <time>2014-10-30T10:27:48Z</time>
      </trkpt>
      <trkpt lat="43.09113" lon="2.55706">
        <ele>203.46</ele>
        <time>2014-10-30T10:27:52Z</time>
      </trkpt>
      <trkpt lat="43.09112" lon="2.55716">
        <ele>201.53</ele>
        <time>2014-10-30T10:28:00Z</time>
      </trkpt>
      <trkpt lat="43.09113" lon="2.55717">
        <ele>201.05</ele>
        <time>2014-10-30T10:28:02Z</time>
      </trkpt>
      <trkpt lat="43.09107" lon="2.55719">
        <ele>198.17</ele>
        <time>2014-10-30T10:28:11Z</time>
      </trkpt>
      <trkpt lat="43.09104" lon="2.5572">
        <ele>196.73</ele>
        <time>2014-10-30T10:28:14Z</time>
      </trkpt>
      <trkpt lat="43.09099" lon="2.55726">
        <ele>195.77</ele>
        <time>2014-10-30T10:28:21Z</time>
      </trkpt>
      <trkpt lat="43.09096" lon="2.5573">
        <ele>194.32</ele>
        <time>2014-10-30T10:28:24Z</time>
      </trkpt>
      <trkpt lat="43.09092" lon="2.55738">
        <ele>192.4</ele>
        <time>2014-10-30T10:28:29Z</time>
      </trkpt>
      <trkpt lat="43.09091" lon="2.55748">
        <ele>190.48</ele>
        <time>2014-10-30T10:28:39Z</time>
      </trkpt>
      <trkpt lat="43.0909" lon="2.5575">
        <ele>190</ele>
        <time>2014-10-30T10:28:42Z</time>
      </trkpt>
      <trkpt lat="43.0909" lon="2.55754">
        <ele>189.52</ele>
        <time>2014-10-30T10:28:45Z</time>
      </trkpt>
      <trkpt lat="43.0909" lon="2.55758">
        <ele>188.56</ele>
        <time>2014-10-30T10:28:48Z</time>
      </trkpt>
      <trkpt lat="43.0909" lon="2.55762">
        <ele>187.59</ele>
        <time>2014-10-30T10:28:51Z</time>
      </trkpt>
      <trkpt lat="43.09091" lon="2.55765">
        <ele>187.11</ele>
        <time>2014-10-30T10:28:54Z</time>
      </trkpt>
      <trkpt lat="43.09093" lon="2.55769">
        <ele>185.67</ele>
        <time>2014-10-30T10:28:57Z</time>
      </trkpt>
      <trkpt lat="43.09097" lon="2.55781">
        <ele>184.71</ele>
        <time>2014-10-30T10:29:07Z</time>
      </trkpt>
      <trkpt lat="43.09096" lon="2.55792">
        <ele>182.31</ele>
        <time>2014-10-30T10:29:16Z</time>
      </trkpt>
      <trkpt lat="43.09096" lon="2.55793">
        <ele>181.83</ele>
        <time>2014-10-30T10:29:17Z</time>
      </trkpt>
      <trkpt lat="43.09094" lon="2.55796">
        <ele>180.87</ele>
        <time>2014-10-30T10:29:22Z</time>
      </trkpt>
      <trkpt lat="43.0909" lon="2.55805">
        <ele>178.46</ele>
        <time>2014-10-30T10:29:29Z</time>
      </trkpt>
      <trkpt lat="43.0909" lon="2.55812">
        <ele>176.54</ele>
        <time>2014-10-30T10:29:35Z</time>
      </trkpt>
      <trkpt lat="43.09091" lon="2.55815">
        <ele>176.54</ele>
        <time>2014-10-30T10:29:37Z</time>
      </trkpt>
      <trkpt lat="43.09092" lon="2.55825">
        <ele>175.1</ele>
        <time>2014-10-30T10:29:45Z</time>
      </trkpt>
      <trkpt lat="43.09094" lon="2.55826">
        <ele>175.1</ele>
        <time>2014-10-30T10:29:47Z</time>
      </trkpt>
      <trkpt lat="43.09101" lon="2.55837">
        <ele>174.14</ele>
        <time>2014-10-30T10:29:55Z</time>
      </trkpt>
      <trkpt lat="43.09104" lon="2.5584">
        <ele>173.66</ele>
        <time>2014-10-30T10:29:59Z</time>
      </trkpt>
      <trkpt lat="43.09106" lon="2.55844">
        <ele>173.66</ele>
        <time>2014-10-30T10:30:03Z</time>
      </trkpt>
      <trkpt lat="43.09111" lon="2.55854">
        <ele>172.69</ele>
        <time>2014-10-30T10:30:16Z</time>
      </trkpt>
      <trkpt lat="43.09112" lon="2.55857">
        <ele>173.17</ele>
        <time>2014-10-30T10:30:30Z</time>
      </trkpt>
      <trkpt lat="43.09112" lon="2.55858">
        <ele>173.17</ele>
        <time>2014-10-30T10:30:45Z</time>
      </trkpt>
      <trkpt lat="43.09111" lon="2.55857">
        <ele>173.17</ele>
        <time>2014-10-30T10:30:53Z</time>
      </trkpt>
      <trkpt lat="43.09112" lon="2.55862">
        <ele>173.17</ele>
        <time>2014-10-30T10:31:04Z</time>
      </trkpt>
      <trkpt lat="43.09113" lon="2.55863">
        <ele>173.17</ele>
        <time>2014-10-30T10:31:17Z</time>
      </trkpt>
      <trkpt lat="43.09113" lon="2.55862">
        <ele>173.66</ele>
        <time>2014-10-30T10:31:34Z</time>
      </trkpt>
      <trkpt lat="43.09114" lon="2.55862">
        <ele>173.17</ele>
        <time>2014-10-30T10:31:44Z</time>
      </trkpt>
      <trkpt lat="43.09114" lon="2.55863">
        <ele>173.17</ele>
        <time>2014-10-30T10:31:54Z</time>
      </trkpt>
      <trkpt lat="43.09113" lon="2.55872">
        <ele>172.69</ele>
        <time>2014-10-30T10:32:11Z</time>
      </trkpt>
      <trkpt lat="43.09116" lon="2.55878">
        <ele>172.69</ele>
        <time>2014-10-30T10:32:25Z</time>
      </trkpt>
      <trkpt lat="43.09117" lon="2.55884">
        <ele>172.69</ele>
        <time>2014-10-30T10:32:31Z</time>
      </trkpt>
      <trkpt lat="43.09118" lon="2.55894">
        <ele>172.69</ele>
        <time>2014-10-30T10:32:39Z</time>
      </trkpt>
      <trkpt lat="43.09117" lon="2.55913">
        <ele>173.66</ele>
        <time>2014-10-30T10:32:54Z</time>
      </trkpt>
      <trkpt lat="43.09118" lon="2.55915">
        <ele>172.69</ele>
        <time>2014-10-30T10:32:56Z</time>
      </trkpt>
      <trkpt lat="43.09116" lon="2.55933">
        <ele>173.17</ele>
        <time>2014-10-30T10:33:09Z</time>
      </trkpt>
      <trkpt lat="43.09116" lon="2.55944">
        <ele>173.17</ele>
        <time>2014-10-30T10:33:15Z</time>
      </trkpt>
      <trkpt lat="43.09117" lon="2.55958">
        <ele>173.17</ele>
        <time>2014-10-30T10:33:23Z</time>
      </trkpt>
      <trkpt lat="43.09118" lon="2.55966">
        <ele>173.17</ele>
        <time>2014-10-30T10:33:29Z</time>
      </trkpt>
      <trkpt lat="43.09118" lon="2.55973">
        <ele>173.17</ele>
        <time>2014-10-30T10:33:33Z</time>
      </trkpt>
      <trkpt lat="43.09118" lon="2.55988">
        <ele>173.17</ele>
        <time>2014-10-30T10:33:45Z</time>
      </trkpt>
      <trkpt lat="43.09121" lon="2.56009">
        <ele>172.69</ele>
        <time>2014-10-30T10:33:58Z</time>
      </trkpt>
      <trkpt lat="43.09124" lon="2.56024">
        <ele>172.69</ele>
        <time>2014-10-30T10:34:07Z</time>
      </trkpt>
      <trkpt lat="43.09125" lon="2.56036">
        <ele>172.69</ele>
        <time>2014-10-30T10:34:13Z</time>
      </trkpt>
      <trkpt lat="43.09127" lon="2.5604">
        <ele>173.17</ele>
        <time>2014-10-30T10:34:17Z</time>
      </trkpt>
      <trkpt lat="43.09132" lon="2.56069">
        <ele>172.69</ele>
        <time>2014-10-30T10:34:33Z</time>
      </trkpt>
      <trkpt lat="43.09132" lon="2.56071">
        <ele>172.21</ele>
        <time>2014-10-30T10:34:34Z</time>
      </trkpt>
      <trkpt lat="43.09134" lon="2.56092">
        <ele>172.21</ele>
        <time>2014-10-30T10:34:46Z</time>
      </trkpt>
      <trkpt lat="43.09134" lon="2.561">
        <ele>172.21</ele>
        <time>2014-10-30T10:34:51Z</time>
      </trkpt>
      <trkpt lat="43.09133" lon="2.56108">
        <ele>172.21</ele>
        <time>2014-10-30T10:34:56Z</time>
      </trkpt>
      <trkpt lat="43.09134" lon="2.56122">
        <ele>171.25</ele>
        <time>2014-10-30T10:35:04Z</time>
      </trkpt>
      <trkpt lat="43.09132" lon="2.56128">
        <ele>171.73</ele>
        <time>2014-10-30T10:35:08Z</time>
      </trkpt>
      <trkpt lat="43.09131" lon="2.56136">
        <ele>171.73</ele>
        <time>2014-10-30T10:35:12Z</time>
      </trkpt>
      <trkpt lat="43.09131" lon="2.56149">
        <ele>171.25</ele>
        <time>2014-10-30T10:35:20Z</time>
      </trkpt>
      <trkpt lat="43.09127" lon="2.56165">
        <ele>171.25</ele>
        <time>2014-10-30T10:35:30Z</time>
      </trkpt>
      <trkpt lat="43.09127" lon="2.56181">
        <ele>171.25</ele>
        <time>2014-10-30T10:35:40Z</time>
      </trkpt>
      <trkpt lat="43.09123" lon="2.56199">
        <ele>171.25</ele>
        <time>2014-10-30T10:35:52Z</time>
      </trkpt>
      <trkpt lat="43.09123" lon="2.56204">
        <ele>170.77</ele>
        <time>2014-10-30T10:35:56Z</time>
      </trkpt>
      <trkpt lat="43.09121" lon="2.56225">
        <ele>170.29</ele>
        <time>2014-10-30T10:36:07Z</time>
      </trkpt>
      <trkpt lat="43.09121" lon="2.56236">
        <ele>170.77</ele>
        <time>2014-10-30T10:36:13Z</time>
      </trkpt>
      <trkpt lat="43.0912" lon="2.56251">
        <ele>170.77</ele>
        <time>2014-10-30T10:36:22Z</time>
      </trkpt>
      <trkpt lat="43.0912" lon="2.56254">
        <ele>170.77</ele>
        <time>2014-10-30T10:36:24Z</time>
      </trkpt>
      <trkpt lat="43.09119" lon="2.56262">
        <ele>170.29</ele>
        <time>2014-10-30T10:36:29Z</time>
      </trkpt>
      <trkpt lat="43.09116" lon="2.56268">
        <ele>170.77</ele>
        <time>2014-10-30T10:36:34Z</time>
      </trkpt>
      <trkpt lat="43.09112" lon="2.56288">
        <ele>170.77</ele>
        <time>2014-10-30T10:36:47Z</time>
      </trkpt>
      <trkpt lat="43.09112" lon="2.56302">
        <ele>171.25</ele>
        <time>2014-10-30T10:36:56Z</time>
      </trkpt>
      <trkpt lat="43.0911" lon="2.5631">
        <ele>170.29</ele>
        <time>2014-10-30T10:37:01Z</time>
      </trkpt>
      <trkpt lat="43.09109" lon="2.56322">
        <ele>169.81</ele>
        <time>2014-10-30T10:37:08Z</time>
      </trkpt>
      <trkpt lat="43.09105" lon="2.56345">
        <ele>169.81</ele>
        <time>2014-10-30T10:37:20Z</time>
      </trkpt>
      <trkpt lat="43.09101" lon="2.56357">
        <ele>170.29</ele>
        <time>2014-10-30T10:37:27Z</time>
      </trkpt>
      <trkpt lat="43.09098" lon="2.56369">
        <ele>170.29</ele>
        <time>2014-10-30T10:37:35Z</time>
      </trkpt>
      <trkpt lat="43.09094" lon="2.56379">
        <ele>169.33</ele>
        <time>2014-10-30T10:37:42Z</time>
      </trkpt>
      <trkpt lat="43.09093" lon="2.56391">
        <ele>168.85</ele>
        <time>2014-10-30T10:37:49Z</time>
      </trkpt>
      <trkpt lat="43.09092" lon="2.56401">
        <ele>169.33</ele>
        <time>2014-10-30T10:37:55Z</time>
      </trkpt>
      <trkpt lat="43.09086" lon="2.56418">
        <ele>169.33</ele>
        <time>2014-10-30T10:38:06Z</time>
      </trkpt>
      <trkpt lat="43.09084" lon="2.56426">
        <ele>169.33</ele>
        <time>2014-10-30T10:38:11Z</time>
      </trkpt>
      <trkpt lat="43.09083" lon="2.56432">
        <ele>168.85</ele>
        <time>2014-10-30T10:38:15Z</time>
      </trkpt>
      <trkpt lat="43.09077" lon="2.56456">
        <ele>168.85</ele>
        <time>2014-10-30T10:38:30Z</time>
      </trkpt>
      <trkpt lat="43.09077" lon="2.56458">
        <ele>169.33</ele>
        <time>2014-10-30T10:38:31Z</time>
      </trkpt>
      <trkpt lat="43.09073" lon="2.56474">
        <ele>168.85</ele>
        <time>2014-10-30T10:38:40Z</time>
      </trkpt>
      <trkpt lat="43.09069" lon="2.56502">
        <ele>168.85</ele>
        <time>2014-10-30T10:38:55Z</time>
      </trkpt>
      <trkpt lat="43.09068" lon="2.56504">
        <ele>168.37</ele>
        <time>2014-10-30T10:38:56Z</time>
      </trkpt>
      <trkpt lat="43.09067" lon="2.56511">
        <ele>168.85</ele>
        <time>2014-10-30T10:39:01Z</time>
      </trkpt>
      <trkpt lat="43.09062" lon="2.56534">
        <ele>167.89</ele>
        <time>2014-10-30T10:39:15Z</time>
      </trkpt>
      <trkpt lat="43.09056" lon="2.56558">
        <ele>167.89</ele>
        <time>2014-10-30T10:39:29Z</time>
      </trkpt>
      <trkpt lat="43.0905" lon="2.56584">
        <ele>167.41</ele>
        <time>2014-10-30T10:39:45Z</time>
      </trkpt>
      <trkpt lat="43.09048" lon="2.56596">
        <ele>167.41</ele>
        <time>2014-10-30T10:39:52Z</time>
      </trkpt>
      <trkpt lat="43.09044" lon="2.56608">
        <ele>167.89</ele>
        <time>2014-10-30T10:40:00Z</time>
      </trkpt>
      <trkpt lat="43.09043" lon="2.56611">
        <ele>166.93</ele>
        <time>2014-10-30T10:40:02Z</time>
      </trkpt>
      <trkpt lat="43.0904" lon="2.5663">
        <ele>167.41</ele>
        <time>2014-10-30T10:40:13Z</time>
      </trkpt>
      <trkpt lat="43.09038" lon="2.56637">
        <ele>167.41</ele>
        <time>2014-10-30T10:40:17Z</time>
      </trkpt>
      <trkpt lat="43.09034" lon="2.56655">
        <ele>166.93</ele>
        <time>2014-10-30T10:40:29Z</time>
      </trkpt>
      <trkpt lat="43.09029" lon="2.5667">
        <ele>166.93</ele>
        <time>2014-10-30T10:40:39Z</time>
      </trkpt>
      <trkpt lat="43.09027" lon="2.56676">
        <ele>166.45</ele>
        <time>2014-10-30T10:40:43Z</time>
      </trkpt>
      <trkpt lat="43.09022" lon="2.56688">
        <ele>166.93</ele>
        <time>2014-10-30T10:40:53Z</time>
      </trkpt>
      <trkpt lat="43.09019" lon="2.56695">
        <ele>167.41</ele>
        <time>2014-10-30T10:40:58Z</time>
      </trkpt>
      <trkpt lat="43.09016" lon="2.56702">
        <ele>166.45</ele>
        <time>2014-10-30T10:41:03Z</time>
      </trkpt>
      <trkpt lat="43.09013" lon="2.56725">
        <ele>166.45</ele>
        <time>2014-10-30T10:41:16Z</time>
      </trkpt>
      <trkpt lat="43.09008" lon="2.56741">
        <ele>165.96</ele>
        <time>2014-10-30T10:41:25Z</time>
      </trkpt>
      <trkpt lat="43.09002" lon="2.56757">
        <ele>165.96</ele>
        <time>2014-10-30T10:41:36Z</time>
      </trkpt>
      <trkpt lat="43.08998" lon="2.56771">
        <ele>166.45</ele>
        <time>2014-10-30T10:41:45Z</time>
      </trkpt>
      <trkpt lat="43.08995" lon="2.56777">
        <ele>165.96</ele>
        <time>2014-10-30T10:41:50Z</time>
      </trkpt>
      <trkpt lat="43.08988" lon="2.56799">
        <ele>165.96</ele>
        <time>2014-10-30T10:42:04Z</time>
      </trkpt>
      <trkpt lat="43.08982" lon="2.56831">
        <ele>165.48</ele>
        <time>2014-10-30T10:42:22Z</time>
      </trkpt>
      <trkpt lat="43.08978" lon="2.56856">
        <ele>165.96</ele>
        <time>2014-10-30T10:42:37Z</time>
      </trkpt>
      <trkpt lat="43.08977" lon="2.56863">
        <ele>165.48</ele>
        <time>2014-10-30T10:42:41Z</time>
      </trkpt>
      <trkpt lat="43.08975" lon="2.56877">
        <ele>165.48</ele>
        <time>2014-10-30T10:42:49Z</time>
      </trkpt>
      <trkpt lat="43.08972" lon="2.56894">
        <ele>165.48</ele>
        <time>2014-10-30T10:43:00Z</time>
      </trkpt>
      <trkpt lat="43.08969" lon="2.5691">
        <ele>165</ele>
        <time>2014-10-30T10:43:09Z</time>
      </trkpt>
      <trkpt lat="43.08969" lon="2.56917">
        <ele>164.52</ele>
        <time>2014-10-30T10:43:13Z</time>
      </trkpt>
      <trkpt lat="43.08965" lon="2.56935">
        <ele>165</ele>
        <time>2014-10-30T10:43:25Z</time>
      </trkpt>
      <trkpt lat="43.08964" lon="2.5694">
        <ele>164.52</ele>
        <time>2014-10-30T10:43:28Z</time>
      </trkpt>
      <trkpt lat="43.08964" lon="2.56958">
        <ele>164.52</ele>
        <time>2014-10-30T10:43:39Z</time>
      </trkpt>
      <trkpt lat="43.08962" lon="2.56977">
        <ele>164.52</ele>
        <time>2014-10-30T10:43:51Z</time>
      </trkpt>
      <trkpt lat="43.08961" lon="2.56983">
        <ele>164.52</ele>
        <time>2014-10-30T10:43:55Z</time>
      </trkpt>
      <trkpt lat="43.08958" lon="2.56991">
        <ele>164.52</ele>
        <time>2014-10-30T10:44:00Z</time>
      </trkpt>
      <trkpt lat="43.08953" lon="2.57019">
        <ele>164.04</ele>
        <time>2014-10-30T10:44:16Z</time>
      </trkpt>
      <trkpt lat="43.08953" lon="2.57028">
        <ele>164.52</ele>
        <time>2014-10-30T10:44:29Z</time>
      </trkpt>
      <trkpt lat="43.08953" lon="2.57034">
        <ele>164.04</ele>
        <time>2014-10-30T10:44:33Z</time>
      </trkpt>
      <trkpt lat="43.08951" lon="2.57041">
        <ele>164.04</ele>
        <time>2014-10-30T10:44:38Z</time>
      </trkpt>
      <trkpt lat="43.08951" lon="2.57047">
        <ele>164.04</ele>
        <time>2014-10-30T10:44:42Z</time>
      </trkpt>
      <trkpt lat="43.08942" lon="2.5706">
        <ele>163.56</ele>
        <time>2014-10-30T10:44:52Z</time>
      </trkpt>
      <trkpt lat="43.0894" lon="2.57064">
        <ele>163.56</ele>
        <time>2014-10-30T10:44:54Z</time>
      </trkpt>
      <trkpt lat="43.08938" lon="2.5707">
        <ele>164.04</ele>
        <time>2014-10-30T10:44:58Z</time>
      </trkpt>
      <trkpt lat="43.08938" lon="2.57074">
        <ele>164.04</ele>
        <time>2014-10-30T10:45:00Z</time>
      </trkpt>
      <trkpt lat="43.08936" lon="2.57081">
        <ele>164.04</ele>
        <time>2014-10-30T10:45:04Z</time>
      </trkpt>
      <trkpt lat="43.08922" lon="2.57099">
        <ele>163.56</ele>
        <time>2014-10-30T10:45:18Z</time>
      </trkpt>
      <trkpt lat="43.08921" lon="2.57106">
        <ele>163.08</ele>
        <time>2014-10-30T10:45:22Z</time>
      </trkpt>
      <trkpt lat="43.0892" lon="2.57109">
        <ele>163.56</ele>
        <time>2014-10-30T10:45:24Z</time>
      </trkpt>
      <trkpt lat="43.0892" lon="2.57129">
        <ele>163.56</ele>
        <time>2014-10-30T10:45:36Z</time>
      </trkpt>
      <trkpt lat="43.08921" lon="2.57136">
        <ele>163.08</ele>
        <time>2014-10-30T10:45:40Z</time>
      </trkpt>
      <trkpt lat="43.08922" lon="2.57143">
        <ele>163.56</ele>
        <time>2014-10-30T10:45:44Z</time>
      </trkpt>
      <trkpt lat="43.08926" lon="2.57164">
        <ele>163.08</ele>
        <time>2014-10-30T10:45:56Z</time>
      </trkpt>
      <trkpt lat="43.08929" lon="2.57183">
        <ele>162.6</ele>
        <time>2014-10-30T10:46:09Z</time>
      </trkpt>
      <trkpt lat="43.08934" lon="2.57193">
        <ele>162.6</ele>
        <time>2014-10-30T10:46:15Z</time>
      </trkpt>
      <trkpt lat="43.08939" lon="2.57202">
        <ele>162.6</ele>
        <time>2014-10-30T10:46:22Z</time>
      </trkpt>
      <trkpt lat="43.0894" lon="2.57206">
        <ele>162.6</ele>
        <time>2014-10-30T10:46:26Z</time>
      </trkpt>
      <trkpt lat="43.08944" lon="2.57211">
        <ele>162.6</ele>
        <time>2014-10-30T10:46:38Z</time>
      </trkpt>
      <trkpt lat="43.08945" lon="2.57212">
        <ele>162.6</ele>
        <time>2014-10-30T10:46:41Z</time>
      </trkpt>
      <trkpt lat="43.08945" lon="2.57211">
        <ele>162.6</ele>
        <time>2014-10-30T10:46:54Z</time>
      </trkpt>
      <trkpt lat="43.08945" lon="2.57211">
        <ele>162.6</ele>
        <time>2014-10-30T10:47:07Z</time>
      </trkpt>
      <trkpt lat="43.08945" lon="2.57213">
        <ele>162.6</ele>
        <time>2014-10-30T10:47:23Z</time>
      </trkpt>
      <trkpt lat="43.08945" lon="2.57212">
        <ele>162.6</ele>
        <time>2014-10-30T10:47:38Z</time>
      </trkpt>
      <trkpt lat="43.08943" lon="2.57209">
        <ele>163.08</ele>
        <time>2014-10-30T10:47:51Z</time>
      </trkpt>
      <trkpt lat="43.08939" lon="2.57204">
        <ele>162.6</ele>
        <time>2014-10-30T10:48:00Z</time>
      </trkpt>
      <trkpt lat="43.08938" lon="2.57203">
        <ele>162.6</ele>
        <time>2014-10-30T10:48:06Z</time>
      </trkpt>
      <trkpt lat="43.08938" lon="2.57198">
        <ele>162.6</ele>
        <time>2014-10-30T10:48:16Z</time>
      </trkpt>
      <trkpt lat="43.08937" lon="2.57194">
        <ele>162.6</ele>
        <time>2014-10-30T10:48:26Z</time>
      </trkpt>
      <trkpt lat="43.08937" lon="2.5719">
        <ele>162.6</ele>
        <time>2014-10-30T10:48:29Z</time>
      </trkpt>
      <trkpt lat="43.08935" lon="2.57186">
        <ele>163.08</ele>
        <time>2014-10-30T10:48:33Z</time>
      </trkpt>
      <trkpt lat="43.08935" lon="2.57178">
        <ele>163.08</ele>
        <time>2014-10-30T10:48:39Z</time>
      </trkpt>
      <trkpt lat="43.08934" lon="2.57164">
        <ele>163.08</ele>
        <time>2014-10-30T10:48:49Z</time>
      </trkpt>
      <trkpt lat="43.08935" lon="2.57157">
        <ele>163.56</ele>
        <time>2014-10-30T10:48:54Z</time>
      </trkpt>
      <trkpt lat="43.08935" lon="2.57153">
        <ele>163.08</ele>
        <time>2014-10-30T10:48:57Z</time>
      </trkpt>
      <trkpt lat="43.08934" lon="2.57142">
        <ele>163.08</ele>
        <time>2014-10-30T10:49:04Z</time>
      </trkpt>
      <trkpt lat="43.08935" lon="2.57136">
        <ele>163.56</ele>
        <time>2014-10-30T10:49:09Z</time>
      </trkpt>
      <trkpt lat="43.08935" lon="2.57133">
        <ele>163.08</ele>
        <time>2014-10-30T10:49:14Z</time>
      </trkpt>
      <trkpt lat="43.08935" lon="2.5713">
        <ele>163.08</ele>
        <time>2014-10-30T10:49:16Z</time>
      </trkpt>
      <trkpt lat="43.08936" lon="2.57126">
        <ele>163.08</ele>
        <time>2014-10-30T10:49:20Z</time>
      </trkpt>
      <trkpt lat="43.08937" lon="2.57116">
        <ele>163.08</ele>
        <time>2014-10-30T10:49:26Z</time>
      </trkpt>
      <trkpt lat="43.0894" lon="2.5711">
        <ele>163.56</ele>
        <time>2014-10-30T10:49:30Z</time>
      </trkpt>
      <trkpt lat="43.08942" lon="2.57101">
        <ele>163.56</ele>
        <time>2014-10-30T10:49:37Z</time>
      </trkpt>
      <trkpt lat="43.08943" lon="2.57092">
        <ele>163.56</ele>
        <time>2014-10-30T10:49:41Z</time>
      </trkpt>
      <trkpt lat="43.08943" lon="2.57089">
        <ele>163.08</ele>
        <time>2014-10-30T10:49:42Z</time>
      </trkpt>
      <trkpt lat="43.08943" lon="2.57082">
        <ele>163.56</ele>
        <time>2014-10-30T10:49:47Z</time>
      </trkpt>
      <trkpt lat="43.08946" lon="2.57075">
        <ele>163.56</ele>
        <time>2014-10-30T10:49:51Z</time>
      </trkpt>
      <trkpt lat="43.0895" lon="2.57068">
        <ele>163.56</ele>
        <time>2014-10-30T10:49:57Z</time>
      </trkpt>
      <trkpt lat="43.08953" lon="2.57059">
        <ele>163.56</ele>
        <time>2014-10-30T10:50:04Z</time>
      </trkpt>
      <trkpt lat="43.08954" lon="2.57052">
        <ele>163.56</ele>
        <time>2014-10-30T10:50:08Z</time>
      </trkpt>
      <trkpt lat="43.08956" lon="2.57047">
        <ele>163.56</ele>
        <time>2014-10-30T10:50:11Z</time>
      </trkpt>
      <trkpt lat="43.08958" lon="2.5704">
        <ele>164.04</ele>
        <time>2014-10-30T10:50:15Z</time>
      </trkpt>
      <trkpt lat="43.08961" lon="2.57034">
        <ele>163.56</ele>
        <time>2014-10-30T10:50:19Z</time>
      </trkpt>
      <trkpt lat="43.08963" lon="2.57027">
        <ele>164.52</ele>
        <time>2014-10-30T10:50:24Z</time>
      </trkpt>
      <trkpt lat="43.08964" lon="2.57022">
        <ele>164.04</ele>
        <time>2014-10-30T10:50:29Z</time>
      </trkpt>
      <trkpt lat="43.08966" lon="2.57013">
        <ele>164.52</ele>
        <time>2014-10-30T10:50:35Z</time>
      </trkpt>
      <trkpt lat="43.08961" lon="2.57009">
        <ele>164.52</ele>
        <time>2014-10-30T10:50:46Z</time>
      </trkpt>
      <trkpt lat="43.08958" lon="2.57008">
        <ele>165.48</ele>
        <time>2014-10-30T10:50:58Z</time>
      </trkpt>
      <trkpt lat="43.08958" lon="2.57008">
        <ele>165.48</ele>
        <time>2014-10-30T10:51:01Z</time>
      </trkpt>
      <trkpt lat="43.08941" lon="2.57006">
        <ele>166.93</ele>
        <time>2014-10-30T10:51:13Z</time>
      </trkpt>
      <trkpt lat="43.08935" lon="2.57009">
        <ele>168.85</ele>
        <time>2014-10-30T10:51:25Z</time>
      </trkpt>
      <trkpt lat="43.08937" lon="2.57017">
        <ele>171.25</ele>
        <time>2014-10-30T10:51:37Z</time>
      </trkpt>
      <trkpt lat="43.08933" lon="2.57018">
        <ele>172.21</ele>
        <time>2014-10-30T10:51:44Z</time>
      </trkpt>
      <trkpt lat="43.08924" lon="2.57015">
        <ele>174.62</ele>
        <time>2014-10-30T10:51:56Z</time>
      </trkpt>
      <trkpt lat="43.08921" lon="2.57016">
        <ele>174.62</ele>
        <time>2014-10-30T10:52:00Z</time>
      </trkpt>
      <trkpt lat="43.08913" lon="2.57018">
        <ele>176.06</ele>
        <time>2014-10-30T10:52:08Z</time>
      </trkpt>
      <trkpt lat="43.08908" lon="2.57024">
        <ele>177.5</ele>
        <time>2014-10-30T10:52:19Z</time>
      </trkpt>
      <trkpt lat="43.08907" lon="2.57029">
        <ele>179.9</ele>
        <time>2014-10-30T10:52:32Z</time>
      </trkpt>
      <trkpt lat="43.08905" lon="2.57033">
        <ele>181.83</ele>
        <time>2014-10-30T10:52:44Z</time>
      </trkpt>
      <trkpt lat="43.08899" lon="2.5704">
        <ele>184.23</ele>
        <time>2014-10-30T10:52:55Z</time>
      </trkpt>
      <trkpt lat="43.08899" lon="2.57041">
        <ele>184.23</ele>
        <time>2014-10-30T10:52:56Z</time>
      </trkpt>
      <trkpt lat="43.08893" lon="2.57053">
        <ele>186.15</ele>
        <time>2014-10-30T10:53:09Z</time>
      </trkpt>
      <trkpt lat="43.08884" lon="2.57063">
        <ele>188.08</ele>
        <time>2014-10-30T10:53:23Z</time>
      </trkpt>
      <trkpt lat="43.08878" lon="2.5707">
        <ele>190</ele>
        <time>2014-10-30T10:53:33Z</time>
      </trkpt>
      <trkpt lat="43.08871" lon="2.57076">
        <ele>191.44</ele>
        <time>2014-10-30T10:53:45Z</time>
      </trkpt>
      <trkpt lat="43.0887" lon="2.57077">
        <ele>191.92</ele>
        <time>2014-10-30T10:53:46Z</time>
      </trkpt>
      <trkpt lat="43.08865" lon="2.57082">
        <ele>192.88</ele>
        <time>2014-10-30T10:53:54Z</time>
      </trkpt>
      <trkpt lat="43.08856" lon="2.57092">
        <ele>193.84</ele>
        <time>2014-10-30T10:54:07Z</time>
      </trkpt>
      <trkpt lat="43.08848" lon="2.57097">
        <ele>194.32</ele>
        <time>2014-10-30T10:54:18Z</time>
      </trkpt>
      <trkpt lat="43.0884" lon="2.57102">
        <ele>195.28</ele>
        <time>2014-10-30T10:54:30Z</time>
      </trkpt>
      <trkpt lat="43.08839" lon="2.57102">
        <ele>194.8</ele>
        <time>2014-10-30T10:54:33Z</time>
      </trkpt>
      <trkpt lat="43.08838" lon="2.57103">
        <ele>194.8</ele>
        <time>2014-10-30T10:54:45Z</time>
      </trkpt>
      <trkpt lat="43.08838" lon="2.57103">
        <ele>195.28</ele>
        <time>2014-10-30T10:54:47Z</time>
      </trkpt>
      <trkpt lat="43.08836" lon="2.57101">
        <ele>196.25</ele>
        <time>2014-10-30T10:54:51Z</time>
      </trkpt>
      <trkpt lat="43.08837" lon="2.57095">
        <ele>198.65</ele>
        <time>2014-10-30T10:55:00Z</time>
      </trkpt>
      <trkpt lat="43.08835" lon="2.57091">
        <ele>200.09</ele>
        <time>2014-10-30T10:55:11Z</time>
      </trkpt>
      <trkpt lat="43.08835" lon="2.57089">
        <ele>201.05</ele>
        <time>2014-10-30T10:55:17Z</time>
      </trkpt>
      <trkpt lat="43.08835" lon="2.57088">
        <ele>202.49</ele>
        <time>2014-10-30T10:55:29Z</time>
      </trkpt>
      <trkpt lat="43.08835" lon="2.57088">
        <ele>204.9</ele>
        <time>2014-10-30T10:55:42Z</time>
      </trkpt>
      <trkpt lat="43.08833" lon="2.57086">
        <ele>206.34</ele>
        <time>2014-10-30T10:55:54Z</time>
      </trkpt>
      <trkpt lat="43.08831" lon="2.57083">
        <ele>208.26</ele>
        <time>2014-10-30T10:56:04Z</time>
      </trkpt>
      <trkpt lat="43.08828" lon="2.57081">
        <ele>210.67</ele>
        <time>2014-10-30T10:56:17Z</time>
      </trkpt>
      <trkpt lat="43.08823" lon="2.57078">
        <ele>212.59</ele>
        <time>2014-10-30T10:56:28Z</time>
      </trkpt>
      <trkpt lat="43.0881" lon="2.57069">
        <ele>214.99</ele>
        <time>2014-10-30T10:56:41Z</time>
      </trkpt>
      <trkpt lat="43.08805" lon="2.57063">
        <ele>215.47</ele>
        <time>2014-10-30T10:56:53Z</time>
      </trkpt>
      <trkpt lat="43.08805" lon="2.57063">
        <ele>215.47</ele>
        <time>2014-10-30T10:57:01Z</time>
      </trkpt>
      <trkpt lat="43.08804" lon="2.57061">
        <ele>214.99</ele>
        <time>2014-10-30T10:57:15Z</time>
      </trkpt>
      <trkpt lat="43.08804" lon="2.5706">
        <ele>214.51</ele>
        <time>2014-10-30T10:57:41Z</time>
      </trkpt>
      <trkpt lat="43.08804" lon="2.57061">
        <ele>214.51</ele>
        <time>2014-10-30T10:58:14Z</time>
      </trkpt>
      <trkpt lat="43.08804" lon="2.57059">
        <ele>214.99</ele>
        <time>2014-10-30T10:58:38Z</time>
      </trkpt>
      <trkpt lat="43.08804" lon="2.5706">
        <ele>214.99</ele>
        <time>2014-10-30T10:58:53Z</time>
      </trkpt>
      <trkpt lat="43.08803" lon="2.5706">
        <ele>215.47</ele>
        <time>2014-10-30T10:59:08Z</time>
      </trkpt>
      <trkpt lat="43.08804" lon="2.57053">
        <ele>214.99</ele>
        <time>2014-10-30T10:59:23Z</time>
      </trkpt>
      <trkpt lat="43.08799" lon="2.57049">
        <ele>217.4</ele>
        <time>2014-10-30T10:59:35Z</time>
      </trkpt>
      <trkpt lat="43.08795" lon="2.57046">
        <ele>219.32</ele>
        <time>2014-10-30T10:59:44Z</time>
      </trkpt>
      <trkpt lat="43.08793" lon="2.57037">
        <ele>220.76</ele>
        <time>2014-10-30T10:59:56Z</time>
      </trkpt>
      <trkpt lat="43.08789" lon="2.57022">
        <ele>222.68</ele>
        <time>2014-10-30T11:00:11Z</time>
      </trkpt>
      <trkpt lat="43.08787" lon="2.57016">
        <ele>224.61</ele>
        <time>2014-10-30T11:00:20Z</time>
      </trkpt>
      <trkpt lat="43.08786" lon="2.57002">
        <ele>225.09</ele>
        <time>2014-10-30T11:00:33Z</time>
      </trkpt>
      <trkpt lat="43.08783" lon="2.56987">
        <ele>226.05</ele>
        <time>2014-10-30T11:00:45Z</time>
      </trkpt>
      <trkpt lat="43.08783" lon="2.56974">
        <ele>225.57</ele>
        <time>2014-10-30T11:00:57Z</time>
      </trkpt>
      <trkpt lat="43.08781" lon="2.56956">
        <ele>227.49</ele>
        <time>2014-10-30T11:01:09Z</time>
      </trkpt>
      <trkpt lat="43.08781" lon="2.5694">
        <ele>228.45</ele>
        <time>2014-10-30T11:01:22Z</time>
      </trkpt>
      <trkpt lat="43.08783" lon="2.56926">
        <ele>229.41</ele>
        <time>2014-10-30T11:01:33Z</time>
      </trkpt>
      <trkpt lat="43.08782" lon="2.5691">
        <ele>228.93</ele>
        <time>2014-10-30T11:01:44Z</time>
      </trkpt>
      <trkpt lat="43.08775" lon="2.56901">
        <ele>230.37</ele>
        <time>2014-10-30T11:01:58Z</time>
      </trkpt>
      <trkpt lat="43.08773" lon="2.56897">
        <ele>231.81</ele>
        <time>2014-10-30T11:02:08Z</time>
      </trkpt>
      <trkpt lat="43.08771" lon="2.56888">
        <ele>232.78</ele>
        <time>2014-10-30T11:02:20Z</time>
      </trkpt>
      <trkpt lat="43.0877" lon="2.56886">
        <ele>232.78</ele>
        <time>2014-10-30T11:02:21Z</time>
      </trkpt>
      <trkpt lat="43.08766" lon="2.56874">
        <ele>233.74</ele>
        <time>2014-10-30T11:02:34Z</time>
      </trkpt>
      <trkpt lat="43.08761" lon="2.56868">
        <ele>234.7</ele>
        <time>2014-10-30T11:02:48Z</time>
      </trkpt>
      <trkpt lat="43.0876" lon="2.5686">
        <ele>235.18</ele>
        <time>2014-10-30T11:03:01Z</time>
      </trkpt>
      <trkpt lat="43.08756" lon="2.56853">
        <ele>235.18</ele>
        <time>2014-10-30T11:03:22Z</time>
      </trkpt>
      <trkpt lat="43.08749" lon="2.5685">
        <ele>235.66</ele>
        <time>2014-10-30T11:03:43Z</time>
      </trkpt>
      <trkpt lat="43.08747" lon="2.56855">
        <ele>237.1</ele>
        <time>2014-10-30T11:03:59Z</time>
      </trkpt>
      <trkpt lat="43.08742" lon="2.56864">
        <ele>239.02</ele>
        <time>2014-10-30T11:04:14Z</time>
      </trkpt>
      <trkpt lat="43.08738" lon="2.5687">
        <ele>241.43</ele>
        <time>2014-10-30T11:04:30Z</time>
      </trkpt>
      <trkpt lat="43.08737" lon="2.56871">
        <ele>240.95</ele>
        <time>2014-10-30T11:04:47Z</time>
      </trkpt>
      <trkpt lat="43.08736" lon="2.56872">
        <ele>241.91</ele>
        <time>2014-10-30T11:05:09Z</time>
      </trkpt>
      <trkpt lat="43.08734" lon="2.56873">
        <ele>244.79</ele>
        <time>2014-10-30T11:05:24Z</time>
      </trkpt>
      <trkpt lat="43.08731" lon="2.56873">
        <ele>245.27</ele>
        <time>2014-10-30T11:05:42Z</time>
      </trkpt>
      <trkpt lat="43.08731" lon="2.56874">
        <ele>246.72</ele>
        <time>2014-10-30T11:05:58Z</time>
      </trkpt>
      <trkpt lat="43.08729" lon="2.56875">
        <ele>247.2</ele>
        <time>2014-10-30T11:06:14Z</time>
      </trkpt>
      <trkpt lat="43.08728" lon="2.56876">
        <ele>248.16</ele>
        <time>2014-10-30T11:06:34Z</time>
      </trkpt>
      <trkpt lat="43.08727" lon="2.56875">
        <ele>249.12</ele>
        <time>2014-10-30T11:06:46Z</time>
      </trkpt>
      <trkpt lat="43.08728" lon="2.56875">
        <ele>251.04</ele>
        <time>2014-10-30T11:07:03Z</time>
      </trkpt>
      <trkpt lat="43.08725" lon="2.56876">
        <ele>251.52</ele>
        <time>2014-10-30T11:07:17Z</time>
      </trkpt>
      <trkpt lat="43.08725" lon="2.56876">
        <ele>251.52</ele>
        <time>2014-10-30T11:07:39Z</time>
      </trkpt>
      <trkpt lat="43.08722" lon="2.56875">
        <ele>252.96</ele>
        <time>2014-10-30T11:07:54Z</time>
      </trkpt>
      <trkpt lat="43.08718" lon="2.56873">
        <ele>254.41</ele>
        <time>2014-10-30T11:08:07Z</time>
      </trkpt>
      <trkpt lat="43.08717" lon="2.5687">
        <ele>255.37</ele>
        <time>2014-10-30T11:08:21Z</time>
      </trkpt>
      <trkpt lat="43.08716" lon="2.56869">
        <ele>256.81</ele>
        <time>2014-10-30T11:08:38Z</time>
      </trkpt>
      <trkpt lat="43.08715" lon="2.56869">
        <ele>258.25</ele>
        <time>2014-10-30T11:08:51Z</time>
      </trkpt>
      <trkpt lat="43.08715" lon="2.56869">
        <ele>257.77</ele>
        <time>2014-10-30T11:09:04Z</time>
      </trkpt>
      <trkpt lat="43.08714" lon="2.56868">
        <ele>259.69</ele>
        <time>2014-10-30T11:09:14Z</time>
      </trkpt>
      <trkpt lat="43.08713" lon="2.56869">
        <ele>259.69</ele>
        <time>2014-10-30T11:09:31Z</time>
      </trkpt>
      <trkpt lat="43.08711" lon="2.56868">
        <ele>260.17</ele>
        <time>2014-10-30T11:09:45Z</time>
      </trkpt>
      <trkpt lat="43.08711" lon="2.56868">
        <ele>260.65</ele>
        <time>2014-10-30T11:10:02Z</time>
      </trkpt>
      <trkpt lat="43.08709" lon="2.56868">
        <ele>260.65</ele>
        <time>2014-10-30T11:10:17Z</time>
      </trkpt>
      <trkpt lat="43.08709" lon="2.56868">
        <ele>259.69</ele>
        <time>2014-10-30T11:10:29Z</time>
      </trkpt>
      <trkpt lat="43.08703" lon="2.56863">
        <ele>260.65</ele>
        <time>2014-10-30T11:10:42Z</time>
      </trkpt>
      <trkpt lat="43.08703" lon="2.56861">
        <ele>261.62</ele>
        <time>2014-10-30T11:10:55Z</time>
      </trkpt>
      <trkpt lat="43.08697" lon="2.56863">
        <ele>261.62</ele>
        <time>2014-10-30T11:11:06Z</time>
      </trkpt>
      <trkpt lat="43.08696" lon="2.56873">
        <ele>262.58</ele>
        <time>2014-10-30T11:11:20Z</time>
      </trkpt>
      <trkpt lat="43.08692" lon="2.56885">
        <ele>265.46</ele>
        <time>2014-10-30T11:11:33Z</time>
      </trkpt>
      <trkpt lat="43.08692" lon="2.56895">
        <ele>266.9</ele>
        <time>2014-10-30T11:11:45Z</time>
      </trkpt>
      <trkpt lat="43.08691" lon="2.56897">
        <ele>268.35</ele>
        <time>2014-10-30T11:11:59Z</time>
      </trkpt>
      <trkpt lat="43.0869" lon="2.569">
        <ele>270.75</ele>
        <time>2014-10-30T11:12:12Z</time>
      </trkpt>
      <trkpt lat="43.08688" lon="2.56901">
        <ele>270.75</ele>
        <time>2014-10-30T11:12:16Z</time>
      </trkpt>
      <trkpt lat="43.08682" lon="2.56908">
        <ele>274.11</ele>
        <time>2014-10-30T11:12:29Z</time>
      </trkpt>
      <trkpt lat="43.08676" lon="2.56915">
        <ele>276.04</ele>
        <time>2014-10-30T11:12:44Z</time>
      </trkpt>
      <trkpt lat="43.08672" lon="2.56918">
        <ele>277.48</ele>
        <time>2014-10-30T11:12:59Z</time>
      </trkpt>
      <trkpt lat="43.08671" lon="2.56919">
        <ele>277.96</ele>
        <time>2014-10-30T11:13:14Z</time>
      </trkpt>
      <trkpt lat="43.0867" lon="2.56919">
        <ele>279.88</ele>
        <time>2014-10-30T11:13:30Z</time>
      </trkpt>
      <trkpt lat="43.08669" lon="2.56919">
        <ele>280.84</ele>
        <time>2014-10-30T11:13:47Z</time>
      </trkpt>
      <trkpt lat="43.08666" lon="2.56921">
        <ele>280.84</ele>
        <time>2014-10-30T11:14:06Z</time>
      </trkpt>
      <trkpt lat="43.08664" lon="2.56921">
        <ele>281.32</ele>
        <time>2014-10-30T11:14:21Z</time>
      </trkpt>
      <trkpt lat="43.08662" lon="2.56921">
        <ele>282.77</ele>
        <time>2014-10-30T11:14:40Z</time>
      </trkpt>
      <trkpt lat="43.08659" lon="2.5692">
        <ele>283.73</ele>
        <time>2014-10-30T11:14:55Z</time>
      </trkpt>
      <trkpt lat="43.08658" lon="2.56921">
        <ele>284.21</ele>
        <time>2014-10-30T11:15:01Z</time>
      </trkpt>
      <trkpt lat="43.08657" lon="2.5692">
        <ele>284.69</ele>
        <time>2014-10-30T11:15:06Z</time>
      </trkpt>
      <trkpt lat="43.08656" lon="2.56921">
        <ele>285.65</ele>
        <time>2014-10-30T11:15:22Z</time>
      </trkpt>
      <trkpt lat="43.08655" lon="2.56921">
        <ele>285.65</ele>
        <time>2014-10-30T11:15:37Z</time>
      </trkpt>
      <trkpt lat="43.08654" lon="2.56921">
        <ele>286.61</ele>
        <time>2014-10-30T11:15:52Z</time>
      </trkpt>
      <trkpt lat="43.08653" lon="2.56921">
        <ele>287.09</ele>
        <time>2014-10-30T11:16:09Z</time>
      </trkpt>
      <trkpt lat="43.08652" lon="2.56921">
        <ele>288.05</ele>
        <time>2014-10-30T11:16:13Z</time>
      </trkpt>
      <trkpt lat="43.08651" lon="2.56922">
        <ele>288.05</ele>
        <time>2014-10-30T11:16:33Z</time>
      </trkpt>
      <trkpt lat="43.08649" lon="2.56923">
        <ele>289.49</ele>
        <time>2014-10-30T11:16:45Z</time>
      </trkpt>
      <trkpt lat="43.08647" lon="2.56925">
        <ele>289.49</ele>
        <time>2014-10-30T11:16:59Z</time>
      </trkpt>
      <trkpt lat="43.08645" lon="2.56926">
        <ele>289.49</ele>
        <time>2014-10-30T11:17:19Z</time>
      </trkpt>
      <trkpt lat="43.08642" lon="2.56927">
        <ele>289.01</ele>
        <time>2014-10-30T11:17:38Z</time>
      </trkpt>
      <trkpt lat="43.08641" lon="2.56927">
        <ele>288.53</ele>
        <time>2014-10-30T11:17:49Z</time>
      </trkpt>
      <trkpt lat="43.08636" lon="2.56925">
        <ele>288.05</ele>
        <time>2014-10-30T11:18:00Z</time>
      </trkpt>
      <trkpt lat="43.08633" lon="2.56922">
        <ele>287.09</ele>
        <time>2014-10-30T11:18:12Z</time>
      </trkpt>
      <trkpt lat="43.0863" lon="2.56921">
        <ele>287.57</ele>
        <time>2014-10-30T11:18:25Z</time>
      </trkpt>
      <trkpt lat="43.08628" lon="2.5692">
        <ele>287.57</ele>
        <time>2014-10-30T11:18:41Z</time>
      </trkpt>
      <trkpt lat="43.08627" lon="2.5692">
        <ele>289.01</ele>
        <time>2014-10-30T11:18:54Z</time>
      </trkpt>
      <trkpt lat="43.08626" lon="2.56925">
        <ele>289.97</ele>
        <time>2014-10-30T11:19:08Z</time>
      </trkpt>
      <trkpt lat="43.08625" lon="2.56926">
        <ele>289.97</ele>
        <time>2014-10-30T11:19:14Z</time>
      </trkpt>
      <trkpt lat="43.08622" lon="2.56943">
        <ele>291.42</ele>
        <time>2014-10-30T11:19:30Z</time>
      </trkpt>
      <trkpt lat="43.08617" lon="2.56951">
        <ele>291.9</ele>
        <time>2014-10-30T11:19:44Z</time>
      </trkpt>
      <trkpt lat="43.08613" lon="2.56957">
        <ele>292.86</ele>
        <time>2014-10-30T11:20:01Z</time>
      </trkpt>
      <trkpt lat="43.08602" lon="2.56964">
        <ele>292.86</ele>
        <time>2014-10-30T11:20:13Z</time>
      </trkpt>
      <trkpt lat="43.08597" lon="2.56969">
        <ele>293.34</ele>
        <time>2014-10-30T11:20:29Z</time>
      </trkpt>
      <trkpt lat="43.08597" lon="2.56972">
        <ele>293.82</ele>
        <time>2014-10-30T11:20:44Z</time>
      </trkpt>
      <trkpt lat="43.08595" lon="2.56976">
        <ele>293.82</ele>
        <time>2014-10-30T11:20:57Z</time>
      </trkpt>
      <trkpt lat="43.08594" lon="2.56981">
        <ele>295.26</ele>
        <time>2014-10-30T11:21:10Z</time>
      </trkpt>
      <trkpt lat="43.08594" lon="2.56985">
        <ele>294.78</ele>
        <time>2014-10-30T11:21:25Z</time>
      </trkpt>
      <trkpt lat="43.08591" lon="2.56993">
        <ele>295.74</ele>
        <time>2014-10-30T11:21:39Z</time>
      </trkpt>
      <trkpt lat="43.08586" lon="2.57003">
        <ele>296.22</ele>
        <time>2014-10-30T11:21:53Z</time>
      </trkpt>
      <trkpt lat="43.08585" lon="2.57009">
        <ele>296.7</ele>
        <time>2014-10-30T11:22:10Z</time>
      </trkpt>
      <trkpt lat="43.08585" lon="2.57013">
        <ele>296.22</ele>
        <time>2014-10-30T11:22:24Z</time>
      </trkpt>
      <trkpt lat="43.08584" lon="2.57018">
        <ele>296.7</ele>
        <time>2014-10-30T11:22:41Z</time>
      </trkpt>
      <trkpt lat="43.08583" lon="2.57021">
        <ele>296.7</ele>
        <time>2014-10-30T11:22:58Z</time>
      </trkpt>
      <trkpt lat="43.08582" lon="2.57026">
        <ele>297.67</ele>
        <time>2014-10-30T11:23:12Z</time>
      </trkpt>
      <trkpt lat="43.0858" lon="2.5703">
        <ele>296.7</ele>
        <time>2014-10-30T11:23:26Z</time>
      </trkpt>
      <trkpt lat="43.08578" lon="2.57034">
        <ele>296.7</ele>
        <time>2014-10-30T11:23:44Z</time>
      </trkpt>
      <trkpt lat="43.08577" lon="2.57037">
        <ele>296.7</ele>
        <time>2014-10-30T11:24:02Z</time>
      </trkpt>
      <trkpt lat="43.08576" lon="2.57041">
        <ele>296.22</ele>
        <time>2014-10-30T11:24:28Z</time>
      </trkpt>
      <trkpt lat="43.08574" lon="2.57044">
        <ele>295.74</ele>
        <time>2014-10-30T11:24:44Z</time>
      </trkpt>
      <trkpt lat="43.08573" lon="2.57046">
        <ele>295.74</ele>
        <time>2014-10-30T11:25:00Z</time>
      </trkpt>
      <trkpt lat="43.08574" lon="2.57047">
        <ele>295.26</ele>
        <time>2014-10-30T11:25:17Z</time>
      </trkpt>
      <trkpt lat="43.08574" lon="2.5705">
        <ele>295.74</ele>
        <time>2014-10-30T11:25:33Z</time>
      </trkpt>
      <trkpt lat="43.08574" lon="2.57052">
        <ele>294.78</ele>
        <time>2014-10-30T11:25:50Z</time>
      </trkpt>
      <trkpt lat="43.08574" lon="2.57057">
        <ele>295.74</ele>
        <time>2014-10-30T11:26:07Z</time>
      </trkpt>
      <trkpt lat="43.08573" lon="2.57062">
        <ele>296.22</ele>
        <time>2014-10-30T11:26:25Z</time>
      </trkpt>
      <trkpt lat="43.08567" lon="2.57068">
        <ele>296.7</ele>
        <time>2014-10-30T11:26:40Z</time>
      </trkpt>
      <trkpt lat="43.08563" lon="2.5707">
        <ele>296.7</ele>
        <time>2014-10-30T11:26:54Z</time>
      </trkpt>
      <trkpt lat="43.08559" lon="2.57072">
        <ele>298.15</ele>
        <time>2014-10-30T11:27:08Z</time>
      </trkpt>
      <trkpt lat="43.08557" lon="2.57072">
        <ele>298.63</ele>
        <time>2014-10-30T11:27:25Z</time>
      </trkpt>
      <trkpt lat="43.08557" lon="2.57072">
        <ele>298.15</ele>
        <time>2014-10-30T11:27:42Z</time>
      </trkpt>
      <trkpt lat="43.08556" lon="2.57073">
        <ele>298.15</ele>
        <time>2014-10-30T11:28:01Z</time>
      </trkpt>
      <trkpt lat="43.08555" lon="2.57073">
        <ele>298.15</ele>
        <time>2014-10-30T11:28:15Z</time>
      </trkpt>
      <trkpt lat="43.08551" lon="2.57075">
        <ele>297.67</ele>
        <time>2014-10-30T11:28:34Z</time>
      </trkpt>
      <trkpt lat="43.08544" lon="2.57079">
        <ele>297.18</ele>
        <time>2014-10-30T11:28:53Z</time>
      </trkpt>
      <trkpt lat="43.08533" lon="2.57088">
        <ele>296.22</ele>
        <time>2014-10-30T11:29:10Z</time>
      </trkpt>
      <trkpt lat="43.08523" lon="2.57093">
        <ele>296.7</ele>
        <time>2014-10-30T11:29:27Z</time>
      </trkpt>
      <trkpt lat="43.08514" lon="2.57096">
        <ele>297.67</ele>
        <time>2014-10-30T11:29:44Z</time>
      </trkpt>
      <trkpt lat="43.08509" lon="2.57096">
        <ele>298.15</ele>
        <time>2014-10-30T11:30:01Z</time>
      </trkpt>
      <trkpt lat="43.08504" lon="2.57096">
        <ele>298.63</ele>
        <time>2014-10-30T11:30:16Z</time>
      </trkpt>
      <trkpt lat="43.08501" lon="2.57096">
        <ele>298.15</ele>
        <time>2014-10-30T11:30:28Z</time>
      </trkpt>
      <trkpt lat="43.08497" lon="2.57094">
        <ele>298.63</ele>
        <time>2014-10-30T11:30:40Z</time>
      </trkpt>
      <trkpt lat="43.0849" lon="2.57096">
        <ele>299.11</ele>
        <time>2014-10-30T11:30:51Z</time>
      </trkpt>
      <trkpt lat="43.08485" lon="2.57097">
        <ele>300.07</ele>
        <time>2014-10-30T11:31:07Z</time>
      </trkpt>
      <trkpt lat="43.08476" lon="2.57096">
        <ele>299.11</ele>
        <time>2014-10-30T11:31:19Z</time>
      </trkpt>
      <trkpt lat="43.0847" lon="2.57101">
        <ele>299.11</ele>
        <time>2014-10-30T11:31:33Z</time>
      </trkpt>
      <trkpt lat="43.08465" lon="2.57102">
        <ele>299.59</ele>
        <time>2014-10-30T11:31:46Z</time>
      </trkpt>
      <trkpt lat="43.08457" lon="2.57104">
        <ele>299.11</ele>
        <time>2014-10-30T11:32:00Z</time>
      </trkpt>
      <trkpt lat="43.08451" lon="2.57104">
        <ele>299.59</ele>
        <time>2014-10-30T11:32:21Z</time>
      </trkpt>
      <trkpt lat="43.08446" lon="2.57105">
        <ele>296.7</ele>
        <time>2014-10-30T11:32:36Z</time>
      </trkpt>
      <trkpt lat="43.08446" lon="2.57105">
        <ele>301.03</ele>
        <time>2014-10-30T11:32:37Z</time>
      </trkpt>
      <trkpt lat="43.08441" lon="2.57103">
        <ele>301.51</ele>
        <time>2014-10-30T11:32:51Z</time>
      </trkpt>
      <trkpt lat="43.08439" lon="2.57102">
        <ele>301.51</ele>
        <time>2014-10-30T11:33:00Z</time>
      </trkpt>
      <trkpt lat="43.08436" lon="2.57097">
        <ele>302.47</ele>
        <time>2014-10-30T11:33:13Z</time>
      </trkpt>
      <trkpt lat="43.08431" lon="2.57096">
        <ele>302.95</ele>
        <time>2014-10-30T11:33:26Z</time>
      </trkpt>
      <trkpt lat="43.0843" lon="2.57096">
        <ele>302.95</ele>
        <time>2014-10-30T11:33:33Z</time>
      </trkpt>
      <trkpt lat="43.08427" lon="2.57095">
        <ele>303.91</ele>
        <time>2014-10-30T11:33:49Z</time>
      </trkpt>
      <trkpt lat="43.08418" lon="2.57094">
        <ele>304.88</ele>
        <time>2014-10-30T11:34:01Z</time>
      </trkpt>
      <trkpt lat="43.08415" lon="2.57097">
        <ele>305.84</ele>
        <time>2014-10-30T11:34:17Z</time>
      </trkpt>
      <trkpt lat="43.0841" lon="2.571">
        <ele>305.36</ele>
        <time>2014-10-30T11:34:30Z</time>
      </trkpt>
      <trkpt lat="43.08404" lon="2.57106">
        <ele>307.28</ele>
        <time>2014-10-30T11:34:44Z</time>
      </trkpt>
      <trkpt lat="43.08392" lon="2.57112">
        <ele>308.72</ele>
        <time>2014-10-30T11:34:58Z</time>
      </trkpt>
      <trkpt lat="43.08384" lon="2.5712">
        <ele>309.2</ele>
        <time>2014-10-30T11:35:13Z</time>
      </trkpt>
      <trkpt lat="43.08377" lon="2.57122">
        <ele>310.64</ele>
        <time>2014-10-30T11:35:27Z</time>
      </trkpt>
      <trkpt lat="43.08365" lon="2.57125">
        <ele>311.12</ele>
        <time>2014-10-30T11:35:40Z</time>
      </trkpt>
      <trkpt lat="43.08358" lon="2.57125">
        <ele>312.57</ele>
        <time>2014-10-30T11:35:52Z</time>
      </trkpt>
      <trkpt lat="43.08352" lon="2.57124">
        <ele>312.57</ele>
        <time>2014-10-30T11:36:03Z</time>
      </trkpt>
      <trkpt lat="43.08341" lon="2.57123">
        <ele>313.05</ele>
        <time>2014-10-30T11:36:12Z</time>
      </trkpt>
      <trkpt lat="43.08328" lon="2.57119">
        <ele>313.05</ele>
        <time>2014-10-30T11:36:26Z</time>
      </trkpt>
      <trkpt lat="43.08328" lon="2.57119">
        <ele>313.53</ele>
        <time>2014-10-30T11:36:28Z</time>
      </trkpt>
      <trkpt lat="43.08321" lon="2.57126">
        <ele>314.49</ele>
        <time>2014-10-30T11:36:40Z</time>
      </trkpt>
      <trkpt lat="43.08315" lon="2.57129">
        <ele>315.45</ele>
        <time>2014-10-30T11:36:56Z</time>
      </trkpt>
      <trkpt lat="43.08318" lon="2.57131">
        <ele>315.93</ele>
        <time>2014-10-30T11:37:08Z</time>
      </trkpt>
      <trkpt lat="43.08325" lon="2.5714">
        <ele>316.41</ele>
        <time>2014-10-30T11:37:23Z</time>
      </trkpt>
      <trkpt lat="43.0833" lon="2.57152">
        <ele>316.89</ele>
        <time>2014-10-30T11:37:37Z</time>
      </trkpt>
      <trkpt lat="43.08333" lon="2.57161">
        <ele>317.85</ele>
        <time>2014-10-30T11:37:52Z</time>
      </trkpt>
      <trkpt lat="43.08336" lon="2.5717">
        <ele>318.81</ele>
        <time>2014-10-30T11:38:07Z</time>
      </trkpt>
      <trkpt lat="43.08336" lon="2.57173">
        <ele>318.33</ele>
        <time>2014-10-30T11:38:10Z</time>
      </trkpt>
      <trkpt lat="43.0834" lon="2.57186">
        <ele>319.78</ele>
        <time>2014-10-30T11:38:22Z</time>
      </trkpt>
      <trkpt lat="43.08341" lon="2.57206">
        <ele>319.3</ele>
        <time>2014-10-30T11:38:37Z</time>
      </trkpt>
      <trkpt lat="43.08344" lon="2.57224">
        <ele>320.26</ele>
        <time>2014-10-30T11:38:52Z</time>
      </trkpt>
      <trkpt lat="43.08348" lon="2.57242">
        <ele>319.78</ele>
        <time>2014-10-30T11:39:07Z</time>
      </trkpt>
      <trkpt lat="43.08353" lon="2.57256">
        <ele>319.78</ele>
        <time>2014-10-30T11:39:17Z</time>
      </trkpt>
      <trkpt lat="43.08357" lon="2.57268">
        <ele>319.3</ele>
        <time>2014-10-30T11:39:29Z</time>
      </trkpt>
      <trkpt lat="43.08357" lon="2.57271">
        <ele>319.3</ele>
        <time>2014-10-30T11:39:39Z</time>
      </trkpt>
      <trkpt lat="43.0836" lon="2.57283">
        <ele>319.3</ele>
        <time>2014-10-30T11:39:51Z</time>
      </trkpt>
      <trkpt lat="43.0837" lon="2.573">
        <ele>320.26</ele>
        <time>2014-10-30T11:40:07Z</time>
      </trkpt>
      <trkpt lat="43.0838" lon="2.57312">
        <ele>321.7</ele>
        <time>2014-10-30T11:40:20Z</time>
      </trkpt>
      <trkpt lat="43.08391" lon="2.57325">
        <ele>322.66</ele>
        <time>2014-10-30T11:40:36Z</time>
      </trkpt>
      <trkpt lat="43.084" lon="2.57337">
        <ele>323.14</ele>
        <time>2014-10-30T11:40:48Z</time>
      </trkpt>
      <trkpt lat="43.08411" lon="2.57351">
        <ele>324.1</ele>
        <time>2014-10-30T11:41:01Z</time>
      </trkpt>
      <trkpt lat="43.08418" lon="2.57361">
        <ele>324.58</ele>
        <time>2014-10-30T11:41:17Z</time>
      </trkpt>
      <trkpt lat="43.08427" lon="2.57373">
        <ele>324.58</ele>
        <time>2014-10-30T11:41:30Z</time>
      </trkpt>
      <trkpt lat="43.0843" lon="2.57386">
        <ele>324.58</ele>
        <time>2014-10-30T11:41:44Z</time>
      </trkpt>
      <trkpt lat="43.08435" lon="2.57399">
        <ele>324.58</ele>
        <time>2014-10-30T11:41:57Z</time>
      </trkpt>
      <trkpt lat="43.08438" lon="2.57408">
        <ele>324.58</ele>
        <time>2014-10-30T11:42:02Z</time>
      </trkpt>
      <trkpt lat="43.0844" lon="2.57412">
        <ele>324.1</ele>
        <time>2014-10-30T11:42:04Z</time>
      </trkpt>
      <trkpt lat="43.08443" lon="2.57436">
        <ele>324.58</ele>
        <time>2014-10-30T11:42:17Z</time>
      </trkpt>
      <trkpt lat="43.08444" lon="2.5746">
        <ele>325.06</ele>
        <time>2014-10-30T11:42:28Z</time>
      </trkpt>
      <trkpt lat="43.08444" lon="2.57464">
        <ele>324.58</ele>
        <time>2014-10-30T11:42:31Z</time>
      </trkpt>
      <trkpt lat="43.08441" lon="2.57471">
        <ele>324.58</ele>
        <time>2014-10-30T11:42:35Z</time>
      </trkpt>
      <trkpt lat="43.08441" lon="2.57479">
        <ele>324.58</ele>
        <time>2014-10-30T11:42:39Z</time>
      </trkpt>
      <trkpt lat="43.08445" lon="2.57497">
        <ele>324.1</ele>
        <time>2014-10-30T11:42:49Z</time>
      </trkpt>
      <trkpt lat="43.08446" lon="2.57498">
        <ele>324.58</ele>
        <time>2014-10-30T11:42:50Z</time>
      </trkpt>
      <trkpt lat="43.08452" lon="2.5752">
        <ele>324.58</ele>
        <time>2014-10-30T11:43:03Z</time>
      </trkpt>
      <trkpt lat="43.08452" lon="2.57528">
        <ele>324.58</ele>
        <time>2014-10-30T11:43:06Z</time>
      </trkpt>
      <trkpt lat="43.08452" lon="2.57559">
        <ele>324.58</ele>
        <time>2014-10-30T11:43:22Z</time>
      </trkpt>
      <trkpt lat="43.08451" lon="2.57582">
        <ele>324.58</ele>
        <time>2014-10-30T11:43:35Z</time>
      </trkpt>
      <trkpt lat="43.08451" lon="2.576">
        <ele>325.06</ele>
        <time>2014-10-30T11:43:46Z</time>
      </trkpt>
      <trkpt lat="43.08451" lon="2.57613">
        <ele>325.06</ele>
        <time>2014-10-30T11:43:53Z</time>
      </trkpt>
      <trkpt lat="43.08452" lon="2.5762">
        <ele>325.06</ele>
        <time>2014-10-30T11:43:56Z</time>
      </trkpt>
      <trkpt lat="43.08454" lon="2.57641">
        <ele>325.06</ele>
        <time>2014-10-30T11:44:10Z</time>
      </trkpt>
      <trkpt lat="43.08455" lon="2.57644">
        <ele>324.58</ele>
        <time>2014-10-30T11:44:12Z</time>
      </trkpt>
      <trkpt lat="43.08456" lon="2.57648">
        <ele>324.58</ele>
        <time>2014-10-30T11:44:15Z</time>
      </trkpt>
      <trkpt lat="43.08456" lon="2.57671">
        <ele>325.06</ele>
        <time>2014-10-30T11:44:29Z</time>
      </trkpt>
      <trkpt lat="43.08458" lon="2.57675">
        <ele>325.06</ele>
        <time>2014-10-30T11:44:45Z</time>
      </trkpt>
      <trkpt lat="43.08459" lon="2.57674">
        <ele>325.54</ele>
        <time>2014-10-30T11:44:48Z</time>
      </trkpt>
      <trkpt lat="43.08463" lon="2.57669">
        <ele>325.54</ele>
        <time>2014-10-30T11:44:54Z</time>
      </trkpt>
      <trkpt lat="43.08472" lon="2.57658">
        <ele>325.06</ele>
        <time>2014-10-30T11:45:07Z</time>
      </trkpt>
      <trkpt lat="43.08485" lon="2.57644">
        <ele>325.06</ele>
        <time>2014-10-30T11:45:20Z</time>
      </trkpt>
      <trkpt lat="43.08492" lon="2.5763">
        <ele>323.14</ele>
        <time>2014-10-30T11:45:33Z</time>
      </trkpt>
      <trkpt lat="43.08491" lon="2.57617">
        <ele>322.66</ele>
        <time>2014-10-30T11:45:44Z</time>
      </trkpt>
      <trkpt lat="43.08484" lon="2.57606">
        <ele>321.7</ele>
        <time>2014-10-30T11:45:52Z</time>
      </trkpt>
      <trkpt lat="43.08483" lon="2.576">
        <ele>321.22</ele>
        <time>2014-10-30T11:45:57Z</time>
      </trkpt>
      <trkpt lat="43.08479" lon="2.57585">
        <ele>320.26</ele>
        <time>2014-10-30T11:46:08Z</time>
      </trkpt>
      <trkpt lat="43.08478" lon="2.57582">
        <ele>320.26</ele>
        <time>2014-10-30T11:46:10Z</time>
      </trkpt>
      <trkpt lat="43.08478" lon="2.57578">
        <ele>320.26</ele>
        <time>2014-10-30T11:46:12Z</time>
      </trkpt>
      <trkpt lat="43.0848" lon="2.57575">
        <ele>318.81</ele>
        <time>2014-10-30T11:46:15Z</time>
      </trkpt>
      <trkpt lat="43.08484" lon="2.57574">
        <ele>318.81</ele>
        <time>2014-10-30T11:46:19Z</time>
      </trkpt>
      <trkpt lat="43.08492" lon="2.57576">
        <ele>317.37</ele>
        <time>2014-10-30T11:46:26Z</time>
      </trkpt>
      <trkpt lat="43.08505" lon="2.57579">
        <ele>316.41</ele>
        <time>2014-10-30T11:46:39Z</time>
      </trkpt>
      <trkpt lat="43.08522" lon="2.57587">
        <ele>314.97</ele>
        <time>2014-10-30T11:46:54Z</time>
      </trkpt>
      <trkpt lat="43.08524" lon="2.57588">
        <ele>314.97</ele>
        <time>2014-10-30T11:46:56Z</time>
      </trkpt>
      <trkpt lat="43.08541" lon="2.57594">
        <ele>313.53</ele>
        <time>2014-10-30T11:47:11Z</time>
      </trkpt>
      <trkpt lat="43.08545" lon="2.57594">
        <ele>312.57</ele>
        <time>2014-10-30T11:47:14Z</time>
      </trkpt>
      <trkpt lat="43.08562" lon="2.57598">
        <ele>312.09</ele>
        <time>2014-10-30T11:47:29Z</time>
      </trkpt>
      <trkpt lat="43.08578" lon="2.57602">
        <ele>310.64</ele>
        <time>2014-10-30T11:47:44Z</time>
      </trkpt>
      <trkpt lat="43.0858" lon="2.57602">
        <ele>310.64</ele>
        <time>2014-10-30T11:47:46Z</time>
      </trkpt>
      <trkpt lat="43.08584" lon="2.57603">
        <ele>310.16</ele>
        <time>2014-10-30T11:47:49Z</time>
      </trkpt>
      <trkpt lat="43.08593" lon="2.57607">
        <ele>309.68</ele>
        <time>2014-10-30T11:47:57Z</time>
      </trkpt>
      <trkpt lat="43.0861" lon="2.57607">
        <ele>308.72</ele>
        <time>2014-10-30T11:48:11Z</time>
      </trkpt>
      <trkpt lat="43.08623" lon="2.57607">
        <ele>307.76</ele>
        <time>2014-10-30T11:48:23Z</time>
      </trkpt>
      <trkpt lat="43.08637" lon="2.57605">
        <ele>306.8</ele>
        <time>2014-10-30T11:48:36Z</time>
      </trkpt>
      <trkpt lat="43.08652" lon="2.57605">
        <ele>306.8</ele>
        <time>2014-10-30T11:48:49Z</time>
      </trkpt>
      <trkpt lat="43.08657" lon="2.57602">
        <ele>304.39</ele>
        <time>2014-10-30T11:49:02Z</time>
      </trkpt>
      <trkpt lat="43.08652" lon="2.57593">
        <ele>303.43</ele>
        <time>2014-10-30T11:49:17Z</time>
      </trkpt>
      <trkpt lat="43.08647" lon="2.57589">
        <ele>303.43</ele>
        <time>2014-10-30T11:49:23Z</time>
      </trkpt>
      <trkpt lat="43.08631" lon="2.5758">
        <ele>301.99</ele>
        <time>2014-10-30T11:49:37Z</time>
      </trkpt>
      <trkpt lat="43.08619" lon="2.57571">
        <ele>300.55</ele>
        <time>2014-10-30T11:49:49Z</time>
      </trkpt>
      <trkpt lat="43.08606" lon="2.57565">
        <ele>299.59</ele>
        <time>2014-10-30T11:50:02Z</time>
      </trkpt>
      <trkpt lat="43.08588" lon="2.57547">
        <ele>298.63</ele>
        <time>2014-10-30T11:50:17Z</time>
      </trkpt>
      <trkpt lat="43.08585" lon="2.57542">
        <ele>297.67</ele>
        <time>2014-10-30T11:50:21Z</time>
      </trkpt>
      <trkpt lat="43.08584" lon="2.57537">
        <ele>297.18</ele>
        <time>2014-10-30T11:50:24Z</time>
      </trkpt>
      <trkpt lat="43.08583" lon="2.57527">
        <ele>297.18</ele>
        <time>2014-10-30T11:50:30Z</time>
      </trkpt>
      <trkpt lat="43.08589" lon="2.57504">
        <ele>295.74</ele>
        <time>2014-10-30T11:50:44Z</time>
      </trkpt>
      <trkpt lat="43.08597" lon="2.57493">
        <ele>295.74</ele>
        <time>2014-10-30T11:50:56Z</time>
      </trkpt>
      <trkpt lat="43.08605" lon="2.57485">
        <ele>294.78</ele>
        <time>2014-10-30T11:51:07Z</time>
      </trkpt>
      <trkpt lat="43.08616" lon="2.57476">
        <ele>293.82</ele>
        <time>2014-10-30T11:51:20Z</time>
      </trkpt>
      <trkpt lat="43.08627" lon="2.57468">
        <ele>292.38</ele>
        <time>2014-10-30T11:51:33Z</time>
      </trkpt>
      <trkpt lat="43.08638" lon="2.57462">
        <ele>290.94</ele>
        <time>2014-10-30T11:51:45Z</time>
      </trkpt>
      <trkpt lat="43.08644" lon="2.57458">
        <ele>289.97</ele>
        <time>2014-10-30T11:51:57Z</time>
      </trkpt>
      <trkpt lat="43.0865" lon="2.57455">
        <ele>289.01</ele>
        <time>2014-10-30T11:52:03Z</time>
      </trkpt>
      <trkpt lat="43.08653" lon="2.57453">
        <ele>289.01</ele>
        <time>2014-10-30T11:52:06Z</time>
      </trkpt>
      <trkpt lat="43.0867" lon="2.57456">
        <ele>287.57</ele>
        <time>2014-10-30T11:52:19Z</time>
      </trkpt>
      <trkpt lat="43.08684" lon="2.57463">
        <ele>287.57</ele>
        <time>2014-10-30T11:52:31Z</time>
      </trkpt>
      <trkpt lat="43.08687" lon="2.57464">
        <ele>286.61</ele>
        <time>2014-10-30T11:52:44Z</time>
      </trkpt>
      <trkpt lat="43.087" lon="2.57468">
        <ele>285.17</ele>
        <time>2014-10-30T11:52:55Z</time>
      </trkpt>
      <trkpt lat="43.08712" lon="2.57469">
        <ele>283.25</ele>
        <time>2014-10-30T11:53:06Z</time>
      </trkpt>
      <trkpt lat="43.0872" lon="2.5747">
        <ele>283.73</ele>
        <time>2014-10-30T11:53:19Z</time>
      </trkpt>
      <trkpt lat="43.08724" lon="2.57474">
        <ele>282.28</ele>
        <time>2014-10-30T11:53:24Z</time>
      </trkpt>
      <trkpt lat="43.08731" lon="2.57495">
        <ele>280.36</ele>
        <time>2014-10-30T11:53:36Z</time>
      </trkpt>
      <trkpt lat="43.08736" lon="2.57511">
        <ele>279.4</ele>
        <time>2014-10-30T11:53:48Z</time>
      </trkpt>
      <trkpt lat="43.08742" lon="2.57522">
        <ele>277.48</ele>
        <time>2014-10-30T11:53:57Z</time>
      </trkpt>
      <trkpt lat="43.08746" lon="2.57534">
        <ele>277.48</ele>
        <time>2014-10-30T11:54:10Z</time>
      </trkpt>
      <trkpt lat="43.08745" lon="2.57529">
        <ele>277.96</ele>
        <time>2014-10-30T11:54:24Z</time>
      </trkpt>
      <trkpt lat="43.08746" lon="2.57527">
        <ele>276.52</ele>
        <time>2014-10-30T11:54:40Z</time>
      </trkpt>
      <trkpt lat="43.08748" lon="2.57537">
        <ele>276.52</ele>
        <time>2014-10-30T11:54:53Z</time>
      </trkpt>
      <trkpt lat="43.08751" lon="2.57554">
        <ele>276.04</ele>
        <time>2014-10-30T11:55:04Z</time>
      </trkpt>
      <trkpt lat="43.08752" lon="2.57561">
        <ele>275.07</ele>
        <time>2014-10-30T11:55:08Z</time>
      </trkpt>
      <trkpt lat="43.08751" lon="2.57573">
        <ele>274.11</ele>
        <time>2014-10-30T11:55:16Z</time>
      </trkpt>
      <trkpt lat="43.08753" lon="2.57584">
        <ele>273.63</ele>
        <time>2014-10-30T11:55:23Z</time>
      </trkpt>
      <trkpt lat="43.08757" lon="2.57597">
        <ele>272.67</ele>
        <time>2014-10-30T11:55:30Z</time>
      </trkpt>
      <trkpt lat="43.08764" lon="2.57616">
        <ele>271.23</ele>
        <time>2014-10-30T11:55:44Z</time>
      </trkpt>
      <trkpt lat="43.08772" lon="2.57633">
        <ele>269.31</ele>
        <time>2014-10-30T11:55:56Z</time>
      </trkpt>
      <trkpt lat="43.08775" lon="2.57638">
        <ele>268.83</ele>
        <time>2014-10-30T11:56:00Z</time>
      </trkpt>
      <trkpt lat="43.08779" lon="2.57643">
        <ele>268.83</ele>
        <time>2014-10-30T11:56:05Z</time>
      </trkpt>
      <trkpt lat="43.08792" lon="2.57658">
        <ele>266.9</ele>
        <time>2014-10-30T11:56:19Z</time>
      </trkpt>
      <trkpt lat="43.08796" lon="2.57661">
        <ele>266.42</ele>
        <time>2014-10-30T11:56:23Z</time>
      </trkpt>
      <trkpt lat="43.088" lon="2.57662">
        <ele>265.46</ele>
        <time>2014-10-30T11:56:27Z</time>
      </trkpt>
      <trkpt lat="43.08808" lon="2.57669">
        <ele>264.98</ele>
        <time>2014-10-30T11:56:36Z</time>
      </trkpt>
      <trkpt lat="43.08811" lon="2.57672">
        <ele>263.54</ele>
        <time>2014-10-30T11:56:40Z</time>
      </trkpt>
      <trkpt lat="43.08826" lon="2.57678">
        <ele>260.65</ele>
        <time>2014-10-30T11:56:53Z</time>
      </trkpt>
      <trkpt lat="43.08834" lon="2.57678">
        <ele>260.17</ele>
        <time>2014-10-30T11:56:59Z</time>
      </trkpt>
      <trkpt lat="43.08843" lon="2.57673">
        <ele>259.21</ele>
        <time>2014-10-30T11:57:10Z</time>
      </trkpt>
      <trkpt lat="43.08849" lon="2.57666">
        <ele>260.17</ele>
        <time>2014-10-30T11:57:17Z</time>
      </trkpt>
      <trkpt lat="43.08851" lon="2.57662">
        <ele>259.21</ele>
        <time>2014-10-30T11:57:20Z</time>
      </trkpt>
      <trkpt lat="43.08852" lon="2.57658">
        <ele>259.21</ele>
        <time>2014-10-30T11:57:24Z</time>
      </trkpt>
      <trkpt lat="43.08855" lon="2.57653">
        <ele>260.17</ele>
        <time>2014-10-30T11:57:28Z</time>
      </trkpt>
      <trkpt lat="43.08856" lon="2.57649">
        <ele>259.69</ele>
        <time>2014-10-30T11:57:31Z</time>
      </trkpt>
      <trkpt lat="43.08861" lon="2.57635">
        <ele>261.14</ele>
        <time>2014-10-30T11:57:43Z</time>
      </trkpt>
      <trkpt lat="43.08862" lon="2.57625">
        <ele>262.1</ele>
        <time>2014-10-30T11:57:54Z</time>
      </trkpt>
      <trkpt lat="43.08867" lon="2.57609">
        <ele>262.58</ele>
        <time>2014-10-30T11:58:07Z</time>
      </trkpt>
      <trkpt lat="43.08874" lon="2.57593">
        <ele>264.5</ele>
        <time>2014-10-30T11:58:20Z</time>
      </trkpt>
      <trkpt lat="43.08878" lon="2.57586">
        <ele>264.98</ele>
        <time>2014-10-30T11:58:25Z</time>
      </trkpt>
      <trkpt lat="43.08882" lon="2.5758">
        <ele>266.9</ele>
        <time>2014-10-30T11:58:37Z</time>
      </trkpt>
      <trkpt lat="43.08889" lon="2.57568">
        <ele>268.83</ele>
        <time>2014-10-30T11:58:50Z</time>
      </trkpt>
      <trkpt lat="43.08894" lon="2.5756">
        <ele>269.79</ele>
        <time>2014-10-30T11:58:58Z</time>
      </trkpt>
      <trkpt lat="43.08904" lon="2.57544">
        <ele>270.75</ele>
        <time>2014-10-30T11:59:12Z</time>
      </trkpt>
      <trkpt lat="43.08916" lon="2.5753">
        <ele>272.19</ele>
        <time>2014-10-30T11:59:24Z</time>
      </trkpt>
      <trkpt lat="43.08921" lon="2.57527">
        <ele>272.67</ele>
        <time>2014-10-30T11:59:35Z</time>
      </trkpt>
      <trkpt lat="43.08923" lon="2.57524">
        <ele>273.15</ele>
        <time>2014-10-30T11:59:48Z</time>
      </trkpt>
      <trkpt lat="43.08929" lon="2.57515">
        <ele>272.67</ele>
        <time>2014-10-30T12:00:03Z</time>
      </trkpt>
      <trkpt lat="43.0893" lon="2.57514">
        <ele>271.71</ele>
        <time>2014-10-30T12:00:04Z</time>
      </trkpt>
      <trkpt lat="43.08939" lon="2.57509">
        <ele>271.71</ele>
        <time>2014-10-30T12:00:17Z</time>
      </trkpt>
      <trkpt lat="43.08939" lon="2.57506">
        <ele>270.75</ele>
        <time>2014-10-30T12:00:25Z</time>
      </trkpt>
      <trkpt lat="43.08941" lon="2.57497">
        <ele>269.79</ele>
        <time>2014-10-30T12:00:36Z</time>
      </trkpt>
      <trkpt lat="43.08947" lon="2.57495">
        <ele>270.75</ele>
        <time>2014-10-30T12:00:43Z</time>
      </trkpt>
      <trkpt lat="43.08949" lon="2.57499">
        <ele>271.23</ele>
        <time>2014-10-30T12:00:55Z</time>
      </trkpt>
      <trkpt lat="43.08948" lon="2.57497">
        <ele>269.79</ele>
        <time>2014-10-30T12:00:58Z</time>
      </trkpt>
      <trkpt lat="43.08947" lon="2.57494">
        <ele>269.79</ele>
        <time>2014-10-30T12:01:02Z</time>
      </trkpt>
      <trkpt lat="43.08945" lon="2.57477">
        <ele>268.83</ele>
        <time>2014-10-30T12:01:16Z</time>
      </trkpt>
      <trkpt lat="43.08949" lon="2.57458">
        <ele>269.79</ele>
        <time>2014-10-30T12:01:27Z</time>
      </trkpt>
      <trkpt lat="43.08954" lon="2.57453">
        <ele>269.31</ele>
        <time>2014-10-30T12:01:42Z</time>
      </trkpt>
      <trkpt lat="43.08967" lon="2.57446">
        <ele>268.83</ele>
        <time>2014-10-30T12:01:53Z</time>
      </trkpt>
      <trkpt lat="43.08968" lon="2.57463">
        <ele>268.35</ele>
        <time>2014-10-30T12:02:09Z</time>
      </trkpt>
      <trkpt lat="43.08969" lon="2.57467">
        <ele>268.83</ele>
        <time>2014-10-30T12:02:27Z</time>
      </trkpt>
      <trkpt lat="43.08966" lon="2.57466">
        <ele>268.35</ele>
        <time>2014-10-30T12:02:39Z</time>
      </trkpt>
      <trkpt lat="43.08966" lon="2.57466">
        <ele>268.83</ele>
        <time>2014-10-30T12:03:00Z</time>
      </trkpt>
      <trkpt lat="43.08966" lon="2.57466">
        <ele>268.83</ele>
        <time>2014-10-30T12:03:13Z</time>
      </trkpt>
      <trkpt lat="43.08966" lon="2.57465">
        <ele>267.86</ele>
        <time>2014-10-30T12:03:38Z</time>
      </trkpt>
      <trkpt lat="43.08967" lon="2.57465">
        <ele>267.86</ele>
        <time>2014-10-30T12:03:39Z</time>
      </trkpt>
      <trkpt lat="43.08969" lon="2.57462">
        <ele>267.86</ele>
        <time>2014-10-30T12:04:01Z</time>
      </trkpt>
      <trkpt lat="43.08968" lon="2.57462">
        <ele>267.38</ele>
        <time>2014-10-30T12:04:28Z</time>
      </trkpt>
      <trkpt lat="43.08968" lon="2.57461">
        <ele>267.86</ele>
        <time>2014-10-30T12:04:42Z</time>
      </trkpt>
      <trkpt lat="43.08968" lon="2.57461">
        <ele>267.38</ele>
        <time>2014-10-30T12:05:03Z</time>
      </trkpt>
      <trkpt lat="43.08968" lon="2.57462">
        <ele>266.9</ele>
        <time>2014-10-30T12:05:38Z</time>
      </trkpt>
      <trkpt lat="43.08968" lon="2.57462">
        <ele>266.9</ele>
        <time>2014-10-30T12:06:08Z</time>
      </trkpt>
      <trkpt lat="43.08968" lon="2.57463">
        <ele>266.42</ele>
        <time>2014-10-30T12:06:38Z</time>
      </trkpt>
      <trkpt lat="43.08968" lon="2.57462">
        <ele>266.42</ele>
        <time>2014-10-30T12:07:10Z</time>
      </trkpt>
      <trkpt lat="43.08968" lon="2.57461">
        <ele>265.94</ele>
        <time>2014-10-30T12:07:43Z</time>
      </trkpt>
      <trkpt lat="43.08969" lon="2.5746">
        <ele>265.94</ele>
        <time>2014-10-30T12:08:14Z</time>
      </trkpt>
      <trkpt lat="43.08969" lon="2.57459">
        <ele>265.46</ele>
        <time>2014-10-30T12:08:52Z</time>
      </trkpt>
      <trkpt lat="43.08968" lon="2.57459">
        <ele>265.46</ele>
        <time>2014-10-30T12:09:31Z</time>
      </trkpt>
      <trkpt lat="43.08967" lon="2.57459">
        <ele>265.46</ele>
        <time>2014-10-30T12:10:09Z</time>
      </trkpt>
      <trkpt lat="43.08966" lon="2.57459">
        <ele>265.46</ele>
        <time>2014-10-30T12:10:48Z</time>
      </trkpt>
      <trkpt lat="43.08966" lon="2.5746">
        <ele>265.46</ele>
        <time>2014-10-30T12:11:26Z</time>
      </trkpt>
      <trkpt lat="43.08967" lon="2.5746">
        <ele>265.46</ele>
        <time>2014-10-30T12:12:03Z</time>
      </trkpt>
      <trkpt lat="43.08967" lon="2.5746">
        <ele>264.98</ele>
        <time>2014-10-30T12:12:42Z</time>
      </trkpt>
      <trkpt lat="43.08966" lon="2.5746">
        <ele>264.98</ele>
        <time>2014-10-30T12:13:17Z</time>
      </trkpt>
      <trkpt lat="43.08967" lon="2.5746">
        <ele>264.5</ele>
        <time>2014-10-30T12:13:53Z</time>
      </trkpt>
      <trkpt lat="43.08967" lon="2.5746">
        <ele>264.02</ele>
        <time>2014-10-30T12:14:34Z</time>
      </trkpt>
      <trkpt lat="43.08967" lon="2.57461">
        <ele>264.02</ele>
        <time>2014-10-30T12:15:14Z</time>
      </trkpt>
      <trkpt lat="43.08967" lon="2.57461">
        <ele>263.54</ele>
        <time>2014-10-30T12:15:53Z</time>
      </trkpt>
      <trkpt lat="43.08967" lon="2.57461">
        <ele>263.54</ele>
        <time>2014-10-30T12:16:33Z</time>
      </trkpt>
      <trkpt lat="43.08968" lon="2.57461">
        <ele>263.54</ele>
        <time>2014-10-30T12:17:13Z</time>
      </trkpt>
      <trkpt lat="43.08969" lon="2.5746">
        <ele>263.54</ele>
        <time>2014-10-30T12:17:53Z</time>
      </trkpt>
      <trkpt lat="43.08969" lon="2.5746">
        <ele>263.06</ele>
        <time>2014-10-30T12:18:33Z</time>
      </trkpt>
      <trkpt lat="43.08968" lon="2.57461">
        <ele>263.06</ele>
        <time>2014-10-30T12:19:17Z</time>
      </trkpt>
      <trkpt lat="43.08968" lon="2.5746">
        <ele>263.06</ele>
        <time>2014-10-30T12:20:00Z</time>
      </trkpt>
      <trkpt lat="43.08967" lon="2.5746">
        <ele>263.06</ele>
        <time>2014-10-30T12:20:37Z</time>
      </trkpt>
      <trkpt lat="43.08967" lon="2.57461">
        <ele>263.06</ele>
        <time>2014-10-30T12:21:09Z</time>
      </trkpt>
      <trkpt lat="43.08967" lon="2.57462">
        <ele>262.58</ele>
        <time>2014-10-30T12:21:38Z</time>
      </trkpt>
      <trkpt lat="43.08967" lon="2.57462">
        <ele>262.58</ele>
        <time>2014-10-30T12:22:12Z</time>
      </trkpt>
      <trkpt lat="43.08967" lon="2.57463">
        <ele>262.1</ele>
        <time>2014-10-30T12:22:51Z</time>
      </trkpt>
      <trkpt lat="43.08968" lon="2.57463">
        <ele>262.1</ele>
        <time>2014-10-30T12:23:34Z</time>
      </trkpt>
      <trkpt lat="43.08967" lon="2.57464">
        <ele>262.1</ele>
        <time>2014-10-30T12:24:16Z</time>
      </trkpt>
      <trkpt lat="43.08967" lon="2.57465">
        <ele>261.62</ele>
        <time>2014-10-30T12:24:56Z</time>
      </trkpt>
      <trkpt lat="43.08966" lon="2.57466">
        <ele>261.62</ele>
        <time>2014-10-30T12:25:34Z</time>
      </trkpt>
      <trkpt lat="43.08966" lon="2.57466">
        <ele>261.14</ele>
        <time>2014-10-30T12:26:11Z</time>
      </trkpt>
      <trkpt lat="43.08966" lon="2.57465">
        <ele>261.14</ele>
        <time>2014-10-30T12:26:56Z</time>
      </trkpt>
      <trkpt lat="43.08966" lon="2.57463">
        <ele>261.62</ele>
        <time>2014-10-30T12:27:15Z</time>
      </trkpt>
      <trkpt lat="43.08967" lon="2.57463">
        <ele>262.1</ele>
        <time>2014-10-30T12:27:33Z</time>
      </trkpt>
      <trkpt lat="43.08968" lon="2.57462">
        <ele>262.1</ele>
        <time>2014-10-30T12:27:57Z</time>
      </trkpt>
      <trkpt lat="43.08968" lon="2.57462">
        <ele>268.35</ele>
        <time>2014-10-30T12:28:23Z</time>
      </trkpt>
      <trkpt lat="43.08968" lon="2.57462">
        <ele>262.1</ele>
        <time>2014-10-30T12:28:25Z</time>
      </trkpt>
      <trkpt lat="43.08968" lon="2.57462">
        <ele>256.33</ele>
        <time>2014-10-30T12:28:26Z</time>
      </trkpt>
      <trkpt lat="43.08968" lon="2.57462">
        <ele>261.62</ele>
        <time>2014-10-30T12:28:27Z</time>
      </trkpt>
      <trkpt lat="43.08968" lon="2.57462">
        <ele>263.06</ele>
        <time>2014-10-30T12:28:29Z</time>
      </trkpt>
      <trkpt lat="43.08968" lon="2.57462">
        <ele>259.21</ele>
        <time>2014-10-30T12:28:30Z</time>
      </trkpt>
      <trkpt lat="43.08968" lon="2.57462">
        <ele>268.35</ele>
        <time>2014-10-30T12:28:31Z</time>
      </trkpt>
      <trkpt lat="43.08968" lon="2.57462">
        <ele>261.62</ele>
        <time>2014-10-30T12:28:32Z</time>
      </trkpt>
      <trkpt lat="43.08968" lon="2.57462">
        <ele>256.81</ele>
        <time>2014-10-30T12:28:40Z</time>
      </trkpt>
      <trkpt lat="43.08968" lon="2.57462">
        <ele>250.56</ele>
        <time>2014-10-30T12:28:42Z</time>
      </trkpt>
      <trkpt lat="43.08968" lon="2.57462">
        <ele>264.5</ele>
        <time>2014-10-30T12:28:43Z</time>
      </trkpt>
      <trkpt lat="43.08968" lon="2.57462">
        <ele>260.17</ele>
        <time>2014-10-30T12:28:44Z</time>
      </trkpt>
      <trkpt lat="43.08968" lon="2.57462">
        <ele>267.86</ele>
        <time>2014-10-30T12:28:45Z</time>
      </trkpt>
      <trkpt lat="43.08968" lon="2.57462">
        <ele>262.1</ele>
        <time>2014-10-30T12:28:46Z</time>
      </trkpt>
      <trkpt lat="43.08968" lon="2.57462">
        <ele>261.14</ele>
        <time>2014-10-30T12:29:03Z</time>
      </trkpt>
      <trkpt lat="43.08968" lon="2.57463">
        <ele>261.62</ele>
        <time>2014-10-30T12:29:36Z</time>
      </trkpt>
      <trkpt lat="43.08968" lon="2.57463">
        <ele>261.62</ele>
        <time>2014-10-30T12:30:01Z</time>
      </trkpt>
      <trkpt lat="43.08969" lon="2.57464">
        <ele>261.14</ele>
        <time>2014-10-30T12:30:18Z</time>
      </trkpt>
      <trkpt lat="43.08969" lon="2.57464">
        <ele>261.62</ele>
        <time>2014-10-30T12:30:48Z</time>
      </trkpt>
      <trkpt lat="43.0897" lon="2.57464">
        <ele>261.14</ele>
        <time>2014-10-30T12:31:20Z</time>
      </trkpt>
      <trkpt lat="43.08969" lon="2.57464">
        <ele>261.62</ele>
        <time>2014-10-30T12:32:02Z</time>
      </trkpt>
      <trkpt lat="43.08969" lon="2.57464">
        <ele>261.62</ele>
        <time>2014-10-30T12:32:38Z</time>
      </trkpt>
      <trkpt lat="43.0897" lon="2.57466">
        <ele>261.62</ele>
        <time>2014-10-30T12:33:16Z</time>
      </trkpt>
      <trkpt lat="43.0897" lon="2.57465">
        <ele>261.14</ele>
        <time>2014-10-30T12:33:48Z</time>
      </trkpt>
      <trkpt lat="43.08969" lon="2.57465">
        <ele>261.14</ele>
        <time>2014-10-30T12:34:16Z</time>
      </trkpt>
      <trkpt lat="43.08969" lon="2.57464">
        <ele>261.62</ele>
        <time>2014-10-30T12:34:44Z</time>
      </trkpt>
      <trkpt lat="43.08969" lon="2.57464">
        <ele>261.62</ele>
        <time>2014-10-30T12:35:16Z</time>
      </trkpt>
      <trkpt lat="43.08969" lon="2.57464">
        <ele>261.62</ele>
        <time>2014-10-30T12:35:45Z</time>
      </trkpt>
      <trkpt lat="43.0897" lon="2.57463">
        <ele>261.62</ele>
        <time>2014-10-30T12:36:14Z</time>
      </trkpt>
      <trkpt lat="43.0897" lon="2.57463">
        <ele>261.62</ele>
        <time>2014-10-30T12:36:43Z</time>
      </trkpt>
      <trkpt lat="43.08971" lon="2.57463">
        <ele>262.1</ele>
        <time>2014-10-30T12:37:18Z</time>
      </trkpt>
      <trkpt lat="43.0897" lon="2.57464">
        <ele>262.1</ele>
        <time>2014-10-30T12:37:34Z</time>
      </trkpt>
      <trkpt lat="43.0897" lon="2.57464">
        <ele>262.1</ele>
        <time>2014-10-30T12:38:03Z</time>
      </trkpt>
      <trkpt lat="43.0897" lon="2.57464">
        <ele>263.06</ele>
        <time>2014-10-30T12:38:29Z</time>
      </trkpt>
      <trkpt lat="43.08971" lon="2.57463">
        <ele>263.06</ele>
        <time>2014-10-30T12:38:58Z</time>
      </trkpt>
      <trkpt lat="43.08971" lon="2.57462">
        <ele>263.06</ele>
        <time>2014-10-30T12:39:22Z</time>
      </trkpt>
      <trkpt lat="43.08971" lon="2.57462">
        <ele>263.54</ele>
        <time>2014-10-30T12:39:37Z</time>
      </trkpt>
      <trkpt lat="43.08971" lon="2.57462">
        <ele>263.54</ele>
        <time>2014-10-30T12:39:58Z</time>
      </trkpt>
      <trkpt lat="43.08971" lon="2.57463">
        <ele>263.06</ele>
        <time>2014-10-30T12:40:33Z</time>
      </trkpt>
      <trkpt lat="43.08971" lon="2.57464">
        <ele>262.58</ele>
        <time>2014-10-30T12:40:59Z</time>
      </trkpt>
      <trkpt lat="43.08972" lon="2.57464">
        <ele>263.06</ele>
        <time>2014-10-30T12:41:26Z</time>
      </trkpt>
      <trkpt lat="43.08972" lon="2.57464">
        <ele>263.06</ele>
        <time>2014-10-30T12:41:44Z</time>
      </trkpt>
      <trkpt lat="43.08971" lon="2.57465">
        <ele>263.06</ele>
        <time>2014-10-30T12:42:06Z</time>
      </trkpt>
      <trkpt lat="43.0897" lon="2.57465">
        <ele>263.06</ele>
        <time>2014-10-30T12:42:24Z</time>
      </trkpt>
      <trkpt lat="43.0897" lon="2.57465">
        <ele>263.06</ele>
        <time>2014-10-30T12:42:43Z</time>
      </trkpt>
      <trkpt lat="43.0897" lon="2.57466">
        <ele>262.58</ele>
        <time>2014-10-30T12:43:02Z</time>
      </trkpt>
      <trkpt lat="43.08969" lon="2.57465">
        <ele>263.06</ele>
        <time>2014-10-30T12:43:19Z</time>
      </trkpt>
      <trkpt lat="43.0897" lon="2.57466">
        <ele>263.06</ele>
        <time>2014-10-30T12:43:43Z</time>
      </trkpt>
      <trkpt lat="43.08969" lon="2.57466">
        <ele>262.58</ele>
        <time>2014-10-30T12:44:06Z</time>
      </trkpt>
      <trkpt lat="43.08968" lon="2.57465">
        <ele>263.06</ele>
        <time>2014-10-30T12:44:24Z</time>
      </trkpt>
      <trkpt lat="43.08969" lon="2.57465">
        <ele>263.06</ele>
        <time>2014-10-30T12:44:45Z</time>
      </trkpt>
      <trkpt lat="43.08969" lon="2.57466">
        <ele>263.06</ele>
        <time>2014-10-30T12:45:11Z</time>
      </trkpt>
      <trkpt lat="43.08968" lon="2.57466">
        <ele>262.58</ele>
        <time>2014-10-30T12:45:38Z</time>
      </trkpt>
      <trkpt lat="43.08968" lon="2.57466">
        <ele>263.06</ele>
        <time>2014-10-30T12:45:59Z</time>
      </trkpt>
      <trkpt lat="43.08968" lon="2.57466">
        <ele>262.58</ele>
        <time>2014-10-30T12:46:22Z</time>
      </trkpt>
      <trkpt lat="43.08968" lon="2.57466">
        <ele>262.1</ele>
        <time>2014-10-30T12:46:44Z</time>
      </trkpt>
      <trkpt lat="43.08969" lon="2.57466">
        <ele>262.58</ele>
        <time>2014-10-30T12:47:06Z</time>
      </trkpt>
      <trkpt lat="43.0897" lon="2.57466">
        <ele>262.58</ele>
        <time>2014-10-30T12:47:21Z</time>
      </trkpt>
      <trkpt lat="43.0897" lon="2.57465">
        <ele>262.58</ele>
        <time>2014-10-30T12:47:48Z</time>
      </trkpt>
      <trkpt lat="43.08969" lon="2.57464">
        <ele>262.58</ele>
        <time>2014-10-30T12:48:12Z</time>
      </trkpt>
      <trkpt lat="43.08969" lon="2.57463">
        <ele>262.1</ele>
        <time>2014-10-30T12:48:37Z</time>
      </trkpt>
      <trkpt lat="43.08969" lon="2.57461">
        <ele>262.58</ele>
        <time>2014-10-30T12:49:00Z</time>
      </trkpt>
      <trkpt lat="43.08969" lon="2.57461">
        <ele>262.58</ele>
        <time>2014-10-30T12:49:25Z</time>
      </trkpt>
      <trkpt lat="43.08969" lon="2.57462">
        <ele>262.1</ele>
        <time>2014-10-30T12:49:52Z</time>
      </trkpt>
      <trkpt lat="43.08969" lon="2.57461">
        <ele>262.58</ele>
        <time>2014-10-30T12:50:12Z</time>
      </trkpt>
      <trkpt lat="43.08969" lon="2.57463">
        <ele>262.1</ele>
        <time>2014-10-30T12:50:43Z</time>
      </trkpt>
      <trkpt lat="43.08969" lon="2.57465">
        <ele>262.1</ele>
        <time>2014-10-30T12:51:25Z</time>
      </trkpt>
      <trkpt lat="43.08968" lon="2.57465">
        <ele>262.58</ele>
        <time>2014-10-30T12:51:52Z</time>
      </trkpt>
      <trkpt lat="43.08968" lon="2.57465">
        <ele>262.58</ele>
        <time>2014-10-30T12:52:13Z</time>
      </trkpt>
      <trkpt lat="43.08968" lon="2.57464">
        <ele>262.1</ele>
        <time>2014-10-30T12:52:21Z</time>
      </trkpt>
      <trkpt lat="43.08966" lon="2.57454">
        <ele>262.1</ele>
        <time>2014-10-30T12:52:34Z</time>
      </trkpt>
      <trkpt lat="43.08969" lon="2.57438">
        <ele>261.62</ele>
        <time>2014-10-30T12:52:49Z</time>
      </trkpt>
      <trkpt lat="43.08969" lon="2.57434">
        <ele>261.14</ele>
        <time>2014-10-30T12:52:52Z</time>
      </trkpt>
      <trkpt lat="43.08961" lon="2.57418">
        <ele>262.1</ele>
        <time>2014-10-30T12:53:08Z</time>
      </trkpt>
      <trkpt lat="43.08959" lon="2.57413">
        <ele>261.14</ele>
        <time>2014-10-30T12:53:23Z</time>
      </trkpt>
      <trkpt lat="43.08958" lon="2.57409">
        <ele>260.17</ele>
        <time>2014-10-30T12:53:39Z</time>
      </trkpt>
      <trkpt lat="43.08958" lon="2.57403">
        <ele>260.17</ele>
        <time>2014-10-30T12:53:52Z</time>
      </trkpt>
      <trkpt lat="43.08959" lon="2.574">
        <ele>259.69</ele>
        <time>2014-10-30T12:54:17Z</time>
      </trkpt>
      <trkpt lat="43.08959" lon="2.57399">
        <ele>259.69</ele>
        <time>2014-10-30T12:54:42Z</time>
      </trkpt>
      <trkpt lat="43.08958" lon="2.574">
        <ele>259.69</ele>
        <time>2014-10-30T12:55:09Z</time>
      </trkpt>
      <trkpt lat="43.08958" lon="2.57398">
        <ele>260.17</ele>
        <time>2014-10-30T12:55:21Z</time>
      </trkpt>
      <trkpt lat="43.08957" lon="2.574">
        <ele>260.17</ele>
        <time>2014-10-30T12:55:36Z</time>
      </trkpt>
      <trkpt lat="43.08957" lon="2.57399">
        <ele>259.21</ele>
        <time>2014-10-30T12:55:53Z</time>
      </trkpt>
      <trkpt lat="43.08958" lon="2.57398">
        <ele>259.69</ele>
        <time>2014-10-30T12:56:08Z</time>
      </trkpt>
      <trkpt lat="43.08957" lon="2.574">
        <ele>259.69</ele>
        <time>2014-10-30T12:56:20Z</time>
      </trkpt>
      <trkpt lat="43.08956" lon="2.57401">
        <ele>260.17</ele>
        <time>2014-10-30T12:57:00Z</time>
      </trkpt>
      <trkpt lat="43.08956" lon="2.57401">
        <ele>260.17</ele>
        <time>2014-10-30T12:57:29Z</time>
      </trkpt>
      <trkpt lat="43.08957" lon="2.57402">
        <ele>259.69</ele>
        <time>2014-10-30T12:57:51Z</time>
      </trkpt>
      <trkpt lat="43.08956" lon="2.57415">
        <ele>261.62</ele>
        <time>2014-10-30T12:58:05Z</time>
      </trkpt>
      <trkpt lat="43.08956" lon="2.57416">
        <ele>261.14</ele>
        <time>2014-10-30T12:58:06Z</time>
      </trkpt>
      <trkpt lat="43.08952" lon="2.57424">
        <ele>261.62</ele>
        <time>2014-10-30T12:58:20Z</time>
      </trkpt>
      <trkpt lat="43.08947" lon="2.57437">
        <ele>262.1</ele>
        <time>2014-10-30T12:58:33Z</time>
      </trkpt>
      <trkpt lat="43.08947" lon="2.57454">
        <ele>262.1</ele>
        <time>2014-10-30T12:58:47Z</time>
      </trkpt>
      <trkpt lat="43.08948" lon="2.57463">
        <ele>262.1</ele>
        <time>2014-10-30T12:58:54Z</time>
      </trkpt>
      <trkpt lat="43.08946" lon="2.57477">
        <ele>262.58</ele>
        <time>2014-10-30T12:59:08Z</time>
      </trkpt>
      <trkpt lat="43.08946" lon="2.57486">
        <ele>263.06</ele>
        <time>2014-10-30T12:59:23Z</time>
      </trkpt>
      <trkpt lat="43.08946" lon="2.57487">
        <ele>263.54</ele>
        <time>2014-10-30T12:59:24Z</time>
      </trkpt>
      <trkpt lat="43.08937" lon="2.57503">
        <ele>265.46</ele>
        <time>2014-10-30T12:59:39Z</time>
      </trkpt>
      <trkpt lat="43.08932" lon="2.57511">
        <ele>266.42</ele>
        <time>2014-10-30T12:59:51Z</time>
      </trkpt>
      <trkpt lat="43.08929" lon="2.57519">
        <ele>265.46</ele>
        <time>2014-10-30T13:00:04Z</time>
      </trkpt>
      <trkpt lat="43.08926" lon="2.57526">
        <ele>264.98</ele>
        <time>2014-10-30T13:00:10Z</time>
      </trkpt>
      <trkpt lat="43.08915" lon="2.57541">
        <ele>264.5</ele>
        <time>2014-10-30T13:00:25Z</time>
      </trkpt>
      <trkpt lat="43.08906" lon="2.57552">
        <ele>263.06</ele>
        <time>2014-10-30T13:00:39Z</time>
      </trkpt>
      <trkpt lat="43.08898" lon="2.5756">
        <ele>261.14</ele>
        <time>2014-10-30T13:00:51Z</time>
      </trkpt>
      <trkpt lat="43.08892" lon="2.57571">
        <ele>259.21</ele>
        <time>2014-10-30T13:01:03Z</time>
      </trkpt>
      <trkpt lat="43.08887" lon="2.57583">
        <ele>257.77</ele>
        <time>2014-10-30T13:01:13Z</time>
      </trkpt>
      <trkpt lat="43.08883" lon="2.5759">
        <ele>256.81</ele>
        <time>2014-10-30T13:01:20Z</time>
      </trkpt>
      <trkpt lat="43.08879" lon="2.57595">
        <ele>256.81</ele>
        <time>2014-10-30T13:01:24Z</time>
      </trkpt>
      <trkpt lat="43.08877" lon="2.57601">
        <ele>256.33</ele>
        <time>2014-10-30T13:01:29Z</time>
      </trkpt>
      <trkpt lat="43.08871" lon="2.57619">
        <ele>254.89</ele>
        <time>2014-10-30T13:01:43Z</time>
      </trkpt>
      <trkpt lat="43.08869" lon="2.57629">
        <ele>253.93</ele>
        <time>2014-10-30T13:01:57Z</time>
      </trkpt>
      <trkpt lat="43.08867" lon="2.57631">
        <ele>253.93</ele>
        <time>2014-10-30T13:02:00Z</time>
      </trkpt>
      <trkpt lat="43.08864" lon="2.57636">
        <ele>253.93</ele>
        <time>2014-10-30T13:02:05Z</time>
      </trkpt>
      <trkpt lat="43.0886" lon="2.57645">
        <ele>253.44</ele>
        <time>2014-10-30T13:02:11Z</time>
      </trkpt>
      <trkpt lat="43.08851" lon="2.57668">
        <ele>253.93</ele>
        <time>2014-10-30T13:02:26Z</time>
      </trkpt>
      <trkpt lat="43.08847" lon="2.57672">
        <ele>253.44</ele>
        <time>2014-10-30T13:02:30Z</time>
      </trkpt>
      <trkpt lat="43.08843" lon="2.57673">
        <ele>253.44</ele>
        <time>2014-10-30T13:02:35Z</time>
      </trkpt>
      <trkpt lat="43.08835" lon="2.57667">
        <ele>252.96</ele>
        <time>2014-10-30T13:02:46Z</time>
      </trkpt>
      <trkpt lat="43.08826" lon="2.57662">
        <ele>252.48</ele>
        <time>2014-10-30T13:03:00Z</time>
      </trkpt>
      <trkpt lat="43.08821" lon="2.57657">
        <ele>251.52</ele>
        <time>2014-10-30T13:03:14Z</time>
      </trkpt>
      <trkpt lat="43.0882" lon="2.57657">
        <ele>251.52</ele>
        <time>2014-10-30T13:03:42Z</time>
      </trkpt>
      <trkpt lat="43.08821" lon="2.57659">
        <ele>252</ele>
        <time>2014-10-30T13:03:52Z</time>
      </trkpt>
      <trkpt lat="43.08823" lon="2.57661">
        <ele>252.48</ele>
        <time>2014-10-30T13:03:55Z</time>
      </trkpt>
      <trkpt lat="43.08837" lon="2.57669">
        <ele>252.96</ele>
        <time>2014-10-30T13:04:09Z</time>
      </trkpt>
      <trkpt lat="43.08841" lon="2.5768">
        <ele>253.93</ele>
        <time>2014-10-30T13:04:23Z</time>
      </trkpt>
      <trkpt lat="43.08841" lon="2.5768">
        <ele>253.93</ele>
        <time>2014-10-30T13:04:50Z</time>
      </trkpt>
      <trkpt lat="43.0884" lon="2.57677">
        <ele>253.44</ele>
        <time>2014-10-30T13:05:11Z</time>
      </trkpt>
      <trkpt lat="43.08831" lon="2.57665">
        <ele>252</ele>
        <time>2014-10-30T13:05:25Z</time>
      </trkpt>
      <trkpt lat="43.08822" lon="2.57656">
        <ele>251.04</ele>
        <time>2014-10-30T13:05:38Z</time>
      </trkpt>
      <trkpt lat="43.08816" lon="2.57644">
        <ele>249.6</ele>
        <time>2014-10-30T13:05:51Z</time>
      </trkpt>
      <trkpt lat="43.08813" lon="2.57637">
        <ele>248.16</ele>
        <time>2014-10-30T13:05:57Z</time>
      </trkpt>
      <trkpt lat="43.08813" lon="2.57631">
        <ele>248.16</ele>
        <time>2014-10-30T13:06:01Z</time>
      </trkpt>
      <trkpt lat="43.08811" lon="2.57625">
        <ele>247.2</ele>
        <time>2014-10-30T13:06:06Z</time>
      </trkpt>
      <trkpt lat="43.0881" lon="2.57607">
        <ele>247.2</ele>
        <time>2014-10-30T13:06:19Z</time>
      </trkpt>
      <trkpt lat="43.08809" lon="2.57598">
        <ele>246.72</ele>
        <time>2014-10-30T13:06:35Z</time>
      </trkpt>
      <trkpt lat="43.0881" lon="2.57598">
        <ele>247.68</ele>
        <time>2014-10-30T13:06:52Z</time>
      </trkpt>
      <trkpt lat="43.08807" lon="2.57588">
        <ele>246.72</ele>
        <time>2014-10-30T13:06:59Z</time>
      </trkpt>
      <trkpt lat="43.08803" lon="2.57571">
        <ele>245.27</ele>
        <time>2014-10-30T13:07:10Z</time>
      </trkpt>
      <trkpt lat="43.08803" lon="2.57566">
        <ele>244.79</ele>
        <time>2014-10-30T13:07:13Z</time>
      </trkpt>
      <trkpt lat="43.088" lon="2.5755">
        <ele>243.35</ele>
        <time>2014-10-30T13:07:23Z</time>
      </trkpt>
      <trkpt lat="43.08799" lon="2.57538">
        <ele>242.87</ele>
        <time>2014-10-30T13:07:30Z</time>
      </trkpt>
      <trkpt lat="43.08797" lon="2.57526">
        <ele>242.39</ele>
        <time>2014-10-30T13:07:38Z</time>
      </trkpt>
      <trkpt lat="43.08794" lon="2.57504">
        <ele>240.47</ele>
        <time>2014-10-30T13:07:50Z</time>
      </trkpt>
      <trkpt lat="43.08792" lon="2.57496">
        <ele>239.51</ele>
        <time>2014-10-30T13:07:55Z</time>
      </trkpt>
      <trkpt lat="43.08789" lon="2.57474">
        <ele>237.58</ele>
        <time>2014-10-30T13:08:08Z</time>
      </trkpt>
      <trkpt lat="43.08783" lon="2.57459">
        <ele>236.14</ele>
        <time>2014-10-30T13:08:20Z</time>
      </trkpt>
      <trkpt lat="43.08786" lon="2.57448">
        <ele>236.62</ele>
        <time>2014-10-30T13:08:31Z</time>
      </trkpt>
      <trkpt lat="43.08786" lon="2.57447">
        <ele>235.66</ele>
        <time>2014-10-30T13:08:32Z</time>
      </trkpt>
      <trkpt lat="43.08794" lon="2.57421">
        <ele>237.1</ele>
        <time>2014-10-30T13:08:47Z</time>
      </trkpt>
      <trkpt lat="43.08793" lon="2.57405">
        <ele>236.14</ele>
        <time>2014-10-30T13:09:01Z</time>
      </trkpt>
      <trkpt lat="43.08795" lon="2.57383">
        <ele>235.18</ele>
        <time>2014-10-30T13:09:14Z</time>
      </trkpt>
      <trkpt lat="43.08798" lon="2.57363">
        <ele>233.26</ele>
        <time>2014-10-30T13:09:23Z</time>
      </trkpt>
      <trkpt lat="43.08798" lon="2.57337">
        <ele>231.81</ele>
        <time>2014-10-30T13:09:36Z</time>
      </trkpt>
      <trkpt lat="43.08797" lon="2.57333">
        <ele>231.81</ele>
        <time>2014-10-30T13:09:38Z</time>
      </trkpt>
      <trkpt lat="43.08797" lon="2.57329">
        <ele>231.33</ele>
        <time>2014-10-30T13:09:40Z</time>
      </trkpt>
      <trkpt lat="43.08796" lon="2.57307">
        <ele>229.89</ele>
        <time>2014-10-30T13:09:53Z</time>
      </trkpt>
      <trkpt lat="43.08798" lon="2.57289">
        <ele>227.97</ele>
        <time>2014-10-30T13:10:05Z</time>
      </trkpt>
      <trkpt lat="43.08801" lon="2.5727">
        <ele>227.97</ele>
        <time>2014-10-30T13:10:19Z</time>
      </trkpt>
      <trkpt lat="43.08805" lon="2.5726">
        <ele>224.61</ele>
        <time>2014-10-30T13:10:32Z</time>
      </trkpt>
      <trkpt lat="43.08808" lon="2.57256">
        <ele>224.61</ele>
        <time>2014-10-30T13:10:36Z</time>
      </trkpt>
      <trkpt lat="43.08817" lon="2.57239">
        <ele>222.2</ele>
        <time>2014-10-30T13:10:48Z</time>
      </trkpt>
      <trkpt lat="43.08821" lon="2.57234">
        <ele>220.76</ele>
        <time>2014-10-30T13:10:59Z</time>
      </trkpt>
      <trkpt lat="43.08833" lon="2.57228">
        <ele>218.84</ele>
        <time>2014-10-30T13:11:12Z</time>
      </trkpt>
      <trkpt lat="43.08838" lon="2.57225">
        <ele>217.4</ele>
        <time>2014-10-30T13:11:17Z</time>
      </trkpt>
      <trkpt lat="43.08847" lon="2.57211">
        <ele>215.95</ele>
        <time>2014-10-30T13:11:33Z</time>
      </trkpt>
      <trkpt lat="43.08854" lon="2.57191">
        <ele>215.95</ele>
        <time>2014-10-30T13:11:45Z</time>
      </trkpt>
      <trkpt lat="43.08856" lon="2.57167">
        <ele>213.55</ele>
        <time>2014-10-30T13:12:01Z</time>
      </trkpt>
      <trkpt lat="43.0886" lon="2.5715">
        <ele>210.67</ele>
        <time>2014-10-30T13:12:16Z</time>
      </trkpt>
      <trkpt lat="43.08864" lon="2.57133">
        <ele>207.78</ele>
        <time>2014-10-30T13:12:30Z</time>
      </trkpt>
      <trkpt lat="43.08865" lon="2.5712">
        <ele>204.9</ele>
        <time>2014-10-30T13:12:42Z</time>
      </trkpt>
      <trkpt lat="43.08864" lon="2.57103">
        <ele>202.49</ele>
        <time>2014-10-30T13:12:54Z</time>
      </trkpt>
      <trkpt lat="43.08869" lon="2.57094">
        <ele>201.53</ele>
        <time>2014-10-30T13:13:08Z</time>
      </trkpt>
      <trkpt lat="43.0887" lon="2.57083">
        <ele>198.65</ele>
        <time>2014-10-30T13:13:23Z</time>
      </trkpt>
      <trkpt lat="43.08866" lon="2.57082">
        <ele>196.73</ele>
        <time>2014-10-30T13:13:37Z</time>
      </trkpt>
      <trkpt lat="43.08864" lon="2.57084">
        <ele>196.25</ele>
        <time>2014-10-30T13:13:53Z</time>
      </trkpt>
      <trkpt lat="43.08864" lon="2.57082">
        <ele>183.75</ele>
        <time>2014-10-30T13:14:09Z</time>
      </trkpt>
      <trkpt lat="43.08864" lon="2.57082">
        <ele>198.65</ele>
        <time>2014-10-30T13:14:10Z</time>
      </trkpt>
      <trkpt lat="43.08864" lon="2.57082">
        <ele>190.48</ele>
        <time>2014-10-30T13:14:11Z</time>
      </trkpt>
      <trkpt lat="43.08864" lon="2.57081">
        <ele>207.78</ele>
        <time>2014-10-30T13:14:12Z</time>
      </trkpt>
      <trkpt lat="43.08864" lon="2.57081">
        <ele>196.73</ele>
        <time>2014-10-30T13:14:13Z</time>
      </trkpt>
      <trkpt lat="43.08864" lon="2.57081">
        <ele>189.52</ele>
        <time>2014-10-30T13:14:25Z</time>
      </trkpt>
      <trkpt lat="43.08864" lon="2.57081">
        <ele>197.21</ele>
        <time>2014-10-30T13:14:26Z</time>
      </trkpt>
      <trkpt lat="43.08864" lon="2.57081">
        <ele>193.36</ele>
        <time>2014-10-30T13:14:28Z</time>
      </trkpt>
      <trkpt lat="43.08864" lon="2.57081">
        <ele>196.73</ele>
        <time>2014-10-30T13:14:29Z</time>
      </trkpt>
      <trkpt lat="43.08864" lon="2.57081">
        <ele>196.73</ele>
        <time>2014-10-30T13:14:36Z</time>
      </trkpt>
      <trkpt lat="43.08865" lon="2.57081">
        <ele>195.77</ele>
        <time>2014-10-30T13:14:59Z</time>
      </trkpt>
      <trkpt lat="43.08867" lon="2.57081">
        <ele>204.9</ele>
        <time>2014-10-30T13:15:25Z</time>
      </trkpt>
      <trkpt lat="43.08867" lon="2.57081">
        <ele>196.73</ele>
        <time>2014-10-30T13:15:26Z</time>
      </trkpt>
      <trkpt lat="43.08872" lon="2.57074">
        <ele>194.32</ele>
        <time>2014-10-30T13:15:33Z</time>
      </trkpt>
      <trkpt lat="43.08877" lon="2.57072">
        <ele>193.84</ele>
        <time>2014-10-30T13:15:38Z</time>
      </trkpt>
      <trkpt lat="43.08883" lon="2.57067">
        <ele>192.4</ele>
        <time>2014-10-30T13:15:43Z</time>
      </trkpt>
      <trkpt lat="43.08887" lon="2.57062">
        <ele>189.04</ele>
        <time>2014-10-30T13:15:52Z</time>
      </trkpt>
      <trkpt lat="43.08896" lon="2.57054">
        <ele>188.08</ele>
        <time>2014-10-30T13:16:05Z</time>
      </trkpt>
      <trkpt lat="43.08898" lon="2.57049">
        <ele>186.63</ele>
        <time>2014-10-30T13:16:09Z</time>
      </trkpt>
      <trkpt lat="43.08903" lon="2.57041">
        <ele>185.19</ele>
        <time>2014-10-30T13:16:16Z</time>
      </trkpt>
      <trkpt lat="43.08908" lon="2.57035">
        <ele>181.83</ele>
        <time>2014-10-30T13:16:23Z</time>
      </trkpt>
      <trkpt lat="43.08909" lon="2.57022">
        <ele>178.46</ele>
        <time>2014-10-30T13:16:33Z</time>
      </trkpt>
      <trkpt lat="43.08919" lon="2.57017">
        <ele>175.1</ele>
        <time>2014-10-30T13:16:42Z</time>
      </trkpt>
      <trkpt lat="43.08921" lon="2.57017">
        <ele>175.58</ele>
        <time>2014-10-30T13:16:43Z</time>
      </trkpt>
      <trkpt lat="43.08938" lon="2.57021">
        <ele>172.69</ele>
        <time>2014-10-30T13:17:00Z</time>
      </trkpt>
      <trkpt lat="43.0894" lon="2.57018">
        <ele>171.73</ele>
        <time>2014-10-30T13:17:04Z</time>
      </trkpt>
      <trkpt lat="43.08942" lon="2.57011">
        <ele>168.85</ele>
        <time>2014-10-30T13:17:17Z</time>
      </trkpt>
      <trkpt lat="43.08943" lon="2.57007">
        <ele>166.45</ele>
        <time>2014-10-30T13:17:22Z</time>
      </trkpt>
      <trkpt lat="43.08949" lon="2.56995">
        <ele>167.89</ele>
        <time>2014-10-30T13:17:36Z</time>
      </trkpt>
      <trkpt lat="43.08951" lon="2.56994">
        <ele>165.96</ele>
        <time>2014-10-30T13:17:38Z</time>
      </trkpt>
      <trkpt lat="43.08954" lon="2.57006">
        <ele>166.45</ele>
        <time>2014-10-30T13:17:50Z</time>
      </trkpt>
      <trkpt lat="43.08954" lon="2.57006">
        <ele>164.04</ele>
        <time>2014-10-30T13:17:53Z</time>
      </trkpt>
      <trkpt lat="43.08956" lon="2.56998">
        <ele>166.45</ele>
        <time>2014-10-30T13:18:07Z</time>
      </trkpt>
      <trkpt lat="43.08956" lon="2.56999">
        <ele>162.6</ele>
        <time>2014-10-30T13:18:20Z</time>
      </trkpt>
      <trkpt lat="43.08944" lon="2.56992">
        <ele>166.93</ele>
        <time>2014-10-30T13:18:34Z</time>
      </trkpt>
      <trkpt lat="43.08944" lon="2.57">
        <ele>166.93</ele>
        <time>2014-10-30T13:18:46Z</time>
      </trkpt>
      <trkpt lat="43.08941" lon="2.5701">
        <ele>170.29</ele>
        <time>2014-10-30T13:18:53Z</time>
      </trkpt>
      <trkpt lat="43.08941" lon="2.57011">
        <ele>166.93</ele>
        <time>2014-10-30T13:18:54Z</time>
      </trkpt>
      <trkpt lat="43.0894" lon="2.57012">
        <ele>169.81</ele>
        <time>2014-10-30T13:18:55Z</time>
      </trkpt>
      <trkpt lat="43.08939" lon="2.57015">
        <ele>170.29</ele>
        <time>2014-10-30T13:19:00Z</time>
      </trkpt>
      <trkpt lat="43.08941" lon="2.57018">
        <ele>173.66</ele>
        <time>2014-10-30T13:19:07Z</time>
      </trkpt>
      <trkpt lat="43.0894" lon="2.57019">
        <ele>169.81</ele>
        <time>2014-10-30T13:19:08Z</time>
      </trkpt>
      <trkpt lat="43.08936" lon="2.57019">
        <ele>170.77</ele>
        <time>2014-10-30T13:19:16Z</time>
      </trkpt>
      <trkpt lat="43.08934" lon="2.57019">
        <ele>176.06</ele>
        <time>2014-10-30T13:19:18Z</time>
      </trkpt>
      <trkpt lat="43.08933" lon="2.57019">
        <ele>170.29</ele>
        <time>2014-10-30T13:19:19Z</time>
      </trkpt>
      <trkpt lat="43.08933" lon="2.57019">
        <ele>173.66</ele>
        <time>2014-10-30T13:19:20Z</time>
      </trkpt>
      <trkpt lat="43.08931" lon="2.57019">
        <ele>169.81</ele>
        <time>2014-10-30T13:19:22Z</time>
      </trkpt>
      <trkpt lat="43.0893" lon="2.57019">
        <ele>174.14</ele>
        <time>2014-10-30T13:19:23Z</time>
      </trkpt>
      <trkpt lat="43.08928" lon="2.57019">
        <ele>173.17</ele>
        <time>2014-10-30T13:19:28Z</time>
      </trkpt>
      <trkpt lat="43.08925" lon="2.57018">
        <ele>175.1</ele>
        <time>2014-10-30T13:19:31Z</time>
      </trkpt>
      <trkpt lat="43.08922" lon="2.57019">
        <ele>175.1</ele>
        <time>2014-10-30T13:19:34Z</time>
      </trkpt>
      <trkpt lat="43.0892" lon="2.5702">
        <ele>172.21</ele>
        <time>2014-10-30T13:19:37Z</time>
      </trkpt>
      <trkpt lat="43.08919" lon="2.5702">
        <ele>176.06</ele>
        <time>2014-10-30T13:19:38Z</time>
      </trkpt>
      <trkpt lat="43.08914" lon="2.57024">
        <ele>179.42</ele>
        <time>2014-10-30T13:19:47Z</time>
      </trkpt>
      <trkpt lat="43.08913" lon="2.57025">
        <ele>175.1</ele>
        <time>2014-10-30T13:19:50Z</time>
      </trkpt>
      <trkpt lat="43.08913" lon="2.57025">
        <ele>178.46</ele>
        <time>2014-10-30T13:19:51Z</time>
      </trkpt>
      <trkpt lat="43.08908" lon="2.57029">
        <ele>181.83</ele>
        <time>2014-10-30T13:19:58Z</time>
      </trkpt>
      <trkpt lat="43.08908" lon="2.57029">
        <ele>177.02</ele>
        <time>2014-10-30T13:19:59Z</time>
      </trkpt>
      <trkpt lat="43.08907" lon="2.5703">
        <ele>179.9</ele>
        <time>2014-10-30T13:20:02Z</time>
      </trkpt>
      <trkpt lat="43.08907" lon="2.5703">
        <ele>174.14</ele>
        <time>2014-10-30T13:20:03Z</time>
      </trkpt>
      <trkpt lat="43.08907" lon="2.5703">
        <ele>178.94</ele>
        <time>2014-10-30T13:20:04Z</time>
      </trkpt>
      <trkpt lat="43.08909" lon="2.57031">
        <ele>182.79</ele>
        <time>2014-10-30T13:20:07Z</time>
      </trkpt>
      <trkpt lat="43.0891" lon="2.57032">
        <ele>179.42</ele>
        <time>2014-10-30T13:20:08Z</time>
      </trkpt>
      <trkpt lat="43.08909" lon="2.57035">
        <ele>178.46</ele>
        <time>2014-10-30T13:20:14Z</time>
      </trkpt>
      <trkpt lat="43.08905" lon="2.57043">
        <ele>185.19</ele>
        <time>2014-10-30T13:20:23Z</time>
      </trkpt>
      <trkpt lat="43.08904" lon="2.57043">
        <ele>184.23</ele>
        <time>2014-10-30T13:20:24Z</time>
      </trkpt>
      <trkpt lat="43.08904" lon="2.57043">
        <ele>185.67</ele>
        <time>2014-10-30T13:20:25Z</time>
      </trkpt>
      <trkpt lat="43.08903" lon="2.57044">
        <ele>184.23</ele>
        <time>2014-10-30T13:20:27Z</time>
      </trkpt>
      <trkpt lat="43.08898" lon="2.57053">
        <ele>188.56</ele>
        <time>2014-10-30T13:20:38Z</time>
      </trkpt>
      <trkpt lat="43.08897" lon="2.57054">
        <ele>184.23</ele>
        <time>2014-10-30T13:20:41Z</time>
      </trkpt>
      <trkpt lat="43.08895" lon="2.57056">
        <ele>187.59</ele>
        <time>2014-10-30T13:20:43Z</time>
      </trkpt>
      <trkpt lat="43.08888" lon="2.57064">
        <ele>188.08</ele>
        <time>2014-10-30T13:20:55Z</time>
      </trkpt>
      <trkpt lat="43.08884" lon="2.57066">
        <ele>190</ele>
        <time>2014-10-30T13:21:01Z</time>
      </trkpt>
      <trkpt lat="43.08883" lon="2.57067">
        <ele>189.04</ele>
        <time>2014-10-30T13:21:03Z</time>
      </trkpt>
      <trkpt lat="43.08877" lon="2.57072">
        <ele>193.36</ele>
        <time>2014-10-30T13:21:12Z</time>
      </trkpt>
      <trkpt lat="43.08877" lon="2.57072">
        <ele>188.56</ele>
        <time>2014-10-30T13:21:13Z</time>
      </trkpt>
      <trkpt lat="43.08876" lon="2.57073">
        <ele>191.92</ele>
        <time>2014-10-30T13:21:14Z</time>
      </trkpt>
      <trkpt lat="43.08875" lon="2.57074">
        <ele>188.56</ele>
        <time>2014-10-30T13:21:15Z</time>
      </trkpt>
      <trkpt lat="43.08874" lon="2.57075">
        <ele>192.4</ele>
        <time>2014-10-30T13:21:17Z</time>
      </trkpt>
      <trkpt lat="43.08872" lon="2.57077">
        <ele>192.4</ele>
        <time>2014-10-30T13:21:22Z</time>
      </trkpt>
      <trkpt lat="43.08866" lon="2.57083">
        <ele>191.44</ele>
        <time>2014-10-30T13:21:33Z</time>
      </trkpt>
      <trkpt lat="43.08864" lon="2.57084">
        <ele>194.8</ele>
        <time>2014-10-30T13:21:35Z</time>
      </trkpt>
      <trkpt lat="43.08862" lon="2.57091">
        <ele>194.32</ele>
        <time>2014-10-30T13:21:54Z</time>
      </trkpt>
      <trkpt lat="43.08866" lon="2.5709">
        <ele>195.77</ele>
        <time>2014-10-30T13:22:12Z</time>
      </trkpt>
      <trkpt lat="43.0887" lon="2.5709">
        <ele>199.13</ele>
        <time>2014-10-30T13:22:16Z</time>
      </trkpt>
      <trkpt lat="43.08872" lon="2.57091">
        <ele>197.69</ele>
        <time>2014-10-30T13:22:17Z</time>
      </trkpt>
      <trkpt lat="43.08874" lon="2.57091">
        <ele>193.84</ele>
        <time>2014-10-30T13:22:19Z</time>
      </trkpt>
      <trkpt lat="43.08876" lon="2.57091">
        <ele>197.21</ele>
        <time>2014-10-30T13:22:22Z</time>
      </trkpt>
      <trkpt lat="43.08878" lon="2.57092">
        <ele>194.32</ele>
        <time>2014-10-30T13:22:26Z</time>
      </trkpt>
      <trkpt lat="43.08878" lon="2.57093">
        <ele>198.65</ele>
        <time>2014-10-30T13:22:27Z</time>
      </trkpt>
      <trkpt lat="43.08877" lon="2.57096">
        <ele>201.53</ele>
        <time>2014-10-30T13:22:33Z</time>
      </trkpt>
      <trkpt lat="43.08873" lon="2.57099">
        <ele>198.17</ele>
        <time>2014-10-30T13:22:41Z</time>
      </trkpt>
      <trkpt lat="43.08872" lon="2.57102">
        <ele>201.05</ele>
        <time>2014-10-30T13:22:44Z</time>
      </trkpt>
      <trkpt lat="43.08871" lon="2.57104">
        <ele>198.17</ele>
        <time>2014-10-30T13:22:47Z</time>
      </trkpt>
      <trkpt lat="43.0887" lon="2.57107">
        <ele>201.53</ele>
        <time>2014-10-30T13:22:50Z</time>
      </trkpt>
      <trkpt lat="43.08867" lon="2.57115">
        <ele>204.42</ele>
        <time>2014-10-30T13:23:01Z</time>
      </trkpt>
      <trkpt lat="43.08867" lon="2.57115">
        <ele>197.69</ele>
        <time>2014-10-30T13:23:02Z</time>
      </trkpt>
      <trkpt lat="43.08867" lon="2.57116">
        <ele>202.98</ele>
        <time>2014-10-30T13:23:03Z</time>
      </trkpt>
      <trkpt lat="43.08862" lon="2.57127">
        <ele>204.42</ele>
        <time>2014-10-30T13:23:16Z</time>
      </trkpt>
      <trkpt lat="43.08861" lon="2.57129">
        <ele>205.86</ele>
        <time>2014-10-30T13:23:21Z</time>
      </trkpt>
      <trkpt lat="43.0886" lon="2.57135">
        <ele>210.19</ele>
        <time>2014-10-30T13:23:33Z</time>
      </trkpt>
      <trkpt lat="43.08861" lon="2.57136">
        <ele>206.82</ele>
        <time>2014-10-30T13:23:36Z</time>
      </trkpt>
      <trkpt lat="43.08861" lon="2.57138">
        <ele>202.49</ele>
        <time>2014-10-30T13:23:40Z</time>
      </trkpt>
      <trkpt lat="43.08861" lon="2.57138">
        <ele>208.74</ele>
        <time>2014-10-30T13:23:41Z</time>
      </trkpt>
      <trkpt lat="43.0886" lon="2.57145">
        <ele>209.22</ele>
        <time>2014-10-30T13:23:55Z</time>
      </trkpt>
      <trkpt lat="43.0886" lon="2.57151">
        <ele>212.59</ele>
        <time>2014-10-30T13:24:06Z</time>
      </trkpt>
      <trkpt lat="43.08854" lon="2.57164">
        <ele>213.07</ele>
        <time>2014-10-30T13:24:23Z</time>
      </trkpt>
      <trkpt lat="43.0885" lon="2.57178">
        <ele>214.51</ele>
        <time>2014-10-30T13:24:40Z</time>
      </trkpt>
      <trkpt lat="43.08849" lon="2.5718">
        <ele>214.03</ele>
        <time>2014-10-30T13:24:41Z</time>
      </trkpt>
      <trkpt lat="43.08846" lon="2.57185">
        <ele>211.15</ele>
        <time>2014-10-30T13:24:46Z</time>
      </trkpt>
      <trkpt lat="43.08843" lon="2.57192">
        <ele>213.55</ele>
        <time>2014-10-30T13:24:52Z</time>
      </trkpt>
      <trkpt lat="43.0884" lon="2.57196">
        <ele>216.91</ele>
        <time>2014-10-30T13:24:56Z</time>
      </trkpt>
      <trkpt lat="43.08839" lon="2.57198">
        <ele>211.63</ele>
        <time>2014-10-30T13:24:57Z</time>
      </trkpt>
      <trkpt lat="43.08838" lon="2.57198">
        <ele>214.51</ele>
        <time>2014-10-30T13:24:58Z</time>
      </trkpt>
      <trkpt lat="43.08828" lon="2.57208">
        <ele>215.95</ele>
        <time>2014-10-30T13:25:12Z</time>
      </trkpt>
      <trkpt lat="43.08827" lon="2.5721">
        <ele>219.32</ele>
        <time>2014-10-30T13:25:14Z</time>
      </trkpt>
      <trkpt lat="43.08824" lon="2.57213">
        <ele>214.99</ele>
        <time>2014-10-30T13:25:17Z</time>
      </trkpt>
      <trkpt lat="43.08821" lon="2.57213">
        <ele>219.32</ele>
        <time>2014-10-30T13:25:22Z</time>
      </trkpt>
      <trkpt lat="43.0882" lon="2.57213">
        <ele>214.99</ele>
        <time>2014-10-30T13:25:23Z</time>
      </trkpt>
      <trkpt lat="43.08819" lon="2.57214">
        <ele>218.36</ele>
        <time>2014-10-30T13:25:26Z</time>
      </trkpt>
      <trkpt lat="43.08817" lon="2.57218">
        <ele>221.72</ele>
        <time>2014-10-30T13:25:40Z</time>
      </trkpt>
      <trkpt lat="43.08817" lon="2.57219">
        <ele>218.36</ele>
        <time>2014-10-30T13:25:41Z</time>
      </trkpt>
      <trkpt lat="43.08814" lon="2.57222">
        <ele>221.72</ele>
        <time>2014-10-30T13:25:45Z</time>
      </trkpt>
      <trkpt lat="43.08813" lon="2.57224">
        <ele>218.36</ele>
        <time>2014-10-30T13:25:48Z</time>
      </trkpt>
      <trkpt lat="43.08813" lon="2.57223">
        <ele>221.24</ele>
        <time>2014-10-30T13:25:51Z</time>
      </trkpt>
      <trkpt lat="43.08805" lon="2.57233">
        <ele>224.12</ele>
        <time>2014-10-30T13:26:03Z</time>
      </trkpt>
      <trkpt lat="43.08804" lon="2.57236">
        <ele>220.76</ele>
        <time>2014-10-30T13:26:06Z</time>
      </trkpt>
      <trkpt lat="43.08802" lon="2.57241">
        <ele>225.09</ele>
        <time>2014-10-30T13:26:12Z</time>
      </trkpt>
      <trkpt lat="43.08802" lon="2.57242">
        <ele>222.2</ele>
        <time>2014-10-30T13:26:13Z</time>
      </trkpt>
      <trkpt lat="43.08799" lon="2.57248">
        <ele>225.57</ele>
        <time>2014-10-30T13:26:21Z</time>
      </trkpt>
      <trkpt lat="43.08799" lon="2.57249">
        <ele>222.68</ele>
        <time>2014-10-30T13:26:22Z</time>
      </trkpt>
      <trkpt lat="43.08798" lon="2.5725">
        <ele>226.05</ele>
        <time>2014-10-30T13:26:24Z</time>
      </trkpt>
      <trkpt lat="43.08796" lon="2.57271">
        <ele>226.05</ele>
        <time>2014-10-30T13:26:45Z</time>
      </trkpt>
      <trkpt lat="43.08793" lon="2.57295">
        <ele>227.01</ele>
        <time>2014-10-30T13:27:03Z</time>
      </trkpt>
      <trkpt lat="43.08792" lon="2.57312">
        <ele>227.97</ele>
        <time>2014-10-30T13:27:18Z</time>
      </trkpt>
      <trkpt lat="43.08792" lon="2.57314">
        <ele>227.97</ele>
        <time>2014-10-30T13:27:19Z</time>
      </trkpt>
      <trkpt lat="43.08792" lon="2.57337">
        <ele>229.89</ele>
        <time>2014-10-30T13:27:36Z</time>
      </trkpt>
      <trkpt lat="43.08793" lon="2.57355">
        <ele>231.81</ele>
        <time>2014-10-30T13:27:52Z</time>
      </trkpt>
      <trkpt lat="43.08791" lon="2.57378">
        <ele>234.7</ele>
        <time>2014-10-30T13:28:11Z</time>
      </trkpt>
      <trkpt lat="43.0879" lon="2.5738">
        <ele>231.81</ele>
        <time>2014-10-30T13:28:13Z</time>
      </trkpt>
      <trkpt lat="43.0879" lon="2.5739">
        <ele>234.7</ele>
        <time>2014-10-30T13:28:24Z</time>
      </trkpt>
      <trkpt lat="43.08788" lon="2.57414">
        <ele>233.74</ele>
        <time>2014-10-30T13:28:44Z</time>
      </trkpt>
      <trkpt lat="43.08784" lon="2.57422">
        <ele>232.78</ele>
        <time>2014-10-30T13:28:51Z</time>
      </trkpt>
      <trkpt lat="43.08779" lon="2.57448">
        <ele>234.7</ele>
        <time>2014-10-30T13:29:10Z</time>
      </trkpt>
      <trkpt lat="43.08782" lon="2.57456">
        <ele>232.3</ele>
        <time>2014-10-30T13:29:19Z</time>
      </trkpt>
      <trkpt lat="43.08786" lon="2.57475">
        <ele>234.7</ele>
        <time>2014-10-30T13:29:34Z</time>
      </trkpt>
      <trkpt lat="43.08786" lon="2.57483">
        <ele>238.06</ele>
        <time>2014-10-30T13:29:38Z</time>
      </trkpt>
      <trkpt lat="43.08787" lon="2.57487">
        <ele>234.7</ele>
        <time>2014-10-30T13:29:42Z</time>
      </trkpt>
      <trkpt lat="43.08788" lon="2.57489">
        <ele>239.02</ele>
        <time>2014-10-30T13:29:44Z</time>
      </trkpt>
      <trkpt lat="43.08788" lon="2.5749">
        <ele>235.18</ele>
        <time>2014-10-30T13:29:45Z</time>
      </trkpt>
      <trkpt lat="43.08789" lon="2.57495">
        <ele>239.99</ele>
        <time>2014-10-30T13:29:48Z</time>
      </trkpt>
      <trkpt lat="43.08789" lon="2.57496">
        <ele>236.62</ele>
        <time>2014-10-30T13:29:49Z</time>
      </trkpt>
      <trkpt lat="43.08789" lon="2.57498">
        <ele>239.99</ele>
        <time>2014-10-30T13:29:51Z</time>
      </trkpt>
      <trkpt lat="43.08789" lon="2.57499">
        <ele>237.1</ele>
        <time>2014-10-30T13:29:52Z</time>
      </trkpt>
      <trkpt lat="43.08789" lon="2.57502">
        <ele>239.99</ele>
        <time>2014-10-30T13:29:54Z</time>
      </trkpt>
      <trkpt lat="43.0879" lon="2.57504">
        <ele>239.02</ele>
        <time>2014-10-30T13:29:56Z</time>
      </trkpt>
      <trkpt lat="43.08792" lon="2.57509">
        <ele>237.58</ele>
        <time>2014-10-30T13:30:00Z</time>
      </trkpt>
      <trkpt lat="43.08793" lon="2.57512">
        <ele>241.43</ele>
        <time>2014-10-30T13:30:02Z</time>
      </trkpt>
      <trkpt lat="43.08796" lon="2.57529">
        <ele>241.91</ele>
        <time>2014-10-30T13:30:16Z</time>
      </trkpt>
      <trkpt lat="43.08796" lon="2.57537">
        <ele>241.43</ele>
        <time>2014-10-30T13:30:23Z</time>
      </trkpt>
      <trkpt lat="43.08799" lon="2.57556">
        <ele>241.43</ele>
        <time>2014-10-30T13:30:39Z</time>
      </trkpt>
      <trkpt lat="43.08802" lon="2.57569">
        <ele>244.79</ele>
        <time>2014-10-30T13:30:50Z</time>
      </trkpt>
      <trkpt lat="43.08805" lon="2.57585">
        <ele>245.27</ele>
        <time>2014-10-30T13:31:06Z</time>
      </trkpt>
      <trkpt lat="43.08809" lon="2.57604">
        <ele>245.27</ele>
        <time>2014-10-30T13:31:22Z</time>
      </trkpt>
      <trkpt lat="43.08809" lon="2.57608">
        <ele>245.27</ele>
        <time>2014-10-30T13:31:24Z</time>
      </trkpt>
      <trkpt lat="43.08808" lon="2.5762">
        <ele>243.35</ele>
        <time>2014-10-30T13:31:34Z</time>
      </trkpt>
      <trkpt lat="43.08808" lon="2.57626">
        <ele>246.23</ele>
        <time>2014-10-30T13:31:37Z</time>
      </trkpt>
      <trkpt lat="43.08809" lon="2.57631">
        <ele>247.2</ele>
        <time>2014-10-30T13:31:40Z</time>
      </trkpt>
      <trkpt lat="43.08809" lon="2.57632">
        <ele>243.35</ele>
        <time>2014-10-30T13:31:41Z</time>
      </trkpt>
      <trkpt lat="43.08809" lon="2.57633">
        <ele>246.72</ele>
        <time>2014-10-30T13:31:42Z</time>
      </trkpt>
      <trkpt lat="43.08813" lon="2.57644">
        <ele>248.64</ele>
        <time>2014-10-30T13:31:52Z</time>
      </trkpt>
      <trkpt lat="43.08821" lon="2.5766">
        <ele>248.64</ele>
        <time>2014-10-30T13:32:06Z</time>
      </trkpt>
      <trkpt lat="43.08829" lon="2.57668">
        <ele>249.6</ele>
        <time>2014-10-30T13:32:19Z</time>
      </trkpt>
      <trkpt lat="43.08833" lon="2.57671">
        <ele>249.6</ele>
        <time>2014-10-30T13:32:32Z</time>
      </trkpt>
      <trkpt lat="43.08835" lon="2.57676">
        <ele>250.56</ele>
        <time>2014-10-30T13:32:46Z</time>
      </trkpt>
      <trkpt lat="43.08836" lon="2.57677">
        <ele>250.08</ele>
        <time>2014-10-30T13:32:59Z</time>
      </trkpt>
      <trkpt lat="43.08837" lon="2.57676">
        <ele>250.08</ele>
        <time>2014-10-30T13:33:09Z</time>
      </trkpt>
      <trkpt lat="43.08837" lon="2.57676">
        <ele>252</ele>
        <time>2014-10-30T13:33:25Z</time>
      </trkpt>
      <trkpt lat="43.08837" lon="2.57676">
        <ele>251.04</ele>
        <time>2014-10-30T13:33:48Z</time>
      </trkpt>
      <trkpt lat="43.08836" lon="2.57676">
        <ele>251.52</ele>
        <time>2014-10-30T13:34:09Z</time>
      </trkpt>
      <trkpt lat="43.08836" lon="2.57675">
        <ele>251.04</ele>
        <time>2014-10-30T13:34:29Z</time>
      </trkpt>
      <trkpt lat="43.08836" lon="2.57676">
        <ele>250.08</ele>
        <time>2014-10-30T13:34:55Z</time>
      </trkpt>
      <trkpt lat="43.08836" lon="2.57675">
        <ele>250.08</ele>
        <time>2014-10-30T13:35:30Z</time>
      </trkpt>
      <trkpt lat="43.08836" lon="2.57675">
        <ele>251.04</ele>
        <time>2014-10-30T13:36:05Z</time>
      </trkpt>
      <trkpt lat="43.08835" lon="2.57676">
        <ele>251.04</ele>
        <time>2014-10-30T13:36:17Z</time>
      </trkpt>
      <trkpt lat="43.08833" lon="2.57678">
        <ele>251.04</ele>
        <time>2014-10-30T13:36:19Z</time>
      </trkpt>
      <trkpt lat="43.08824" lon="2.57685">
        <ele>252</ele>
        <time>2014-10-30T13:36:27Z</time>
      </trkpt>
      <trkpt lat="43.08815" lon="2.57701">
        <ele>254.41</ele>
        <time>2014-10-30T13:36:42Z</time>
      </trkpt>
      <trkpt lat="43.08808" lon="2.57709">
        <ele>255.37</ele>
        <time>2014-10-30T13:36:56Z</time>
      </trkpt>
      <trkpt lat="43.08804" lon="2.57718">
        <ele>255.85</ele>
        <time>2014-10-30T13:37:11Z</time>
      </trkpt>
      <trkpt lat="43.08798" lon="2.57733">
        <ele>256.33</ele>
        <time>2014-10-30T13:37:24Z</time>
      </trkpt>
      <trkpt lat="43.08787" lon="2.57741">
        <ele>257.29</ele>
        <time>2014-10-30T13:37:40Z</time>
      </trkpt>
      <trkpt lat="43.08778" lon="2.57766">
        <ele>259.69</ele>
        <time>2014-10-30T13:37:56Z</time>
      </trkpt>
      <trkpt lat="43.08777" lon="2.57783">
        <ele>262.1</ele>
        <time>2014-10-30T13:38:12Z</time>
      </trkpt>
      <trkpt lat="43.08777" lon="2.57785">
        <ele>262.1</ele>
        <time>2014-10-30T13:38:14Z</time>
      </trkpt>
      <trkpt lat="43.08774" lon="2.57814">
        <ele>263.06</ele>
        <time>2014-10-30T13:38:35Z</time>
      </trkpt>
      <trkpt lat="43.08771" lon="2.57841">
        <ele>264.02</ele>
        <time>2014-10-30T13:38:55Z</time>
      </trkpt>
      <trkpt lat="43.08765" lon="2.5787">
        <ele>265.46</ele>
        <time>2014-10-30T13:39:16Z</time>
      </trkpt>
      <trkpt lat="43.0876" lon="2.57897">
        <ele>265.46</ele>
        <time>2014-10-30T13:39:36Z</time>
      </trkpt>
      <trkpt lat="43.08753" lon="2.57921">
        <ele>266.9</ele>
        <time>2014-10-30T13:39:56Z</time>
      </trkpt>
      <trkpt lat="43.08744" lon="2.57942">
        <ele>267.86</ele>
        <time>2014-10-30T13:40:12Z</time>
      </trkpt>
      <trkpt lat="43.08734" lon="2.57962">
        <ele>267.86</ele>
        <time>2014-10-30T13:40:31Z</time>
      </trkpt>
      <trkpt lat="43.08733" lon="2.57962">
        <ele>268.35</ele>
        <time>2014-10-30T13:40:32Z</time>
      </trkpt>
      <trkpt lat="43.08723" lon="2.57975">
        <ele>268.35</ele>
        <time>2014-10-30T13:40:50Z</time>
      </trkpt>
      <trkpt lat="43.08706" lon="2.57995">
        <ele>269.31</ele>
        <time>2014-10-30T13:41:08Z</time>
      </trkpt>
      <trkpt lat="43.08688" lon="2.58005">
        <ele>270.75</ele>
        <time>2014-10-30T13:41:29Z</time>
      </trkpt>
      <trkpt lat="43.08668" lon="2.58024">
        <ele>272.19</ele>
        <time>2014-10-30T13:41:50Z</time>
      </trkpt>
      <trkpt lat="43.08659" lon="2.58035">
        <ele>273.63</ele>
        <time>2014-10-30T13:42:02Z</time>
      </trkpt>
      <trkpt lat="43.0864" lon="2.58051">
        <ele>274.59</ele>
        <time>2014-10-30T13:42:24Z</time>
      </trkpt>
      <trkpt lat="43.08624" lon="2.58064">
        <ele>274.59</ele>
        <time>2014-10-30T13:42:41Z</time>
      </trkpt>
      <trkpt lat="43.08619" lon="2.58067">
        <ele>275.07</ele>
        <time>2014-10-30T13:42:48Z</time>
      </trkpt>
      <trkpt lat="43.08603" lon="2.58075">
        <ele>275.56</ele>
        <time>2014-10-30T13:43:05Z</time>
      </trkpt>
      <trkpt lat="43.08585" lon="2.58082">
        <ele>276.04</ele>
        <time>2014-10-30T13:43:24Z</time>
      </trkpt>
      <trkpt lat="43.0857" lon="2.58092">
        <ele>277</ele>
        <time>2014-10-30T13:43:39Z</time>
      </trkpt>
      <trkpt lat="43.08549" lon="2.58105">
        <ele>279.4</ele>
        <time>2014-10-30T13:43:59Z</time>
      </trkpt>
      <trkpt lat="43.08541" lon="2.58112">
        <ele>281.32</ele>
        <time>2014-10-30T13:44:15Z</time>
      </trkpt>
      <trkpt lat="43.0853" lon="2.58128">
        <ele>283.73</ele>
        <time>2014-10-30T13:44:31Z</time>
      </trkpt>
      <trkpt lat="43.08521" lon="2.58147">
        <ele>285.17</ele>
        <time>2014-10-30T13:44:47Z</time>
      </trkpt>
      <trkpt lat="43.08508" lon="2.58169">
        <ele>287.57</ele>
        <time>2014-10-30T13:45:07Z</time>
      </trkpt>
      <trkpt lat="43.08499" lon="2.58184">
        <ele>289.97</ele>
        <time>2014-10-30T13:45:24Z</time>
      </trkpt>
      <trkpt lat="43.08492" lon="2.58204">
        <ele>292.38</ele>
        <time>2014-10-30T13:45:41Z</time>
      </trkpt>
      <trkpt lat="43.08485" lon="2.58224">
        <ele>294.78</ele>
        <time>2014-10-30T13:45:58Z</time>
      </trkpt>
      <trkpt lat="43.08479" lon="2.58241">
        <ele>297.18</ele>
        <time>2014-10-30T13:46:16Z</time>
      </trkpt>
      <trkpt lat="43.08469" lon="2.58261">
        <ele>299.59</ele>
        <time>2014-10-30T13:46:33Z</time>
      </trkpt>
      <trkpt lat="43.08461" lon="2.58282">
        <ele>302.47</ele>
        <time>2014-10-30T13:46:50Z</time>
      </trkpt>
      <trkpt lat="43.08456" lon="2.58297">
        <ele>303.43</ele>
        <time>2014-10-30T13:47:04Z</time>
      </trkpt>
      <trkpt lat="43.08453" lon="2.58313">
        <ele>305.84</ele>
        <time>2014-10-30T13:47:21Z</time>
      </trkpt>
      <trkpt lat="43.08451" lon="2.58333">
        <ele>306.8</ele>
        <time>2014-10-30T13:47:36Z</time>
      </trkpt>
      <trkpt lat="43.08462" lon="2.58358">
        <ele>308.72</ele>
        <time>2014-10-30T13:47:54Z</time>
      </trkpt>
      <trkpt lat="43.08465" lon="2.58377">
        <ele>309.68</ele>
        <time>2014-10-30T13:48:08Z</time>
      </trkpt>
      <trkpt lat="43.08469" lon="2.584">
        <ele>310.64</ele>
        <time>2014-10-30T13:48:25Z</time>
      </trkpt>
      <trkpt lat="43.08475" lon="2.58425">
        <ele>311.6</ele>
        <time>2014-10-30T13:48:44Z</time>
      </trkpt>
      <trkpt lat="43.08478" lon="2.58447">
        <ele>314.97</ele>
        <time>2014-10-30T13:49:02Z</time>
      </trkpt>
      <trkpt lat="43.08486" lon="2.58468">
        <ele>315.93</ele>
        <time>2014-10-30T13:49:20Z</time>
      </trkpt>
      <trkpt lat="43.08494" lon="2.58494">
        <ele>317.37</ele>
        <time>2014-10-30T13:49:40Z</time>
      </trkpt>
      <trkpt lat="43.08498" lon="2.58515">
        <ele>319.3</ele>
        <time>2014-10-30T13:49:56Z</time>
      </trkpt>
      <trkpt lat="43.08494" lon="2.58531">
        <ele>319.3</ele>
        <time>2014-10-30T13:50:13Z</time>
      </trkpt>
      <trkpt lat="43.08499" lon="2.58553">
        <ele>318.33</ele>
        <time>2014-10-30T13:50:30Z</time>
      </trkpt>
      <trkpt lat="43.08502" lon="2.58573">
        <ele>317.85</ele>
        <time>2014-10-30T13:50:44Z</time>
      </trkpt>
      <trkpt lat="43.08507" lon="2.58596">
        <ele>316.89</ele>
        <time>2014-10-30T13:51:01Z</time>
      </trkpt>
      <trkpt lat="43.08514" lon="2.58624">
        <ele>316.41</ele>
        <time>2014-10-30T13:51:20Z</time>
      </trkpt>
      <trkpt lat="43.08522" lon="2.58653">
        <ele>315.93</ele>
        <time>2014-10-30T13:51:38Z</time>
      </trkpt>
      <trkpt lat="43.08524" lon="2.58662">
        <ele>314.49</ele>
        <time>2014-10-30T13:51:44Z</time>
      </trkpt>
      <trkpt lat="43.08532" lon="2.58686">
        <ele>314.01</ele>
        <time>2014-10-30T13:52:01Z</time>
      </trkpt>
      <trkpt lat="43.08541" lon="2.58711">
        <ele>313.53</ele>
        <time>2014-10-30T13:52:20Z</time>
      </trkpt>
      <trkpt lat="43.08548" lon="2.58738">
        <ele>313.53</ele>
        <time>2014-10-30T13:52:36Z</time>
      </trkpt>
      <trkpt lat="43.08549" lon="2.58744">
        <ele>313.53</ele>
        <time>2014-10-30T13:52:40Z</time>
      </trkpt>
      <trkpt lat="43.08556" lon="2.5877">
        <ele>313.53</ele>
        <time>2014-10-30T13:52:56Z</time>
      </trkpt>
      <trkpt lat="43.08561" lon="2.58789">
        <ele>312.57</ele>
        <time>2014-10-30T13:53:09Z</time>
      </trkpt>
      <trkpt lat="43.08565" lon="2.58816">
        <ele>311.6</ele>
        <time>2014-10-30T13:53:27Z</time>
      </trkpt>
      <trkpt lat="43.08572" lon="2.58847">
        <ele>311.12</ele>
        <time>2014-10-30T13:53:47Z</time>
      </trkpt>
      <trkpt lat="43.08578" lon="2.58869">
        <ele>310.16</ele>
        <time>2014-10-30T13:54:02Z</time>
      </trkpt>
      <trkpt lat="43.08581" lon="2.58907">
        <ele>310.16</ele>
        <time>2014-10-30T13:54:25Z</time>
      </trkpt>
      <trkpt lat="43.08579" lon="2.58929">
        <ele>308.72</ele>
        <time>2014-10-30T13:54:40Z</time>
      </trkpt>
      <trkpt lat="43.0858" lon="2.58934">
        <ele>308.72</ele>
        <time>2014-10-30T13:54:44Z</time>
      </trkpt>
      <trkpt lat="43.08579" lon="2.58965">
        <ele>308.24</ele>
        <time>2014-10-30T13:55:04Z</time>
      </trkpt>
      <trkpt lat="43.08579" lon="2.59001">
        <ele>307.28</ele>
        <time>2014-10-30T13:55:26Z</time>
      </trkpt>
      <trkpt lat="43.08579" lon="2.5903">
        <ele>307.28</ele>
        <time>2014-10-30T13:55:46Z</time>
      </trkpt>
      <trkpt lat="43.08578" lon="2.59063">
        <ele>306.8</ele>
        <time>2014-10-30T13:56:05Z</time>
      </trkpt>
      <trkpt lat="43.08577" lon="2.59092">
        <ele>306.32</ele>
        <time>2014-10-30T13:56:25Z</time>
      </trkpt>
      <trkpt lat="43.08576" lon="2.59118">
        <ele>305.84</ele>
        <time>2014-10-30T13:56:43Z</time>
      </trkpt>
      <trkpt lat="43.08576" lon="2.59149">
        <ele>306.8</ele>
        <time>2014-10-30T13:57:02Z</time>
      </trkpt>
      <trkpt lat="43.08575" lon="2.5915">
        <ele>306.32</ele>
        <time>2014-10-30T13:57:03Z</time>
      </trkpt>
      <trkpt lat="43.08574" lon="2.59153">
        <ele>306.32</ele>
        <time>2014-10-30T13:57:05Z</time>
      </trkpt>
      <trkpt lat="43.08573" lon="2.59183">
        <ele>306.32</ele>
        <time>2014-10-30T13:57:24Z</time>
      </trkpt>
      <trkpt lat="43.08571" lon="2.59207">
        <ele>305.84</ele>
        <time>2014-10-30T13:57:40Z</time>
      </trkpt>
      <trkpt lat="43.0857" lon="2.59236">
        <ele>306.32</ele>
        <time>2014-10-30T13:57:58Z</time>
      </trkpt>
      <trkpt lat="43.08567" lon="2.59265">
        <ele>306.32</ele>
        <time>2014-10-30T13:58:16Z</time>
      </trkpt>
      <trkpt lat="43.08561" lon="2.59291">
        <ele>304.88</ele>
        <time>2014-10-30T13:58:33Z</time>
      </trkpt>
      <trkpt lat="43.08553" lon="2.59322">
        <ele>304.39</ele>
        <time>2014-10-30T13:58:52Z</time>
      </trkpt>
      <trkpt lat="43.08544" lon="2.59352">
        <ele>303.43</ele>
        <time>2014-10-30T13:59:11Z</time>
      </trkpt>
      <trkpt lat="43.08539" lon="2.59377">
        <ele>302.47</ele>
        <time>2014-10-30T13:59:27Z</time>
      </trkpt>
      <trkpt lat="43.08538" lon="2.59398">
        <ele>302.47</ele>
        <time>2014-10-30T13:59:44Z</time>
      </trkpt>
      <trkpt lat="43.08543" lon="2.59405">
        <ele>301.99</ele>
        <time>2014-10-30T13:59:52Z</time>
      </trkpt>
      <trkpt lat="43.08561" lon="2.59408">
        <ele>301.51</ele>
        <time>2014-10-30T14:00:09Z</time>
      </trkpt>
      <trkpt lat="43.08573" lon="2.59411">
        <ele>300.55</ele>
        <time>2014-10-30T14:00:19Z</time>
      </trkpt>
      <trkpt lat="43.08588" lon="2.59417">
        <ele>299.59</ele>
        <time>2014-10-30T14:00:32Z</time>
      </trkpt>
      <trkpt lat="43.08596" lon="2.59424">
        <ele>298.63</ele>
        <time>2014-10-30T14:00:40Z</time>
      </trkpt>
      <trkpt lat="43.08608" lon="2.59451">
        <ele>298.15</ele>
        <time>2014-10-30T14:00:58Z</time>
      </trkpt>
      <trkpt lat="43.08609" lon="2.59478">
        <ele>296.7</ele>
        <time>2014-10-30T14:01:14Z</time>
      </trkpt>
      <trkpt lat="43.08604" lon="2.5951">
        <ele>295.74</ele>
        <time>2014-10-30T14:01:33Z</time>
      </trkpt>
      <trkpt lat="43.08603" lon="2.59523">
        <ele>295.74</ele>
        <time>2014-10-30T14:01:48Z</time>
      </trkpt>
      <trkpt lat="43.08607" lon="2.59529">
        <ele>295.74</ele>
        <time>2014-10-30T14:02:03Z</time>
      </trkpt>
      <trkpt lat="43.08609" lon="2.59527">
        <ele>295.74</ele>
        <time>2014-10-30T14:02:05Z</time>
      </trkpt>
      <trkpt lat="43.0862" lon="2.59517">
        <ele>295.74</ele>
        <time>2014-10-30T14:02:17Z</time>
      </trkpt>
      <trkpt lat="43.08628" lon="2.59507">
        <ele>296.22</ele>
        <time>2014-10-30T14:02:27Z</time>
      </trkpt>
      <trkpt lat="43.08636" lon="2.59501">
        <ele>296.22</ele>
        <time>2014-10-30T14:02:35Z</time>
      </trkpt>
      <trkpt lat="43.08641" lon="2.59497">
        <ele>296.22</ele>
        <time>2014-10-30T14:02:39Z</time>
      </trkpt>
      <trkpt lat="43.08658" lon="2.5948">
        <ele>297.18</ele>
        <time>2014-10-30T14:02:56Z</time>
      </trkpt>
      <trkpt lat="43.08675" lon="2.59466">
        <ele>297.18</ele>
        <time>2014-10-30T14:03:13Z</time>
      </trkpt>
      <trkpt lat="43.08684" lon="2.5946">
        <ele>297.67</ele>
        <time>2014-10-30T14:03:26Z</time>
      </trkpt>
      <trkpt lat="43.08686" lon="2.59458">
        <ele>292.86</ele>
        <time>2014-10-30T14:03:28Z</time>
      </trkpt>
      <trkpt lat="43.08687" lon="2.59458">
        <ele>299.11</ele>
        <time>2014-10-30T14:03:29Z</time>
      </trkpt>
      <trkpt lat="43.08689" lon="2.59457">
        <ele>294.3</ele>
        <time>2014-10-30T14:03:31Z</time>
      </trkpt>
      <trkpt lat="43.08689" lon="2.59457">
        <ele>298.15</ele>
        <time>2014-10-30T14:03:32Z</time>
      </trkpt>
      <trkpt lat="43.08691" lon="2.59456">
        <ele>297.67</ele>
        <time>2014-10-30T14:03:34Z</time>
      </trkpt>
      <trkpt lat="43.08713" lon="2.59436">
        <ele>297.67</ele>
        <time>2014-10-30T14:03:54Z</time>
      </trkpt>
      <trkpt lat="43.0873" lon="2.59423">
        <ele>297.67</ele>
        <time>2014-10-30T14:04:09Z</time>
      </trkpt>
      <trkpt lat="43.0875" lon="2.59409">
        <ele>297.18</ele>
        <time>2014-10-30T14:04:25Z</time>
      </trkpt>
      <trkpt lat="43.08768" lon="2.59394">
        <ele>296.22</ele>
        <time>2014-10-30T14:04:42Z</time>
      </trkpt>
      <trkpt lat="43.08771" lon="2.59391">
        <ele>295.74</ele>
        <time>2014-10-30T14:04:56Z</time>
      </trkpt>
      <trkpt lat="43.08762" lon="2.59398">
        <ele>296.22</ele>
        <time>2014-10-30T14:05:05Z</time>
      </trkpt>
      <trkpt lat="43.08745" lon="2.59413">
        <ele>297.18</ele>
        <time>2014-10-30T14:05:22Z</time>
      </trkpt>
      <trkpt lat="43.08727" lon="2.59426">
        <ele>297.67</ele>
        <time>2014-10-30T14:05:37Z</time>
      </trkpt>
      <trkpt lat="43.08708" lon="2.59442">
        <ele>297.67</ele>
        <time>2014-10-30T14:05:55Z</time>
      </trkpt>
      <trkpt lat="43.08688" lon="2.59459">
        <ele>297.67</ele>
        <time>2014-10-30T14:06:13Z</time>
      </trkpt>
      <trkpt lat="43.08669" lon="2.59476">
        <ele>296.7</ele>
        <time>2014-10-30T14:06:31Z</time>
      </trkpt>
      <trkpt lat="43.08649" lon="2.59493">
        <ele>296.7</ele>
        <time>2014-10-30T14:06:49Z</time>
      </trkpt>
      <trkpt lat="43.0863" lon="2.5951">
        <ele>296.22</ele>
        <time>2014-10-30T14:07:07Z</time>
      </trkpt>
      <trkpt lat="43.08618" lon="2.59521">
        <ele>295.74</ele>
        <time>2014-10-30T14:07:19Z</time>
      </trkpt>
      <trkpt lat="43.08607" lon="2.59545">
        <ele>294.78</ele>
        <time>2014-10-30T14:07:35Z</time>
      </trkpt>
      <trkpt lat="43.08604" lon="2.59573">
        <ele>294.78</ele>
        <time>2014-10-30T14:07:53Z</time>
      </trkpt>
      <trkpt lat="43.08603" lon="2.59602">
        <ele>293.82</ele>
        <time>2014-10-30T14:08:12Z</time>
      </trkpt>
      <trkpt lat="43.08604" lon="2.59627">
        <ele>292.86</ele>
        <time>2014-10-30T14:08:27Z</time>
      </trkpt>
      <trkpt lat="43.08602" lon="2.59659">
        <ele>291.42</ele>
        <time>2014-10-30T14:08:47Z</time>
      </trkpt>
      <trkpt lat="43.08607" lon="2.59689">
        <ele>289.49</ele>
        <time>2014-10-30T14:09:04Z</time>
      </trkpt>
      <trkpt lat="43.0861" lon="2.59714">
        <ele>288.53</ele>
        <time>2014-10-30T14:09:18Z</time>
      </trkpt>
      <trkpt lat="43.08611" lon="2.59731">
        <ele>288.05</ele>
        <time>2014-10-30T14:09:28Z</time>
      </trkpt>
      <trkpt lat="43.08611" lon="2.59738">
        <ele>287.57</ele>
        <time>2014-10-30T14:09:32Z</time>
      </trkpt>
      <trkpt lat="43.0861" lon="2.59763">
        <ele>286.61</ele>
        <time>2014-10-30T14:09:47Z</time>
      </trkpt>
      <trkpt lat="43.08608" lon="2.59786">
        <ele>285.65</ele>
        <time>2014-10-30T14:10:00Z</time>
      </trkpt>
      <trkpt lat="43.08611" lon="2.59805">
        <ele>285.17</ele>
        <time>2014-10-30T14:10:13Z</time>
      </trkpt>
      <trkpt lat="43.08614" lon="2.59809">
        <ele>285.65</ele>
        <time>2014-10-30T14:10:30Z</time>
      </trkpt>
      <trkpt lat="43.0862" lon="2.59805">
        <ele>285.65</ele>
        <time>2014-10-30T14:10:39Z</time>
      </trkpt>
      <trkpt lat="43.08641" lon="2.59794">
        <ele>287.57</ele>
        <time>2014-10-30T14:10:59Z</time>
      </trkpt>
      <trkpt lat="43.08651" lon="2.59792">
        <ele>288.05</ele>
        <time>2014-10-30T14:11:08Z</time>
      </trkpt>
      <trkpt lat="43.08665" lon="2.59815">
        <ele>288.05</ele>
        <time>2014-10-30T14:11:26Z</time>
      </trkpt>
      <trkpt lat="43.08678" lon="2.59845">
        <ele>286.61</ele>
        <time>2014-10-30T14:11:46Z</time>
      </trkpt>
      <trkpt lat="43.08684" lon="2.59858">
        <ele>286.61</ele>
        <time>2014-10-30T14:11:56Z</time>
      </trkpt>
      <trkpt lat="43.08691" lon="2.59887">
        <ele>285.17</ele>
        <time>2014-10-30T14:12:14Z</time>
      </trkpt>
      <trkpt lat="43.08695" lon="2.59916">
        <ele>284.69</ele>
        <time>2014-10-30T14:12:30Z</time>
      </trkpt>
      <trkpt lat="43.08698" lon="2.59939">
        <ele>282.77</ele>
        <time>2014-10-30T14:12:44Z</time>
      </trkpt>
      <trkpt lat="43.08705" lon="2.59966">
        <ele>282.28</ele>
        <time>2014-10-30T14:13:02Z</time>
      </trkpt>
      <trkpt lat="43.08715" lon="2.59987">
        <ele>281.32</ele>
        <time>2014-10-30T14:13:18Z</time>
      </trkpt>
      <trkpt lat="43.08715" lon="2.59991">
        <ele>281.32</ele>
        <time>2014-10-30T14:13:21Z</time>
      </trkpt>
      <trkpt lat="43.08721" lon="2.60014">
        <ele>280.36</ele>
        <time>2014-10-30T14:13:37Z</time>
      </trkpt>
      <trkpt lat="43.08722" lon="2.60037">
        <ele>279.4</ele>
        <time>2014-10-30T14:13:53Z</time>
      </trkpt>
      <trkpt lat="43.08724" lon="2.60053">
        <ele>278.92</ele>
        <time>2014-10-30T14:14:07Z</time>
      </trkpt>
      <trkpt lat="43.08727" lon="2.60068">
        <ele>277.96</ele>
        <time>2014-10-30T14:14:20Z</time>
      </trkpt>
      <trkpt lat="43.08737" lon="2.60092">
        <ele>278.92</ele>
        <time>2014-10-30T14:14:37Z</time>
      </trkpt>
      <trkpt lat="43.08746" lon="2.60125">
        <ele>279.4</ele>
        <time>2014-10-30T14:14:55Z</time>
      </trkpt>
      <trkpt lat="43.08755" lon="2.60147">
        <ele>279.4</ele>
        <time>2014-10-30T14:15:10Z</time>
      </trkpt>
      <trkpt lat="43.08758" lon="2.60153">
        <ele>279.4</ele>
        <time>2014-10-30T14:15:15Z</time>
      </trkpt>
      <trkpt lat="43.08768" lon="2.60172">
        <ele>278.92</ele>
        <time>2014-10-30T14:15:30Z</time>
      </trkpt>
      <trkpt lat="43.08772" lon="2.60179">
        <ele>278.44</ele>
        <time>2014-10-30T14:15:47Z</time>
      </trkpt>
      <trkpt lat="43.08772" lon="2.60179">
        <ele>278.44</ele>
        <time>2014-10-30T14:16:04Z</time>
      </trkpt>
      <trkpt lat="43.08774" lon="2.6018">
        <ele>278.44</ele>
        <time>2014-10-30T14:16:17Z</time>
      </trkpt>
      <trkpt lat="43.08772" lon="2.60179">
        <ele>278.44</ele>
        <time>2014-10-30T14:16:26Z</time>
      </trkpt>
      <trkpt lat="43.08775" lon="2.60185">
        <ele>278.44</ele>
        <time>2014-10-30T14:16:30Z</time>
      </trkpt>
      <trkpt lat="43.08788" lon="2.60217">
        <ele>277.96</ele>
        <time>2014-10-30T14:16:48Z</time>
      </trkpt>
      <trkpt lat="43.08801" lon="2.60236">
        <ele>279.4</ele>
        <time>2014-10-30T14:17:02Z</time>
      </trkpt>
      <trkpt lat="43.08811" lon="2.60248">
        <ele>279.88</ele>
        <time>2014-10-30T14:17:17Z</time>
      </trkpt>
      <trkpt lat="43.08813" lon="2.60245">
        <ele>279.88</ele>
        <time>2014-10-30T14:17:34Z</time>
      </trkpt>
      <trkpt lat="43.08813" lon="2.60245">
        <ele>279.4</ele>
        <time>2014-10-30T14:18:10Z</time>
      </trkpt>
      <trkpt lat="43.08813" lon="2.60246">
        <ele>279.88</ele>
        <time>2014-10-30T14:18:38Z</time>
      </trkpt>
      <trkpt lat="43.08813" lon="2.60246">
        <ele>279.4</ele>
        <time>2014-10-30T14:19:02Z</time>
      </trkpt>
      <trkpt lat="43.08813" lon="2.60249">
        <ele>279.4</ele>
        <time>2014-10-30T14:19:30Z</time>
      </trkpt>
      <trkpt lat="43.08815" lon="2.60256">
        <ele>278.92</ele>
        <time>2014-10-30T14:19:35Z</time>
      </trkpt>
      <trkpt lat="43.08817" lon="2.60259">
        <ele>279.4</ele>
        <time>2014-10-30T14:19:38Z</time>
      </trkpt>
      <trkpt lat="43.08821" lon="2.60271">
        <ele>279.4</ele>
        <time>2014-10-30T14:19:47Z</time>
      </trkpt>
      <trkpt lat="43.08818" lon="2.60287">
        <ele>278.44</ele>
        <time>2014-10-30T14:19:58Z</time>
      </trkpt>
      <trkpt lat="43.08824" lon="2.60307">
        <ele>277.96</ele>
        <time>2014-10-30T14:20:13Z</time>
      </trkpt>
      <trkpt lat="43.08831" lon="2.60327">
        <ele>277.96</ele>
        <time>2014-10-30T14:20:27Z</time>
      </trkpt>
      <trkpt lat="43.08844" lon="2.6035">
        <ele>277.96</ele>
        <time>2014-10-30T14:20:47Z</time>
      </trkpt>
      <trkpt lat="43.08855" lon="2.6038">
        <ele>277.48</ele>
        <time>2014-10-30T14:21:07Z</time>
      </trkpt>
      <trkpt lat="43.08864" lon="2.60411">
        <ele>277.96</ele>
        <time>2014-10-30T14:21:29Z</time>
      </trkpt>
      <trkpt lat="43.08871" lon="2.6044">
        <ele>277.96</ele>
        <time>2014-10-30T14:21:48Z</time>
      </trkpt>
      <trkpt lat="43.0888" lon="2.60471">
        <ele>277.48</ele>
        <time>2014-10-30T14:22:09Z</time>
      </trkpt>
      <trkpt lat="43.08886" lon="2.60498">
        <ele>276.04</ele>
        <time>2014-10-30T14:22:27Z</time>
      </trkpt>
      <trkpt lat="43.0889" lon="2.60518">
        <ele>276.04</ele>
        <time>2014-10-30T14:22:41Z</time>
      </trkpt>
      <trkpt lat="43.08892" lon="2.60542">
        <ele>275.56</ele>
        <time>2014-10-30T14:22:56Z</time>
      </trkpt>
      <trkpt lat="43.08893" lon="2.60571">
        <ele>275.07</ele>
        <time>2014-10-30T14:23:12Z</time>
      </trkpt>
      <trkpt lat="43.08892" lon="2.606">
        <ele>273.63</ele>
        <time>2014-10-30T14:23:30Z</time>
      </trkpt>
      <trkpt lat="43.0889" lon="2.60632">
        <ele>272.67</ele>
        <time>2014-10-30T14:23:49Z</time>
      </trkpt>
      <trkpt lat="43.08888" lon="2.6066">
        <ele>270.75</ele>
        <time>2014-10-30T14:24:07Z</time>
      </trkpt>
      <trkpt lat="43.08887" lon="2.60692">
        <ele>268.83</ele>
        <time>2014-10-30T14:24:25Z</time>
      </trkpt>
      <trkpt lat="43.08891" lon="2.60716">
        <ele>267.86</ele>
        <time>2014-10-30T14:24:40Z</time>
      </trkpt>
      <trkpt lat="43.08892" lon="2.60719">
        <ele>267.38</ele>
        <time>2014-10-30T14:24:42Z</time>
      </trkpt>
      <trkpt lat="43.08894" lon="2.60742">
        <ele>266.42</ele>
        <time>2014-10-30T14:24:56Z</time>
      </trkpt>
      <trkpt lat="43.08897" lon="2.60759">
        <ele>264.5</ele>
        <time>2014-10-30T14:25:07Z</time>
      </trkpt>
      <trkpt lat="43.08898" lon="2.60788">
        <ele>262.58</ele>
        <time>2014-10-30T14:25:25Z</time>
      </trkpt>
      <trkpt lat="43.08901" lon="2.6081">
        <ele>260.65</ele>
        <time>2014-10-30T14:25:39Z</time>
      </trkpt>
      <trkpt lat="43.08906" lon="2.60835">
        <ele>258.25</ele>
        <time>2014-10-30T14:25:54Z</time>
      </trkpt>
      <trkpt lat="43.0891" lon="2.6086">
        <ele>255.37</ele>
        <time>2014-10-30T14:26:10Z</time>
      </trkpt>
      <trkpt lat="43.08911" lon="2.60875">
        <ele>253.44</ele>
        <time>2014-10-30T14:26:21Z</time>
      </trkpt>
      <trkpt lat="43.0891" lon="2.60898">
        <ele>250.08</ele>
        <time>2014-10-30T14:26:36Z</time>
      </trkpt>
      <trkpt lat="43.08909" lon="2.60918">
        <ele>247.68</ele>
        <time>2014-10-30T14:26:50Z</time>
      </trkpt>
      <trkpt lat="43.08908" lon="2.60921">
        <ele>247.68</ele>
        <time>2014-10-30T14:26:52Z</time>
      </trkpt>
      <trkpt lat="43.08897" lon="2.60945">
        <ele>244.79</ele>
        <time>2014-10-30T14:27:07Z</time>
      </trkpt>
      <trkpt lat="43.08891" lon="2.60965">
        <ele>242.39</ele>
        <time>2014-10-30T14:27:21Z</time>
      </trkpt>
      <trkpt lat="43.08886" lon="2.60986">
        <ele>239.99</ele>
        <time>2014-10-30T14:27:35Z</time>
      </trkpt>
      <trkpt lat="43.08884" lon="2.60998">
        <ele>239.02</ele>
        <time>2014-10-30T14:27:44Z</time>
      </trkpt>
      <trkpt lat="43.08884" lon="2.6103">
        <ele>239.02</ele>
        <time>2014-10-30T14:28:04Z</time>
      </trkpt>
      <trkpt lat="43.08884" lon="2.61028">
        <ele>239.02</ele>
        <time>2014-10-30T14:28:17Z</time>
      </trkpt>
      <trkpt lat="43.08884" lon="2.61018">
        <ele>238.54</ele>
        <time>2014-10-30T14:28:23Z</time>
      </trkpt>
      <trkpt lat="43.08878" lon="2.61006">
        <ele>237.1</ele>
        <time>2014-10-30T14:28:32Z</time>
      </trkpt>
      <trkpt lat="43.08867" lon="2.61011">
        <ele>235.66</ele>
        <time>2014-10-30T14:28:45Z</time>
      </trkpt>
      <trkpt lat="43.08858" lon="2.6103">
        <ele>231.81</ele>
        <time>2014-10-30T14:28:58Z</time>
      </trkpt>
      <trkpt lat="43.0885" lon="2.61048">
        <ele>228.93</ele>
        <time>2014-10-30T14:29:13Z</time>
      </trkpt>
      <trkpt lat="43.08847" lon="2.6106">
        <ele>226.05</ele>
        <time>2014-10-30T14:29:23Z</time>
      </trkpt>
      <trkpt lat="43.08845" lon="2.61074">
        <ele>223.16</ele>
        <time>2014-10-30T14:29:35Z</time>
      </trkpt>
      <trkpt lat="43.08845" lon="2.61078">
        <ele>221.72</ele>
        <time>2014-10-30T14:29:49Z</time>
      </trkpt>
      <trkpt lat="43.08842" lon="2.61085">
        <ele>219.8</ele>
        <time>2014-10-30T14:30:02Z</time>
      </trkpt>
      <trkpt lat="43.0884" lon="2.61089">
        <ele>219.32</ele>
        <time>2014-10-30T14:30:05Z</time>
      </trkpt>
      <trkpt lat="43.08835" lon="2.61104">
        <ele>215.47</ele>
        <time>2014-10-30T14:30:16Z</time>
      </trkpt>
      <trkpt lat="43.08831" lon="2.61115">
        <ele>213.07</ele>
        <time>2014-10-30T14:30:27Z</time>
      </trkpt>
      <trkpt lat="43.08828" lon="2.61125">
        <ele>210.67</ele>
        <time>2014-10-30T14:30:34Z</time>
      </trkpt>
      <trkpt lat="43.08825" lon="2.61133">
        <ele>208.74</ele>
        <time>2014-10-30T14:30:47Z</time>
      </trkpt>
      <trkpt lat="43.08824" lon="2.61135">
        <ele>207.3</ele>
        <time>2014-10-30T14:31:02Z</time>
      </trkpt>
      <trkpt lat="43.08823" lon="2.61138">
        <ele>206.82</ele>
        <time>2014-10-30T14:31:05Z</time>
      </trkpt>
      <trkpt lat="43.08819" lon="2.61149">
        <ele>202.98</ele>
        <time>2014-10-30T14:31:17Z</time>
      </trkpt>
      <trkpt lat="43.08817" lon="2.61155">
        <ele>200.57</ele>
        <time>2014-10-30T14:31:30Z</time>
      </trkpt>
      <trkpt lat="43.08817" lon="2.61158">
        <ele>199.13</ele>
        <time>2014-10-30T14:31:48Z</time>
      </trkpt>
      <trkpt lat="43.08817" lon="2.61157">
        <ele>199.13</ele>
        <time>2014-10-30T14:32:13Z</time>
      </trkpt>
      <trkpt lat="43.08816" lon="2.61164">
        <ele>197.21</ele>
        <time>2014-10-30T14:32:27Z</time>
      </trkpt>
      <trkpt lat="43.08814" lon="2.61171">
        <ele>194.8</ele>
        <time>2014-10-30T14:32:38Z</time>
      </trkpt>
      <trkpt lat="43.08811" lon="2.61185">
        <ele>190.96</ele>
        <time>2014-10-30T14:32:51Z</time>
      </trkpt>
      <trkpt lat="43.08808" lon="2.61191">
        <ele>190</ele>
        <time>2014-10-30T14:33:06Z</time>
      </trkpt>
      <trkpt lat="43.08808" lon="2.612">
        <ele>187.59</ele>
        <time>2014-10-30T14:33:26Z</time>
      </trkpt>
      <trkpt lat="43.08803" lon="2.61206">
        <ele>186.15</ele>
        <time>2014-10-30T14:33:37Z</time>
      </trkpt>
      <trkpt lat="43.08798" lon="2.61211">
        <ele>182.79</ele>
        <time>2014-10-30T14:33:49Z</time>
      </trkpt>
      <trkpt lat="43.08792" lon="2.61219">
        <ele>179.9</ele>
        <time>2014-10-30T14:34:02Z</time>
      </trkpt>
      <trkpt lat="43.08783" lon="2.6123">
        <ele>176.54</ele>
        <time>2014-10-30T14:34:12Z</time>
      </trkpt>
      <trkpt lat="43.08777" lon="2.61243">
        <ele>174.62</ele>
        <time>2014-10-30T14:34:27Z</time>
      </trkpt>
      <trkpt lat="43.08772" lon="2.6125">
        <ele>173.17</ele>
        <time>2014-10-30T14:34:42Z</time>
      </trkpt>
      <trkpt lat="43.08767" lon="2.61264">
        <ele>169.33</ele>
        <time>2014-10-30T14:34:53Z</time>
      </trkpt>
      <trkpt lat="43.08763" lon="2.61272">
        <ele>167.89</ele>
        <time>2014-10-30T14:35:00Z</time>
      </trkpt>
      <trkpt lat="43.08757" lon="2.61289">
        <ele>165</ele>
        <time>2014-10-30T14:35:14Z</time>
      </trkpt>
      <trkpt lat="43.08753" lon="2.61301">
        <ele>162.6</ele>
        <time>2014-10-30T14:35:26Z</time>
      </trkpt>
      <trkpt lat="43.08752" lon="2.61303">
        <ele>161.64</ele>
        <time>2014-10-30T14:35:28Z</time>
      </trkpt>
      <trkpt lat="43.08748" lon="2.61317">
        <ele>158.75</ele>
        <time>2014-10-30T14:35:38Z</time>
      </trkpt>
      <trkpt lat="43.08752" lon="2.61328">
        <ele>157.31</ele>
        <time>2014-10-30T14:35:49Z</time>
      </trkpt>
      <trkpt lat="43.08754" lon="2.6133">
        <ele>156.83</ele>
        <time>2014-10-30T14:35:55Z</time>
      </trkpt>
      <trkpt lat="43.08763" lon="2.61345">
        <ele>155.39</ele>
        <time>2014-10-30T14:36:07Z</time>
      </trkpt>
      <trkpt lat="43.08768" lon="2.6135">
        <ele>154.91</ele>
        <time>2014-10-30T14:36:11Z</time>
      </trkpt>
      <trkpt lat="43.08783" lon="2.61375">
        <ele>152.99</ele>
        <time>2014-10-30T14:36:29Z</time>
      </trkpt>
      <trkpt lat="43.08786" lon="2.61379">
        <ele>152.03</ele>
        <time>2014-10-30T14:36:32Z</time>
      </trkpt>
      <trkpt lat="43.08789" lon="2.61384">
        <ele>151.54</ele>
        <time>2014-10-30T14:36:36Z</time>
      </trkpt>
      <trkpt lat="43.08804" lon="2.61406">
        <ele>149.14</ele>
        <time>2014-10-30T14:36:52Z</time>
      </trkpt>
      <trkpt lat="43.0882" lon="2.61428">
        <ele>147.22</ele>
        <time>2014-10-30T14:37:08Z</time>
      </trkpt>
      <trkpt lat="43.08833" lon="2.61445">
        <ele>145.3</ele>
        <time>2014-10-30T14:37:21Z</time>
      </trkpt>
      <trkpt lat="43.0885" lon="2.61466">
        <ele>141.93</ele>
        <time>2014-10-30T14:37:37Z</time>
      </trkpt>
      <trkpt lat="43.08862" lon="2.61481">
        <ele>140.49</ele>
        <time>2014-10-30T14:37:51Z</time>
      </trkpt>
      <trkpt lat="43.08864" lon="2.61484">
        <ele>140.01</ele>
        <time>2014-10-30T14:37:53Z</time>
      </trkpt>
      <trkpt lat="43.08859" lon="2.61506">
        <ele>138.57</ele>
        <time>2014-10-30T14:38:08Z</time>
      </trkpt>
      <trkpt lat="43.08859" lon="2.6151">
        <ele>137.61</ele>
        <time>2014-10-30T14:38:14Z</time>
      </trkpt>
      <trkpt lat="43.0887" lon="2.6152">
        <ele>136.64</ele>
        <time>2014-10-30T14:38:26Z</time>
      </trkpt>
      <trkpt lat="43.08887" lon="2.61526">
        <ele>136.16</ele>
        <time>2014-10-30T14:38:41Z</time>
      </trkpt>
      <trkpt lat="43.08906" lon="2.61532">
        <ele>135.2</ele>
        <time>2014-10-30T14:38:58Z</time>
      </trkpt>
      <trkpt lat="43.08928" lon="2.61538">
        <ele>133.76</ele>
        <time>2014-10-30T14:39:15Z</time>
      </trkpt>
      <trkpt lat="43.08949" lon="2.61551">
        <ele>132.8</ele>
        <time>2014-10-30T14:39:35Z</time>
      </trkpt>
      <trkpt lat="43.08946" lon="2.61551">
        <ele>133.76</ele>
        <time>2014-10-30T14:39:50Z</time>
      </trkpt>
      <trkpt lat="43.08955" lon="2.61554">
        <ele>132.8</ele>
        <time>2014-10-30T14:39:58Z</time>
      </trkpt>
      <trkpt lat="43.08973" lon="2.61564">
        <ele>131.84</ele>
        <time>2014-10-30T14:40:15Z</time>
      </trkpt>
      <trkpt lat="43.08973" lon="2.61565">
        <ele>131.84</ele>
        <time>2014-10-30T14:40:25Z</time>
      </trkpt>
      <trkpt lat="43.08975" lon="2.61566">
        <ele>131.84</ele>
        <time>2014-10-30T14:40:27Z</time>
      </trkpt>
      <trkpt lat="43.08981" lon="2.61568">
        <ele>131.84</ele>
        <time>2014-10-30T14:40:32Z</time>
      </trkpt>
      <trkpt lat="43.09" lon="2.61578">
        <ele>131.36</ele>
        <time>2014-10-30T14:40:49Z</time>
      </trkpt>
      <trkpt lat="43.09022" lon="2.61592">
        <ele>130.4</ele>
        <time>2014-10-30T14:41:07Z</time>
      </trkpt>
      <trkpt lat="43.0903" lon="2.61594">
        <ele>130.4</ele>
        <time>2014-10-30T14:41:21Z</time>
      </trkpt>
      <trkpt lat="43.09032" lon="2.61597">
        <ele>129.92</ele>
        <time>2014-10-30T14:41:30Z</time>
      </trkpt>
      <trkpt lat="43.09036" lon="2.616">
        <ele>129.43</ele>
        <time>2014-10-30T14:41:35Z</time>
      </trkpt>
      <trkpt lat="43.09058" lon="2.61616">
        <ele>127.51</ele>
        <time>2014-10-30T14:41:53Z</time>
      </trkpt>
      <trkpt lat="43.09078" lon="2.61631">
        <ele>126.55</ele>
        <time>2014-10-30T14:42:10Z</time>
      </trkpt>
      <trkpt lat="43.09101" lon="2.61642">
        <ele>125.59</ele>
        <time>2014-10-30T14:42:30Z</time>
      </trkpt>
      <trkpt lat="43.09102" lon="2.61643">
        <ele>125.11</ele>
        <time>2014-10-30T14:42:32Z</time>
      </trkpt>
      <trkpt lat="43.09102" lon="2.61651">
        <ele>125.11</ele>
        <time>2014-10-30T14:42:46Z</time>
      </trkpt>
      <trkpt lat="43.09105" lon="2.61671">
        <ele>125.11</ele>
        <time>2014-10-30T14:43:00Z</time>
      </trkpt>
      <trkpt lat="43.09107" lon="2.61679">
        <ele>124.63</ele>
        <time>2014-10-30T14:43:05Z</time>
      </trkpt>
      <trkpt lat="43.09108" lon="2.61684">
        <ele>124.63</ele>
        <time>2014-10-30T14:43:08Z</time>
      </trkpt>
      <trkpt lat="43.09115" lon="2.61706">
        <ele>124.15</ele>
        <time>2014-10-30T14:43:23Z</time>
      </trkpt>
      <trkpt lat="43.09123" lon="2.61715">
        <ele>123.19</ele>
        <time>2014-10-30T14:43:31Z</time>
      </trkpt>
      <trkpt lat="43.09137" lon="2.61724">
        <ele>123.67</ele>
        <time>2014-10-30T14:43:43Z</time>
      </trkpt>
      <trkpt lat="43.09154" lon="2.61728">
        <ele>123.67</ele>
        <time>2014-10-30T14:43:58Z</time>
      </trkpt>
      <trkpt lat="43.09156" lon="2.61727">
        <ele>123.67</ele>
        <time>2014-10-30T14:44:08Z</time>
      </trkpt>
      <trkpt lat="43.09162" lon="2.61728">
        <ele>123.19</ele>
        <time>2014-10-30T14:44:13Z</time>
      </trkpt>
      <trkpt lat="43.09175" lon="2.61737">
        <ele>122.71</ele>
        <time>2014-10-30T14:44:25Z</time>
      </trkpt>
      <trkpt lat="43.09194" lon="2.61752">
        <ele>122.71</ele>
        <time>2014-10-30T14:44:42Z</time>
      </trkpt>
      <trkpt lat="43.09205" lon="2.61768">
        <ele>122.22</ele>
        <time>2014-10-30T14:44:55Z</time>
      </trkpt>
      <trkpt lat="43.09211" lon="2.61781">
        <ele>122.22</ele>
        <time>2014-10-30T14:45:03Z</time>
      </trkpt>
      <trkpt lat="43.09213" lon="2.61784">
        <ele>122.22</ele>
        <time>2014-10-30T14:45:05Z</time>
      </trkpt>
      <trkpt lat="43.09222" lon="2.61797">
        <ele>122.71</ele>
        <time>2014-10-30T14:45:17Z</time>
      </trkpt>
      <trkpt lat="43.09226" lon="2.61805">
        <ele>122.71</ele>
        <time>2014-10-30T14:45:30Z</time>
      </trkpt>
      <trkpt lat="43.09228" lon="2.61805">
        <ele>122.71</ele>
        <time>2014-10-30T14:45:45Z</time>
      </trkpt>
      <trkpt lat="43.09231" lon="2.61808">
        <ele>122.71</ele>
        <time>2014-10-30T14:45:48Z</time>
      </trkpt>
      <trkpt lat="43.09235" lon="2.61817">
        <ele>123.19</ele>
        <time>2014-10-30T14:45:55Z</time>
      </trkpt>
      <trkpt lat="43.09233" lon="2.61826">
        <ele>124.15</ele>
        <time>2014-10-30T14:46:02Z</time>
      </trkpt>
      <trkpt lat="43.09229" lon="2.61837">
        <ele>125.59</ele>
        <time>2014-10-30T14:46:18Z</time>
      </trkpt>
      <trkpt lat="43.09229" lon="2.61838">
        <ele>125.59</ele>
        <time>2014-10-30T14:46:24Z</time>
      </trkpt>
      <trkpt lat="43.09225" lon="2.61847">
        <ele>125.59</ele>
        <time>2014-10-30T14:46:32Z</time>
      </trkpt>
      <trkpt lat="43.09214" lon="2.61864">
        <ele>123.19</ele>
        <time>2014-10-30T14:46:49Z</time>
      </trkpt>
      <trkpt lat="43.09209" lon="2.61872">
        <ele>121.26</ele>
        <time>2014-10-30T14:47:04Z</time>
      </trkpt>
      <trkpt lat="43.09209" lon="2.61873">
        <ele>121.26</ele>
        <time>2014-10-30T14:47:11Z</time>
      </trkpt>
      <trkpt lat="43.09209" lon="2.61889">
        <ele>119.82</ele>
        <time>2014-10-30T14:47:27Z</time>
      </trkpt>
      <trkpt lat="43.09211" lon="2.61891">
        <ele>119.82</ele>
        <time>2014-10-30T14:47:29Z</time>
      </trkpt>
      <trkpt lat="43.09229" lon="2.61894">
        <ele>119.34</ele>
        <time>2014-10-30T14:47:45Z</time>
      </trkpt>
      <trkpt lat="43.09252" lon="2.61904">
        <ele>118.86</ele>
        <time>2014-10-30T14:48:03Z</time>
      </trkpt>
      <trkpt lat="43.09264" lon="2.6192">
        <ele>118.38</ele>
        <time>2014-10-30T14:48:18Z</time>
      </trkpt>
      <trkpt lat="43.09282" lon="2.61933">
        <ele>118.86</ele>
        <time>2014-10-30T14:48:33Z</time>
      </trkpt>
      <trkpt lat="43.09284" lon="2.61935">
        <ele>118.86</ele>
        <time>2014-10-30T14:48:51Z</time>
      </trkpt>
      <trkpt lat="43.09284" lon="2.61935">
        <ele>118.86</ele>
        <time>2014-10-30T14:49:12Z</time>
      </trkpt>
      <trkpt lat="43.09288" lon="2.6193">
        <ele>118.86</ele>
        <time>2014-10-30T14:49:26Z</time>
      </trkpt>
      <trkpt lat="43.0929" lon="2.61952">
        <ele>118.86</ele>
        <time>2014-10-30T14:49:41Z</time>
      </trkpt>
      <trkpt lat="43.09291" lon="2.61968">
        <ele>119.82</ele>
        <time>2014-10-30T14:49:54Z</time>
      </trkpt>
      <trkpt lat="43.09292" lon="2.6197">
        <ele>120.78</ele>
        <time>2014-10-30T14:49:57Z</time>
      </trkpt>
      <trkpt lat="43.09293" lon="2.6198">
        <ele>120.3</ele>
        <time>2014-10-30T14:50:10Z</time>
      </trkpt>
      <trkpt lat="43.09287" lon="2.61994">
        <ele>120.3</ele>
        <time>2014-10-30T14:50:23Z</time>
      </trkpt>
      <trkpt lat="43.09277" lon="2.62007">
        <ele>120.3</ele>
        <time>2014-10-30T14:50:38Z</time>
      </trkpt>
      <trkpt lat="43.09277" lon="2.62007">
        <ele>120.78</ele>
        <time>2014-10-30T14:50:55Z</time>
      </trkpt>
      <trkpt lat="43.09278" lon="2.62008">
        <ele>120.3</ele>
        <time>2014-10-30T14:51:06Z</time>
      </trkpt>
    </trkseg>
  </trk>
</gpx>